<?xml version="1.0" encoding="UTF-8" standalone="no" ?>
<gpx xmlns="http://www.topografix.com/GPX/1/1" xmlns:xsi="http://www.w3.org/2001/XMLSchema-instance" xsi:schemaLocation="http://www.topografix.com/GPX/1/1 http://www.topografix.com/GPX/1/1/gpx.xsd" version="1.1" creator="VisuGPX - https://www.visugpx.com">
  <metadata>
    <name>Nantes Savenay par le GR3 18-12-11</name>
    <desc><![CDATA[Nantes Savenay par le GR3 18-12-11]]></desc>
  </metadata>
  <trk>
    <name><![CDATA[001-2011/12/18-10:24:19]]></name>
    <trkseg>
      <trkpt lat="47.21812" lon="-1.54174">
        <ele>18</ele>
        <time>2011-12-18T10:24:19Z</time>
      </trkpt>
      <trkpt lat="47.21784" lon="-1.54179">
        <ele>66</ele>
        <time>2011-12-18T10:24:39Z</time>
      </trkpt>
      <trkpt lat="47.21788" lon="-1.54182">
        <ele>64</ele>
        <time>2011-12-18T10:24:43Z</time>
      </trkpt>
      <trkpt lat="47.21788" lon="-1.54183">
        <ele>63</ele>
        <time>2011-12-18T10:24:44Z</time>
      </trkpt>
      <trkpt lat="47.21794" lon="-1.54187">
        <ele>54</ele>
        <time>2011-12-18T10:24:52Z</time>
      </trkpt>
      <trkpt lat="47.21808" lon="-1.54197">
        <ele>47</ele>
        <time>2011-12-18T10:24:58Z</time>
      </trkpt>
      <trkpt lat="47.21811" lon="-1.54198">
        <ele>44</ele>
        <time>2011-12-18T10:25:00Z</time>
      </trkpt>
      <trkpt lat="47.21813" lon="-1.54198">
        <ele>40</ele>
        <time>2011-12-18T10:25:00Z</time>
      </trkpt>
      <trkpt lat="47.21819" lon="-1.54187">
        <ele>22</ele>
        <time>2011-12-18T10:25:07Z</time>
      </trkpt>
      <trkpt lat="47.21822" lon="-1.54189">
        <ele>19</ele>
        <time>2011-12-18T10:25:11Z</time>
      </trkpt>
      <trkpt lat="47.21835" lon="-1.54209">
        <ele>13</ele>
        <time>2011-12-18T10:25:20Z</time>
      </trkpt>
      <trkpt lat="47.21836" lon="-1.54217">
        <ele>11</ele>
        <time>2011-12-18T10:25:21Z</time>
      </trkpt>
      <trkpt lat="47.21839" lon="-1.54222">
        <ele>9</ele>
        <time>2011-12-18T10:25:22Z</time>
      </trkpt>
      <trkpt lat="47.21843" lon="-1.54236">
        <ele>7</ele>
        <time>2011-12-18T10:25:27Z</time>
      </trkpt>
      <trkpt lat="47.21844" lon="-1.54249">
        <ele>6</ele>
        <time>2011-12-18T10:25:27Z</time>
      </trkpt>
      <trkpt lat="47.21853" lon="-1.54283">
        <ele>2</ele>
        <time>2011-12-18T10:25:33Z</time>
      </trkpt>
      <trkpt lat="47.21856" lon="-1.54321">
        <ele>8.8</ele>
        <time>2011-12-18T10:25:42Z</time>
      </trkpt>
      <trkpt lat="47.21873" lon="-1.54348">
        <ele>-3</ele>
        <time>2011-12-18T10:25:49Z</time>
      </trkpt>
      <trkpt lat="47.21879" lon="-1.54363">
        <ele>-4</ele>
        <time>2011-12-18T10:25:50Z</time>
      </trkpt>
      <trkpt lat="47.21895" lon="-1.54385">
        <ele>-6</ele>
        <time>2011-12-18T10:25:56Z</time>
      </trkpt>
      <trkpt lat="47.21908" lon="-1.54395">
        <ele>-3</ele>
        <time>2011-12-18T10:26:00Z</time>
      </trkpt>
      <trkpt lat="47.21912" lon="-1.54399">
        <ele>-1</ele>
        <time>2011-12-18T10:26:01Z</time>
      </trkpt>
      <trkpt lat="47.21928" lon="-1.54412">
        <ele>12.2</ele>
        <time>2011-12-18T10:26:06Z</time>
      </trkpt>
      <trkpt lat="47.2193" lon="-1.54412">
        <ele>12.2</ele>
        <time>2011-12-18T10:26:07Z</time>
      </trkpt>
      <trkpt lat="47.21984" lon="-1.5448">
        <ele>16.3</ele>
        <time>2011-12-18T10:26:46Z</time>
      </trkpt>
      <trkpt lat="47.21992" lon="-1.54487">
        <ele>16.5</ele>
        <time>2011-12-18T10:26:46Z</time>
      </trkpt>
      <trkpt lat="47.22002" lon="-1.54491">
        <ele>16.7</ele>
        <time>2011-12-18T10:26:52Z</time>
      </trkpt>
      <trkpt lat="47.22016" lon="-1.54508">
        <ele>16.9</ele>
        <time>2011-12-18T10:26:54Z</time>
      </trkpt>
      <trkpt lat="47.22025" lon="-1.54516">
        <ele>16.9</ele>
        <time>2011-12-18T10:26:59Z</time>
      </trkpt>
      <trkpt lat="47.22051" lon="-1.54557">
        <ele>-2</ele>
        <time>2011-12-18T10:27:07Z</time>
      </trkpt>
      <trkpt lat="47.22051" lon="-1.54556">
        <ele>-2</ele>
        <time>2011-12-18T10:27:14Z</time>
      </trkpt>
      <trkpt lat="47.2205" lon="-1.54556">
        <ele>-2</ele>
        <time>2011-12-18T10:27:15Z</time>
      </trkpt>
      <trkpt lat="47.22048" lon="-1.54554">
        <ele>-2</ele>
        <time>2011-12-18T10:27:22Z</time>
      </trkpt>
      <trkpt lat="47.22046" lon="-1.54553">
        <ele>18</ele>
        <time>2011-12-18T10:27:23Z</time>
      </trkpt>
      <trkpt lat="47.22044" lon="-1.54551">
        <ele>17.9</ele>
        <time>2011-12-18T10:27:30Z</time>
      </trkpt>
      <trkpt lat="47.2205" lon="-1.54558">
        <ele>18</ele>
        <time>2011-12-18T10:27:30Z</time>
      </trkpt>
      <trkpt lat="47.22065" lon="-1.54588">
        <ele>18.4</ele>
        <time>2011-12-18T10:27:37Z</time>
      </trkpt>
      <trkpt lat="47.22065" lon="-1.54597">
        <ele>18.7</ele>
        <time>2011-12-18T10:27:40Z</time>
      </trkpt>
      <trkpt lat="47.22001" lon="-1.54728">
        <ele>15</ele>
        <time>2011-12-18T10:28:08Z</time>
      </trkpt>
      <trkpt lat="47.21999" lon="-1.54731">
        <ele>17</ele>
        <time>2011-12-18T10:28:09Z</time>
      </trkpt>
      <trkpt lat="47.22008" lon="-1.54709">
        <ele>19</ele>
        <time>2011-12-18T10:28:17Z</time>
      </trkpt>
      <trkpt lat="47.21995" lon="-1.54699">
        <ele>22</ele>
        <time>2011-12-18T10:28:19Z</time>
      </trkpt>
      <trkpt lat="47.21987" lon="-1.5469">
        <ele>23</ele>
        <time>2011-12-18T10:28:25Z</time>
      </trkpt>
      <trkpt lat="47.21967" lon="-1.54679">
        <ele>24</ele>
        <time>2011-12-18T10:28:25Z</time>
      </trkpt>
      <trkpt lat="47.21951" lon="-1.54676">
        <ele>24</ele>
        <time>2011-12-18T10:28:32Z</time>
      </trkpt>
      <trkpt lat="47.2194" lon="-1.54666">
        <ele>24</ele>
        <time>2011-12-18T10:28:32Z</time>
      </trkpt>
      <trkpt lat="47.21937" lon="-1.54667">
        <ele>24</ele>
        <time>2011-12-18T10:28:33Z</time>
      </trkpt>
      <trkpt lat="47.21933" lon="-1.5467">
        <ele>24</ele>
        <time>2011-12-18T10:28:34Z</time>
      </trkpt>
      <trkpt lat="47.21861" lon="-1.54855">
        <ele>24</ele>
        <time>2011-12-18T10:29:07Z</time>
      </trkpt>
      <trkpt lat="47.21856" lon="-1.54859">
        <ele>23</ele>
        <time>2011-12-18T10:29:15Z</time>
      </trkpt>
      <trkpt lat="47.21858" lon="-1.54863">
        <ele>22</ele>
        <time>2011-12-18T10:29:16Z</time>
      </trkpt>
      <trkpt lat="47.2186" lon="-1.54861">
        <ele>19</ele>
        <time>2011-12-18T10:29:23Z</time>
      </trkpt>
      <trkpt lat="47.21862" lon="-1.54858">
        <ele>18</ele>
        <time>2011-12-18T10:29:24Z</time>
      </trkpt>
      <trkpt lat="47.2186" lon="-1.54858">
        <ele>17</ele>
        <time>2011-12-18T10:29:24Z</time>
      </trkpt>
      <trkpt lat="47.21777" lon="-1.54795">
        <ele>18</ele>
        <time>2011-12-18T10:29:51Z</time>
      </trkpt>
      <trkpt lat="47.2175" lon="-1.54789">
        <ele>20</ele>
        <time>2011-12-18T10:30:00Z</time>
      </trkpt>
      <trkpt lat="47.21732" lon="-1.54803">
        <ele>21</ele>
        <time>2011-12-18T10:30:01Z</time>
      </trkpt>
      <trkpt lat="47.21724" lon="-1.54819">
        <ele>23</ele>
        <time>2011-12-18T10:30:07Z</time>
      </trkpt>
      <trkpt lat="47.21693" lon="-1.5493">
        <ele>23</ele>
        <time>2011-12-18T10:30:27Z</time>
      </trkpt>
      <trkpt lat="47.21699" lon="-1.54957">
        <ele>25</ele>
        <time>2011-12-18T10:30:37Z</time>
      </trkpt>
      <trkpt lat="47.21695" lon="-1.54984">
        <ele>28</ele>
        <time>2011-12-18T10:30:43Z</time>
      </trkpt>
      <trkpt lat="47.21693" lon="-1.54988">
        <ele>30</ele>
        <time>2011-12-18T10:30:45Z</time>
      </trkpt>
      <trkpt lat="47.21689" lon="-1.54996">
        <ele>33</ele>
        <time>2011-12-18T10:30:50Z</time>
      </trkpt>
      <trkpt lat="47.21688" lon="-1.5501">
        <ele>34</ele>
        <time>2011-12-18T10:30:56Z</time>
      </trkpt>
      <trkpt lat="47.21677" lon="-1.55018">
        <ele>34</ele>
        <time>2011-12-18T10:30:57Z</time>
      </trkpt>
      <trkpt lat="47.21674" lon="-1.55019">
        <ele>34</ele>
        <time>2011-12-18T10:30:58Z</time>
      </trkpt>
      <trkpt lat="47.21667" lon="-1.5502">
        <ele>33</ele>
        <time>2011-12-18T10:31:04Z</time>
      </trkpt>
      <trkpt lat="47.21656" lon="-1.55031">
        <ele>32</ele>
        <time>2011-12-18T10:31:04Z</time>
      </trkpt>
      <trkpt lat="47.21654" lon="-1.55033">
        <ele>30</ele>
        <time>2011-12-18T10:31:05Z</time>
      </trkpt>
      <trkpt lat="47.21642" lon="-1.55044">
        <ele>26</ele>
        <time>2011-12-18T10:31:12Z</time>
      </trkpt>
      <trkpt lat="47.21635" lon="-1.55063">
        <ele>24</ele>
        <time>2011-12-18T10:31:13Z</time>
      </trkpt>
      <trkpt lat="47.21637" lon="-1.55068">
        <ele>22</ele>
        <time>2011-12-18T10:31:14Z</time>
      </trkpt>
      <trkpt lat="47.21637" lon="-1.55074">
        <ele>20</ele>
        <time>2011-12-18T10:31:15Z</time>
      </trkpt>
      <trkpt lat="47.21636" lon="-1.55111">
        <ele>18</ele>
        <time>2011-12-18T10:31:21Z</time>
      </trkpt>
      <trkpt lat="47.21636" lon="-1.55116">
        <ele>17</ele>
        <time>2011-12-18T10:31:22Z</time>
      </trkpt>
      <trkpt lat="47.21639" lon="-1.55122">
        <ele>16</ele>
        <time>2011-12-18T10:31:28Z</time>
      </trkpt>
      <trkpt lat="47.21638" lon="-1.55135">
        <ele>16</ele>
        <time>2011-12-18T10:31:29Z</time>
      </trkpt>
      <trkpt lat="47.21636" lon="-1.55139">
        <ele>16</ele>
        <time>2011-12-18T10:31:29Z</time>
      </trkpt>
      <trkpt lat="47.21637" lon="-1.55143">
        <ele>16</ele>
        <time>2011-12-18T10:31:30Z</time>
      </trkpt>
      <trkpt lat="47.21642" lon="-1.55152">
        <ele>17</ele>
        <time>2011-12-18T10:31:38Z</time>
      </trkpt>
      <trkpt lat="47.21659" lon="-1.55165">
        <ele>18</ele>
        <time>2011-12-18T10:31:39Z</time>
      </trkpt>
      <trkpt lat="47.21675" lon="-1.55168">
        <ele>20</ele>
        <time>2011-12-18T10:31:45Z</time>
      </trkpt>
      <trkpt lat="47.21701" lon="-1.55159">
        <ele>25</ele>
        <time>2011-12-18T10:31:54Z</time>
      </trkpt>
      <trkpt lat="47.21717" lon="-1.55161">
        <ele>29</ele>
        <time>2011-12-18T10:32:01Z</time>
      </trkpt>
      <trkpt lat="47.21725" lon="-1.55165">
        <ele>31</ele>
        <time>2011-12-18T10:32:01Z</time>
      </trkpt>
      <trkpt lat="47.21746" lon="-1.55165">
        <ele>35</ele>
        <time>2011-12-18T10:32:07Z</time>
      </trkpt>
      <trkpt lat="47.21749" lon="-1.55165">
        <ele>35</ele>
        <time>2011-12-18T10:32:08Z</time>
      </trkpt>
      <trkpt lat="47.21752" lon="-1.55168">
        <ele>35</ele>
        <time>2011-12-18T10:32:10Z</time>
      </trkpt>
      <trkpt lat="47.21762" lon="-1.55169">
        <ele>35</ele>
        <time>2011-12-18T10:32:16Z</time>
      </trkpt>
      <trkpt lat="47.21766" lon="-1.55175">
        <ele>35</ele>
        <time>2011-12-18T10:32:17Z</time>
      </trkpt>
      <trkpt lat="47.21783" lon="-1.5517">
        <ele>37</ele>
        <time>2011-12-18T10:32:22Z</time>
      </trkpt>
      <trkpt lat="47.21785" lon="-1.55168">
        <ele>38</ele>
        <time>2011-12-18T10:32:23Z</time>
      </trkpt>
      <trkpt lat="47.21787" lon="-1.55165">
        <ele>39</ele>
        <time>2011-12-18T10:32:24Z</time>
      </trkpt>
      <trkpt lat="47.21789" lon="-1.55162">
        <ele>40</ele>
        <time>2011-12-18T10:32:25Z</time>
      </trkpt>
      <trkpt lat="47.21816" lon="-1.55125">
        <ele>44</ele>
        <time>2011-12-18T10:32:41Z</time>
      </trkpt>
      <trkpt lat="47.21843" lon="-1.55099">
        <ele>43</ele>
        <time>2011-12-18T10:32:53Z</time>
      </trkpt>
      <trkpt lat="47.21892" lon="-1.55029">
        <ele>43</ele>
        <time>2011-12-18T10:33:06Z</time>
      </trkpt>
      <trkpt lat="47.21892" lon="-1.55026">
        <ele>43</ele>
        <time>2011-12-18T10:33:07Z</time>
      </trkpt>
      <trkpt lat="47.21899" lon="-1.55011">
        <ele>42</ele>
        <time>2011-12-18T10:33:13Z</time>
      </trkpt>
      <trkpt lat="47.21902" lon="-1.55003">
        <ele>35</ele>
        <time>2011-12-18T10:33:22Z</time>
      </trkpt>
      <trkpt lat="47.21908" lon="-1.54988">
        <ele>33</ele>
        <time>2011-12-18T10:33:23Z</time>
      </trkpt>
      <trkpt lat="47.2191" lon="-1.54985">
        <ele>32</ele>
        <time>2011-12-18T10:33:29Z</time>
      </trkpt>
      <trkpt lat="47.21915" lon="-1.54975">
        <ele>31</ele>
        <time>2011-12-18T10:33:29Z</time>
      </trkpt>
      <trkpt lat="47.21917" lon="-1.54972">
        <ele>29</ele>
        <time>2011-12-18T10:33:31Z</time>
      </trkpt>
      <trkpt lat="47.21921" lon="-1.5496">
        <ele>27</ele>
        <time>2011-12-18T10:33:36Z</time>
      </trkpt>
      <trkpt lat="47.21931" lon="-1.54954">
        <ele>26</ele>
        <time>2011-12-18T10:33:37Z</time>
      </trkpt>
      <trkpt lat="47.21935" lon="-1.54955">
        <ele>25</ele>
        <time>2011-12-18T10:33:38Z</time>
      </trkpt>
      <trkpt lat="47.21947" lon="-1.54959">
        <ele>23</ele>
        <time>2011-12-18T10:33:44Z</time>
      </trkpt>
      <trkpt lat="47.21959" lon="-1.54971">
        <ele>20</ele>
        <time>2011-12-18T10:33:46Z</time>
      </trkpt>
      <trkpt lat="47.21984" lon="-1.54975">
        <ele>13</ele>
        <time>2011-12-18T10:34:09Z</time>
      </trkpt>
      <trkpt lat="47.21993" lon="-1.54981">
        <ele>12</ele>
        <time>2011-12-18T10:34:09Z</time>
      </trkpt>
      <trkpt lat="47.21999" lon="-1.54998">
        <ele>12</ele>
        <time>2011-12-18T10:34:17Z</time>
      </trkpt>
      <trkpt lat="47.22137" lon="-1.55111">
        <ele>13</ele>
        <time>2011-12-18T10:34:53Z</time>
      </trkpt>
      <trkpt lat="47.2214" lon="-1.55112">
        <ele>13</ele>
        <time>2011-12-18T10:34:54Z</time>
      </trkpt>
      <trkpt lat="47.2215" lon="-1.55112">
        <ele>13</ele>
        <time>2011-12-18T10:35:01Z</time>
      </trkpt>
      <trkpt lat="47.2215" lon="-1.55113">
        <ele>13</ele>
        <time>2011-12-18T10:35:11Z</time>
      </trkpt>
      <trkpt lat="47.22148" lon="-1.55114">
        <ele>13</ele>
        <time>2011-12-18T10:35:12Z</time>
      </trkpt>
      <trkpt lat="47.22147" lon="-1.55117">
        <ele>13</ele>
        <time>2011-12-18T10:35:20Z</time>
      </trkpt>
      <trkpt lat="47.22148" lon="-1.55121">
        <ele>13</ele>
        <time>2011-12-18T10:35:21Z</time>
      </trkpt>
      <trkpt lat="47.22151" lon="-1.55119">
        <ele>13</ele>
        <time>2011-12-18T10:35:30Z</time>
      </trkpt>
      <trkpt lat="47.22152" lon="-1.55118">
        <ele>13</ele>
        <time>2011-12-18T10:35:37Z</time>
      </trkpt>
      <trkpt lat="47.22163" lon="-1.5513">
        <ele>13</ele>
        <time>2011-12-18T10:35:45Z</time>
      </trkpt>
      <trkpt lat="47.22176" lon="-1.55138">
        <ele>14</ele>
        <time>2011-12-18T10:35:47Z</time>
      </trkpt>
      <trkpt lat="47.22252" lon="-1.55211">
        <ele>13</ele>
        <time>2011-12-18T10:36:19Z</time>
      </trkpt>
      <trkpt lat="47.22261" lon="-1.55227">
        <ele>13</ele>
        <time>2011-12-18T10:36:19Z</time>
      </trkpt>
      <trkpt lat="47.22263" lon="-1.55241">
        <ele>13</ele>
        <time>2011-12-18T10:36:23Z</time>
      </trkpt>
      <trkpt lat="47.22277" lon="-1.55259">
        <ele>12</ele>
        <time>2011-12-18T10:36:29Z</time>
      </trkpt>
      <trkpt lat="47.22291" lon="-1.55266">
        <ele>9</ele>
        <time>2011-12-18T10:36:36Z</time>
      </trkpt>
      <trkpt lat="47.22462" lon="-1.55302">
        <ele>2</ele>
        <time>2011-12-18T10:37:34Z</time>
      </trkpt>
      <trkpt lat="47.22466" lon="-1.55301">
        <ele>2</ele>
        <time>2011-12-18T10:37:35Z</time>
      </trkpt>
      <trkpt lat="47.22611" lon="-1.55335">
        <ele>2</ele>
        <time>2011-12-18T10:38:19Z</time>
      </trkpt>
      <trkpt lat="47.22617" lon="-1.55334">
        <ele>2</ele>
        <time>2011-12-18T10:38:22Z</time>
      </trkpt>
      <trkpt lat="47.22622" lon="-1.55331">
        <ele>2</ele>
        <time>2011-12-18T10:38:27Z</time>
      </trkpt>
      <trkpt lat="47.22693" lon="-1.55338">
        <ele>2</ele>
        <time>2011-12-18T10:38:48Z</time>
      </trkpt>
      <trkpt lat="47.2271" lon="-1.55331">
        <ele>2</ele>
        <time>2011-12-18T10:38:48Z</time>
      </trkpt>
      <trkpt lat="47.22713" lon="-1.55328">
        <ele>2</ele>
        <time>2011-12-18T10:38:50Z</time>
      </trkpt>
      <trkpt lat="47.22836" lon="-1.5516">
        <ele>5</ele>
        <time>2011-12-18T10:39:36Z</time>
      </trkpt>
      <trkpt lat="47.22839" lon="-1.55158">
        <ele>5</ele>
        <time>2011-12-18T10:39:38Z</time>
      </trkpt>
      <trkpt lat="47.23022" lon="-1.5492">
        <ele>5</ele>
        <time>2011-12-18T10:40:35Z</time>
      </trkpt>
      <trkpt lat="47.23023" lon="-1.54913">
        <ele>5</ele>
        <time>2011-12-18T10:40:38Z</time>
      </trkpt>
      <trkpt lat="47.23037" lon="-1.54886">
        <ele>5</ele>
        <time>2011-12-18T10:40:43Z</time>
      </trkpt>
      <trkpt lat="47.2305" lon="-1.54873">
        <ele>5</ele>
        <time>2011-12-18T10:40:51Z</time>
      </trkpt>
      <trkpt lat="47.23099" lon="-1.54798">
        <ele>5</ele>
        <time>2011-12-18T10:41:06Z</time>
      </trkpt>
      <trkpt lat="47.23168" lon="-1.54757">
        <ele>3</ele>
        <time>2011-12-18T10:41:21Z</time>
      </trkpt>
      <trkpt lat="47.23187" lon="-1.54748">
        <ele>3</ele>
        <time>2011-12-18T10:41:21Z</time>
      </trkpt>
      <trkpt lat="47.23209" lon="-1.54746">
        <ele>3</ele>
        <time>2011-12-18T10:41:29Z</time>
      </trkpt>
      <trkpt lat="47.23234" lon="-1.54734">
        <ele>3</ele>
        <time>2011-12-18T10:41:30Z</time>
      </trkpt>
      <trkpt lat="47.23245" lon="-1.54724">
        <ele>3</ele>
        <time>2011-12-18T10:41:37Z</time>
      </trkpt>
      <trkpt lat="47.23262" lon="-1.54716">
        <ele>3</ele>
        <time>2011-12-18T10:41:37Z</time>
      </trkpt>
      <trkpt lat="47.23267" lon="-1.54716">
        <ele>3</ele>
        <time>2011-12-18T10:41:38Z</time>
      </trkpt>
      <trkpt lat="47.23307" lon="-1.54729">
        <ele>3</ele>
        <time>2011-12-18T10:41:47Z</time>
      </trkpt>
      <trkpt lat="47.23317" lon="-1.54729">
        <ele>3</ele>
        <time>2011-12-18T10:41:51Z</time>
      </trkpt>
      <trkpt lat="47.2333" lon="-1.54732">
        <ele>3</ele>
        <time>2011-12-18T10:41:52Z</time>
      </trkpt>
      <trkpt lat="47.23393" lon="-1.54772">
        <ele>5.4</ele>
        <time>2011-12-18T10:42:11Z</time>
      </trkpt>
      <trkpt lat="47.23407" lon="-1.54775">
        <ele>5.8</ele>
        <time>2011-12-18T10:42:11Z</time>
      </trkpt>
      <trkpt lat="47.23412" lon="-1.54775">
        <ele>6</ele>
        <time>2011-12-18T10:42:12Z</time>
      </trkpt>
      <trkpt lat="47.23438" lon="-1.54767">
        <ele>7.1</ele>
        <time>2011-12-18T10:42:18Z</time>
      </trkpt>
      <trkpt lat="47.23472" lon="-1.54768">
        <ele>7.7</ele>
        <time>2011-12-18T10:42:27Z</time>
      </trkpt>
      <trkpt lat="47.23492" lon="-1.54772">
        <ele>1</ele>
        <time>2011-12-18T10:42:32Z</time>
      </trkpt>
      <trkpt lat="47.23495" lon="-1.54771">
        <ele>1</ele>
        <time>2011-12-18T10:42:33Z</time>
      </trkpt>
      <trkpt lat="47.23497" lon="-1.54768">
        <ele>1</ele>
        <time>2011-12-18T10:42:35Z</time>
      </trkpt>
      <trkpt lat="47.23499" lon="-1.54765">
        <ele>1</ele>
        <time>2011-12-18T10:42:36Z</time>
      </trkpt>
      <trkpt lat="47.23519" lon="-1.54746">
        <ele>2</ele>
        <time>2011-12-18T10:42:43Z</time>
      </trkpt>
      <trkpt lat="47.23521" lon="-1.54739">
        <ele>3</ele>
        <time>2011-12-18T10:42:48Z</time>
      </trkpt>
      <trkpt lat="47.23521" lon="-1.54728">
        <ele>4</ele>
        <time>2011-12-18T10:42:49Z</time>
      </trkpt>
      <trkpt lat="47.23522" lon="-1.54725">
        <ele>6</ele>
        <time>2011-12-18T10:42:50Z</time>
      </trkpt>
      <trkpt lat="47.23523" lon="-1.54724">
        <ele>7</ele>
        <time>2011-12-18T10:42:50Z</time>
      </trkpt>
      <trkpt lat="47.23525" lon="-1.54724">
        <ele>9</ele>
        <time>2011-12-18T10:42:58Z</time>
      </trkpt>
      <trkpt lat="47.23526" lon="-1.54724">
        <ele>9</ele>
        <time>2011-12-18T10:42:59Z</time>
      </trkpt>
      <trkpt lat="47.23528" lon="-1.54726">
        <ele>9</ele>
        <time>2011-12-18T10:43:00Z</time>
      </trkpt>
      <trkpt lat="47.23534" lon="-1.54737">
        <ele>9</ele>
        <time>2011-12-18T10:43:06Z</time>
      </trkpt>
      <trkpt lat="47.23516" lon="-1.54855">
        <ele>12</ele>
        <time>2011-12-18T10:43:37Z</time>
      </trkpt>
      <trkpt lat="47.23517" lon="-1.54859">
        <ele>12</ele>
        <time>2011-12-18T10:43:46Z</time>
      </trkpt>
      <trkpt lat="47.2351" lon="-1.54908">
        <ele>12</ele>
        <time>2011-12-18T10:43:59Z</time>
      </trkpt>
      <trkpt lat="47.235" lon="-1.54913">
        <ele>11</ele>
        <time>2011-12-18T10:43:59Z</time>
      </trkpt>
      <trkpt lat="47.23497" lon="-1.54913">
        <ele>11</ele>
        <time>2011-12-18T10:44:00Z</time>
      </trkpt>
      <trkpt lat="47.23473" lon="-1.54904">
        <ele>8</ele>
        <time>2011-12-18T10:44:07Z</time>
      </trkpt>
      <trkpt lat="47.23402" lon="-1.54895">
        <ele>1</ele>
        <time>2011-12-18T10:44:21Z</time>
      </trkpt>
      <trkpt lat="47.23367" lon="-1.5489">
        <ele>6.1</ele>
        <time>2011-12-18T10:44:33Z</time>
      </trkpt>
      <trkpt lat="47.23372" lon="-1.54886">
        <ele>5.8</ele>
        <time>2011-12-18T10:44:33Z</time>
      </trkpt>
      <trkpt lat="47.2338" lon="-1.54888">
        <ele>5.9</ele>
        <time>2011-12-18T10:44:35Z</time>
      </trkpt>
      <trkpt lat="47.23384" lon="-1.54886">
        <ele>5.8</ele>
        <time>2011-12-18T10:44:36Z</time>
      </trkpt>
      <trkpt lat="47.23535" lon="-1.54913">
        <ele>2</ele>
        <time>2011-12-18T10:45:10Z</time>
      </trkpt>
      <trkpt lat="47.23543" lon="-1.54919">
        <ele>3</ele>
        <time>2011-12-18T10:45:12Z</time>
      </trkpt>
      <trkpt lat="47.23573" lon="-1.54978">
        <ele>3</ele>
        <time>2011-12-18T10:45:27Z</time>
      </trkpt>
      <trkpt lat="47.23609" lon="-1.55028">
        <ele>4</ele>
        <time>2011-12-18T10:45:45Z</time>
      </trkpt>
      <trkpt lat="47.2361" lon="-1.5503">
        <ele>5</ele>
        <time>2011-12-18T10:45:46Z</time>
      </trkpt>
      <trkpt lat="47.23627" lon="-1.55041">
        <ele>5</ele>
        <time>2011-12-18T10:45:58Z</time>
      </trkpt>
      <trkpt lat="47.23669" lon="-1.55055">
        <ele>3</ele>
        <time>2011-12-18T10:46:06Z</time>
      </trkpt>
      <trkpt lat="47.23674" lon="-1.55053">
        <ele>1</ele>
        <time>2011-12-18T10:46:09Z</time>
      </trkpt>
      <trkpt lat="47.23697" lon="-1.55057">
        <ele>1</ele>
        <time>2011-12-18T10:46:15Z</time>
      </trkpt>
      <trkpt lat="47.23734" lon="-1.55054">
        <ele>1</ele>
        <time>2011-12-18T10:46:30Z</time>
      </trkpt>
      <trkpt lat="47.23785" lon="-1.55062">
        <ele>1</ele>
        <time>2011-12-18T10:46:49Z</time>
      </trkpt>
      <trkpt lat="47.23827" lon="-1.55059">
        <ele>5.1</ele>
        <time>2011-12-18T10:46:56Z</time>
      </trkpt>
      <trkpt lat="47.23832" lon="-1.55061">
        <ele>5.2</ele>
        <time>2011-12-18T10:46:58Z</time>
      </trkpt>
      <trkpt lat="47.23834" lon="-1.55061">
        <ele>5.2</ele>
        <time>2011-12-18T10:46:59Z</time>
      </trkpt>
      <trkpt lat="47.23877" lon="-1.55015">
        <ele>4.6</ele>
        <time>2011-12-18T10:47:20Z</time>
      </trkpt>
      <trkpt lat="47.23886" lon="-1.55011">
        <ele>4.9</ele>
        <time>2011-12-18T10:47:23Z</time>
      </trkpt>
      <trkpt lat="47.23908" lon="-1.55012">
        <ele>5.3</ele>
        <time>2011-12-18T10:47:29Z</time>
      </trkpt>
      <trkpt lat="47.2392" lon="-1.55008">
        <ele>5.5</ele>
        <time>2011-12-18T10:47:35Z</time>
      </trkpt>
      <trkpt lat="47.23923" lon="-1.55009">
        <ele>5.7</ele>
        <time>2011-12-18T10:47:37Z</time>
      </trkpt>
      <trkpt lat="47.2393" lon="-1.55009">
        <ele>6.1</ele>
        <time>2011-12-18T10:47:39Z</time>
      </trkpt>
      <trkpt lat="47.23936" lon="-1.55006">
        <ele>6.2</ele>
        <time>2011-12-18T10:47:45Z</time>
      </trkpt>
      <trkpt lat="47.24003" lon="-1.54941">
        <ele>6.4</ele>
        <time>2011-12-18T10:48:00Z</time>
      </trkpt>
      <trkpt lat="47.24109" lon="-1.54811">
        <ele>6.6</ele>
        <time>2011-12-18T10:48:28Z</time>
      </trkpt>
      <trkpt lat="47.24182" lon="-1.54802">
        <ele>-2</ele>
        <time>2011-12-18T10:48:43Z</time>
      </trkpt>
      <trkpt lat="47.24205" lon="-1.54807">
        <ele>-4</ele>
        <time>2011-12-18T10:48:49Z</time>
      </trkpt>
      <trkpt lat="47.24209" lon="-1.54811">
        <ele>-7</ele>
        <time>2011-12-18T10:48:50Z</time>
      </trkpt>
      <trkpt lat="47.24217" lon="-1.5482">
        <ele>-7</ele>
        <time>2011-12-18T10:48:57Z</time>
      </trkpt>
      <trkpt lat="47.24233" lon="-1.54825">
        <ele>-7</ele>
        <time>2011-12-18T10:48:58Z</time>
      </trkpt>
      <trkpt lat="47.24247" lon="-1.54824">
        <ele>-7</ele>
        <time>2011-12-18T10:49:07Z</time>
      </trkpt>
      <trkpt lat="47.24249" lon="-1.54822">
        <ele>-4</ele>
        <time>2011-12-18T10:49:16Z</time>
      </trkpt>
      <trkpt lat="47.24256" lon="-1.54819">
        <ele>-2</ele>
        <time>2011-12-18T10:49:22Z</time>
      </trkpt>
      <trkpt lat="47.24258" lon="-1.54818">
        <ele>4.3</ele>
        <time>2011-12-18T10:49:24Z</time>
      </trkpt>
      <trkpt lat="47.24264" lon="-1.54815">
        <ele>4.5</ele>
        <time>2011-12-18T10:49:37Z</time>
      </trkpt>
      <trkpt lat="47.2427" lon="-1.54816">
        <ele>4.7</ele>
        <time>2011-12-18T10:49:46Z</time>
      </trkpt>
      <trkpt lat="47.24317" lon="-1.54798">
        <ele>5.8</ele>
        <time>2011-12-18T10:50:08Z</time>
      </trkpt>
      <trkpt lat="47.24324" lon="-1.54791">
        <ele>6.3</ele>
        <time>2011-12-18T10:50:08Z</time>
      </trkpt>
      <trkpt lat="47.2433" lon="-1.54773">
        <ele>6.6</ele>
        <time>2011-12-18T10:50:12Z</time>
      </trkpt>
      <trkpt lat="47.24349" lon="-1.5475">
        <ele>1</ele>
        <time>2011-12-18T10:50:19Z</time>
      </trkpt>
      <trkpt lat="47.24573" lon="-1.5461">
        <ele>4</ele>
        <time>2011-12-18T10:51:03Z</time>
      </trkpt>
      <trkpt lat="47.2463" lon="-1.54604">
        <ele>4</ele>
        <time>2011-12-18T10:51:17Z</time>
      </trkpt>
      <trkpt lat="47.24632" lon="-1.54604">
        <ele>4</ele>
        <time>2011-12-18T10:51:18Z</time>
      </trkpt>
      <trkpt lat="47.24634" lon="-1.54603">
        <ele>4</ele>
        <time>2011-12-18T10:51:20Z</time>
      </trkpt>
      <trkpt lat="47.2464" lon="-1.54595">
        <ele>4</ele>
        <time>2011-12-18T10:51:27Z</time>
      </trkpt>
      <trkpt lat="47.24713" lon="-1.54563">
        <ele>2</ele>
        <time>2011-12-18T10:51:40Z</time>
      </trkpt>
      <trkpt lat="47.24724" lon="-1.54552">
        <ele>1</ele>
        <time>2011-12-18T10:51:44Z</time>
      </trkpt>
      <trkpt lat="47.24738" lon="-1.54546">
        <ele>1</ele>
        <time>2011-12-18T10:51:46Z</time>
      </trkpt>
      <trkpt lat="47.24758" lon="-1.54515">
        <ele>1</ele>
        <time>2011-12-18T10:51:55Z</time>
      </trkpt>
      <trkpt lat="47.24768" lon="-1.54508">
        <ele>1</ele>
        <time>2011-12-18T10:52:00Z</time>
      </trkpt>
      <trkpt lat="47.24789" lon="-1.54479">
        <ele>1</ele>
        <time>2011-12-18T10:52:08Z</time>
      </trkpt>
      <trkpt lat="47.24794" lon="-1.54475">
        <ele>1</ele>
        <time>2011-12-18T10:52:11Z</time>
      </trkpt>
      <trkpt lat="47.24922" lon="-1.54331">
        <ele>1</ele>
        <time>2011-12-18T10:52:51Z</time>
      </trkpt>
      <trkpt lat="47.24926" lon="-1.54327">
        <ele>6.8</ele>
        <time>2011-12-18T10:52:52Z</time>
      </trkpt>
      <trkpt lat="47.25066" lon="-1.54148">
        <ele>5.5</ele>
        <time>2011-12-18T10:53:27Z</time>
      </trkpt>
      <trkpt lat="47.2512" lon="-1.54105">
        <ele>5.6</ele>
        <time>2011-12-18T10:53:41Z</time>
      </trkpt>
      <trkpt lat="47.25132" lon="-1.54087">
        <ele>5.7</ele>
        <time>2011-12-18T10:53:47Z</time>
      </trkpt>
      <trkpt lat="47.2515" lon="-1.54072">
        <ele>5.5</ele>
        <time>2011-12-18T10:53:59Z</time>
      </trkpt>
      <trkpt lat="47.25324" lon="-1.54031">
        <ele>1</ele>
        <time>2011-12-18T10:54:44Z</time>
      </trkpt>
      <trkpt lat="47.25326" lon="-1.54032">
        <ele>1</ele>
        <time>2011-12-18T10:54:45Z</time>
      </trkpt>
      <trkpt lat="47.25328" lon="-1.54038">
        <ele>1</ele>
        <time>2011-12-18T10:54:47Z</time>
      </trkpt>
      <trkpt lat="47.2533" lon="-1.54041">
        <ele>1</ele>
        <time>2011-12-18T10:54:52Z</time>
      </trkpt>
      <trkpt lat="47.25337" lon="-1.54041">
        <ele>1</ele>
        <time>2011-12-18T10:54:54Z</time>
      </trkpt>
      <trkpt lat="47.2536" lon="-1.54034">
        <ele>1</ele>
        <time>2011-12-18T10:55:01Z</time>
      </trkpt>
      <trkpt lat="47.25362" lon="-1.54031">
        <ele>1</ele>
        <time>2011-12-18T10:55:02Z</time>
      </trkpt>
      <trkpt lat="47.25369" lon="-1.54028">
        <ele>1</ele>
        <time>2011-12-18T10:55:07Z</time>
      </trkpt>
      <trkpt lat="47.25459" lon="-1.54007">
        <ele>2</ele>
        <time>2011-12-18T10:55:33Z</time>
      </trkpt>
      <trkpt lat="47.2549" lon="-1.54013">
        <ele>2</ele>
        <time>2011-12-18T10:55:40Z</time>
      </trkpt>
      <trkpt lat="47.25588" lon="-1.53981">
        <ele>2</ele>
        <time>2011-12-18T10:56:12Z</time>
      </trkpt>
      <trkpt lat="47.25592" lon="-1.53977">
        <ele>2</ele>
        <time>2011-12-18T10:56:13Z</time>
      </trkpt>
      <trkpt lat="47.25603" lon="-1.53972">
        <ele>2</ele>
        <time>2011-12-18T10:56:19Z</time>
      </trkpt>
      <trkpt lat="47.25608" lon="-1.53979">
        <ele>2</ele>
        <time>2011-12-18T10:56:19Z</time>
      </trkpt>
      <trkpt lat="47.25608" lon="-1.53982">
        <ele>2</ele>
        <time>2011-12-18T10:56:21Z</time>
      </trkpt>
      <trkpt lat="47.25608" lon="-1.53983">
        <ele>2</ele>
        <time>2011-12-18T10:56:22Z</time>
      </trkpt>
      <trkpt lat="47.25605" lon="-1.53988">
        <ele>3</ele>
        <time>2011-12-18T10:56:27Z</time>
      </trkpt>
      <trkpt lat="47.25595" lon="-1.53994">
        <ele>3</ele>
        <time>2011-12-18T10:56:28Z</time>
      </trkpt>
      <trkpt lat="47.25592" lon="-1.53994">
        <ele>4</ele>
        <time>2011-12-18T10:56:29Z</time>
      </trkpt>
      <trkpt lat="47.2559" lon="-1.53995">
        <ele>6</ele>
        <time>2011-12-18T10:56:30Z</time>
      </trkpt>
      <trkpt lat="47.25571" lon="-1.54006">
        <ele>8</ele>
        <time>2011-12-18T10:56:36Z</time>
      </trkpt>
      <trkpt lat="47.25569" lon="-1.5401">
        <ele>9</ele>
        <time>2011-12-18T10:56:37Z</time>
      </trkpt>
      <trkpt lat="47.25569" lon="-1.54012">
        <ele>10</ele>
        <time>2011-12-18T10:56:38Z</time>
      </trkpt>
      <trkpt lat="47.2557" lon="-1.54015">
        <ele>10</ele>
        <time>2011-12-18T10:56:43Z</time>
      </trkpt>
      <trkpt lat="47.25605" lon="-1.54004">
        <ele>11</ele>
        <time>2011-12-18T10:56:53Z</time>
      </trkpt>
      <trkpt lat="47.25611" lon="-1.54005">
        <ele>11</ele>
        <time>2011-12-18T10:56:58Z</time>
      </trkpt>
      <trkpt lat="47.25618" lon="-1.54016">
        <ele>11</ele>
        <time>2011-12-18T10:56:58Z</time>
      </trkpt>
      <trkpt lat="47.2562" lon="-1.54025">
        <ele>11</ele>
        <time>2011-12-18T10:57:00Z</time>
      </trkpt>
      <trkpt lat="47.25618" lon="-1.54044">
        <ele>11</ele>
        <time>2011-12-18T10:57:06Z</time>
      </trkpt>
      <trkpt lat="47.25616" lon="-1.54044">
        <ele>11</ele>
        <time>2011-12-18T10:57:08Z</time>
      </trkpt>
      <trkpt lat="47.25615" lon="-1.54042">
        <ele>11</ele>
        <time>2011-12-18T10:57:09Z</time>
      </trkpt>
      <trkpt lat="47.25572" lon="-1.53887">
        <ele>18</ele>
        <time>2011-12-18T10:57:53Z</time>
      </trkpt>
      <trkpt lat="47.25574" lon="-1.53883">
        <ele>18</ele>
        <time>2011-12-18T10:58:01Z</time>
      </trkpt>
      <trkpt lat="47.25575" lon="-1.53882">
        <ele>18</ele>
        <time>2011-12-18T10:58:10Z</time>
      </trkpt>
      <trkpt lat="47.25574" lon="-1.53883">
        <ele>18</ele>
        <time>2011-12-18T10:58:17Z</time>
      </trkpt>
      <trkpt lat="47.2557" lon="-1.53887">
        <ele>18</ele>
        <time>2011-12-18T10:58:25Z</time>
      </trkpt>
      <trkpt lat="47.25569" lon="-1.53888">
        <ele>18</ele>
        <time>2011-12-18T10:58:33Z</time>
      </trkpt>
      <trkpt lat="47.25573" lon="-1.53892">
        <ele>18</ele>
        <time>2011-12-18T10:59:07Z</time>
      </trkpt>
      <trkpt lat="47.25618" lon="-1.54046">
        <ele>16</ele>
        <time>2011-12-18T10:59:52Z</time>
      </trkpt>
      <trkpt lat="47.25619" lon="-1.54048">
        <ele>15</ele>
        <time>2011-12-18T10:59:53Z</time>
      </trkpt>
      <trkpt lat="47.25621" lon="-1.54047">
        <ele>15</ele>
        <time>2011-12-18T10:59:54Z</time>
      </trkpt>
      <trkpt lat="47.25623" lon="-1.54037">
        <ele>14</ele>
        <time>2011-12-18T11:00:01Z</time>
      </trkpt>
      <trkpt lat="47.25615" lon="-1.54007">
        <ele>13</ele>
        <time>2011-12-18T11:00:03Z</time>
      </trkpt>
      <trkpt lat="47.2561" lon="-1.54003">
        <ele>13</ele>
        <time>2011-12-18T11:00:09Z</time>
      </trkpt>
      <trkpt lat="47.25571" lon="-1.54017">
        <ele>13</ele>
        <time>2011-12-18T11:00:17Z</time>
      </trkpt>
      <trkpt lat="47.2557" lon="-1.54016">
        <ele>13</ele>
        <time>2011-12-18T11:00:18Z</time>
      </trkpt>
      <trkpt lat="47.25569" lon="-1.54014">
        <ele>13</ele>
        <time>2011-12-18T11:00:19Z</time>
      </trkpt>
      <trkpt lat="47.25567" lon="-1.54012">
        <ele>13</ele>
        <time>2011-12-18T11:00:25Z</time>
      </trkpt>
      <trkpt lat="47.25576" lon="-1.54004">
        <ele>13</ele>
        <time>2011-12-18T11:00:26Z</time>
      </trkpt>
      <trkpt lat="47.25584" lon="-1.54001">
        <ele>13</ele>
        <time>2011-12-18T11:00:28Z</time>
      </trkpt>
      <trkpt lat="47.25608" lon="-1.53982">
        <ele>13</ele>
        <time>2011-12-18T11:00:35Z</time>
      </trkpt>
      <trkpt lat="47.25611" lon="-1.53977">
        <ele>13</ele>
        <time>2011-12-18T11:00:40Z</time>
      </trkpt>
      <trkpt lat="47.25615" lon="-1.53963">
        <ele>13</ele>
        <time>2011-12-18T11:00:40Z</time>
      </trkpt>
      <trkpt lat="47.25647" lon="-1.53941">
        <ele>13</ele>
        <time>2011-12-18T11:00:46Z</time>
      </trkpt>
      <trkpt lat="47.257" lon="-1.53933">
        <ele>11</ele>
        <time>2011-12-18T11:01:01Z</time>
      </trkpt>
      <trkpt lat="47.25733" lon="-1.53942">
        <ele>8</ele>
        <time>2011-12-18T11:01:08Z</time>
      </trkpt>
      <trkpt lat="47.25762" lon="-1.53962">
        <ele>8</ele>
        <time>2011-12-18T11:01:11Z</time>
      </trkpt>
      <trkpt lat="47.25771" lon="-1.53962">
        <ele>8</ele>
        <time>2011-12-18T11:01:17Z</time>
      </trkpt>
      <trkpt lat="47.25837" lon="-1.53945">
        <ele>7</ele>
        <time>2011-12-18T11:01:30Z</time>
      </trkpt>
      <trkpt lat="47.25922" lon="-1.5389">
        <ele>5</ele>
        <time>2011-12-18T11:01:46Z</time>
      </trkpt>
      <trkpt lat="47.25954" lon="-1.53863">
        <ele>3</ele>
        <time>2011-12-18T11:01:58Z</time>
      </trkpt>
      <trkpt lat="47.26009" lon="-1.53844">
        <ele>3</ele>
        <time>2011-12-18T11:02:05Z</time>
      </trkpt>
      <trkpt lat="47.26083" lon="-1.53843">
        <ele>2</ele>
        <time>2011-12-18T11:02:19Z</time>
      </trkpt>
      <trkpt lat="47.26119" lon="-1.53835">
        <ele>1</ele>
        <time>2011-12-18T11:02:26Z</time>
      </trkpt>
      <trkpt lat="47.26164" lon="-1.53844">
        <ele>1</ele>
        <time>2011-12-18T11:02:40Z</time>
      </trkpt>
      <trkpt lat="47.26181" lon="-1.53854">
        <ele>1</ele>
        <time>2011-12-18T11:02:40Z</time>
      </trkpt>
      <trkpt lat="47.26184" lon="-1.53856">
        <ele>1</ele>
        <time>2011-12-18T11:02:41Z</time>
      </trkpt>
      <trkpt lat="47.26185" lon="-1.53859">
        <ele>1</ele>
        <time>2011-12-18T11:02:47Z</time>
      </trkpt>
      <trkpt lat="47.26193" lon="-1.53858">
        <ele>1</ele>
        <time>2011-12-18T11:02:47Z</time>
      </trkpt>
      <trkpt lat="47.26197" lon="-1.53859">
        <ele>1</ele>
        <time>2011-12-18T11:02:48Z</time>
      </trkpt>
      <trkpt lat="47.26303" lon="-1.53947">
        <ele>7</ele>
        <time>2011-12-18T11:03:14Z</time>
      </trkpt>
      <trkpt lat="47.26306" lon="-1.5395">
        <ele>9</ele>
        <time>2011-12-18T11:03:15Z</time>
      </trkpt>
      <trkpt lat="47.26315" lon="-1.53961">
        <ele>11</ele>
        <time>2011-12-18T11:03:21Z</time>
      </trkpt>
      <trkpt lat="47.26333" lon="-1.53975">
        <ele>12</ele>
        <time>2011-12-18T11:03:21Z</time>
      </trkpt>
      <trkpt lat="47.26407" lon="-1.53996">
        <ele>6</ele>
        <time>2011-12-18T11:03:35Z</time>
      </trkpt>
      <trkpt lat="47.26412" lon="-1.53993">
        <ele>5</ele>
        <time>2011-12-18T11:03:36Z</time>
      </trkpt>
      <trkpt lat="47.26413" lon="-1.53993">
        <ele>3</ele>
        <time>2011-12-18T11:03:38Z</time>
      </trkpt>
      <trkpt lat="47.26436" lon="-1.54004">
        <ele>6.4</ele>
        <time>2011-12-18T11:03:51Z</time>
      </trkpt>
      <trkpt lat="47.26449" lon="-1.54004">
        <ele>6.3</ele>
        <time>2011-12-18T11:03:52Z</time>
      </trkpt>
      <trkpt lat="47.26453" lon="-1.54003">
        <ele>6.4</ele>
        <time>2011-12-18T11:03:54Z</time>
      </trkpt>
      <trkpt lat="47.26482" lon="-1.53986">
        <ele>6</ele>
        <time>2011-12-18T11:04:06Z</time>
      </trkpt>
      <trkpt lat="47.26508" lon="-1.54046">
        <ele>8.9</ele>
        <time>2011-12-18T11:04:22Z</time>
      </trkpt>
      <trkpt lat="47.26509" lon="-1.5405">
        <ele>1</ele>
        <time>2011-12-18T11:04:23Z</time>
      </trkpt>
      <trkpt lat="47.26597" lon="-1.54232">
        <ele>9</ele>
        <time>2011-12-18T11:05:11Z</time>
      </trkpt>
      <trkpt lat="47.26598" lon="-1.54236">
        <ele>10</ele>
        <time>2011-12-18T11:05:12Z</time>
      </trkpt>
      <trkpt lat="47.26621" lon="-1.5429">
        <ele>14</ele>
        <time>2011-12-18T11:05:26Z</time>
      </trkpt>
      <trkpt lat="47.26631" lon="-1.5435">
        <ele>15</ele>
        <time>2011-12-18T11:05:39Z</time>
      </trkpt>
      <trkpt lat="47.26625" lon="-1.54368">
        <ele>18</ele>
        <time>2011-12-18T11:05:47Z</time>
      </trkpt>
      <trkpt lat="47.26616" lon="-1.54376">
        <ele>19</ele>
        <time>2011-12-18T11:05:48Z</time>
      </trkpt>
      <trkpt lat="47.26594" lon="-1.54379">
        <ele>19</ele>
        <time>2011-12-18T11:05:55Z</time>
      </trkpt>
      <trkpt lat="47.26591" lon="-1.5438">
        <ele>19</ele>
        <time>2011-12-18T11:05:56Z</time>
      </trkpt>
      <trkpt lat="47.26585" lon="-1.54385">
        <ele>19</ele>
        <time>2011-12-18T11:05:58Z</time>
      </trkpt>
      <trkpt lat="47.2658" lon="-1.54393">
        <ele>19</ele>
        <time>2011-12-18T11:06:04Z</time>
      </trkpt>
      <trkpt lat="47.26581" lon="-1.54416">
        <ele>19</ele>
        <time>2011-12-18T11:06:05Z</time>
      </trkpt>
      <trkpt lat="47.26591" lon="-1.54455">
        <ele>19</ele>
        <time>2011-12-18T11:06:13Z</time>
      </trkpt>
      <trkpt lat="47.26599" lon="-1.54462">
        <ele>19</ele>
        <time>2011-12-18T11:06:15Z</time>
      </trkpt>
      <trkpt lat="47.26604" lon="-1.54463">
        <ele>19</ele>
        <time>2011-12-18T11:06:16Z</time>
      </trkpt>
      <trkpt lat="47.2666" lon="-1.54455">
        <ele>19</ele>
        <time>2011-12-18T11:06:29Z</time>
      </trkpt>
      <trkpt lat="47.26725" lon="-1.54468">
        <ele>19</ele>
        <time>2011-12-18T11:06:44Z</time>
      </trkpt>
      <trkpt lat="47.26747" lon="-1.54488">
        <ele>19</ele>
        <time>2011-12-18T11:06:50Z</time>
      </trkpt>
      <trkpt lat="47.26768" lon="-1.54531">
        <ele>19</ele>
        <time>2011-12-18T11:06:59Z</time>
      </trkpt>
      <trkpt lat="47.26775" lon="-1.5456">
        <ele>20</ele>
        <time>2011-12-18T11:07:06Z</time>
      </trkpt>
      <trkpt lat="47.26779" lon="-1.54567">
        <ele>21</ele>
        <time>2011-12-18T11:07:07Z</time>
      </trkpt>
      <trkpt lat="47.26782" lon="-1.5457">
        <ele>21</ele>
        <time>2011-12-18T11:07:08Z</time>
      </trkpt>
      <trkpt lat="47.26789" lon="-1.54573">
        <ele>21</ele>
        <time>2011-12-18T11:07:14Z</time>
      </trkpt>
      <trkpt lat="47.26862" lon="-1.54583">
        <ele>21</ele>
        <time>2011-12-18T11:07:36Z</time>
      </trkpt>
      <trkpt lat="47.26873" lon="-1.54589">
        <ele>21</ele>
        <time>2011-12-18T11:07:36Z</time>
      </trkpt>
      <trkpt lat="47.26874" lon="-1.54612">
        <ele>21</ele>
        <time>2011-12-18T11:07:44Z</time>
      </trkpt>
      <trkpt lat="47.26869" lon="-1.54618">
        <ele>21</ele>
        <time>2011-12-18T11:07:45Z</time>
      </trkpt>
      <trkpt lat="47.26866" lon="-1.54619">
        <ele>21</ele>
        <time>2011-12-18T11:07:46Z</time>
      </trkpt>
      <trkpt lat="47.26862" lon="-1.54627">
        <ele>22</ele>
        <time>2011-12-18T11:07:48Z</time>
      </trkpt>
      <trkpt lat="47.26861" lon="-1.54637">
        <ele>22</ele>
        <time>2011-12-18T11:07:55Z</time>
      </trkpt>
      <trkpt lat="47.26867" lon="-1.54662">
        <ele>23</ele>
        <time>2011-12-18T11:07:56Z</time>
      </trkpt>
      <trkpt lat="47.26869" lon="-1.54667">
        <ele>23</ele>
        <time>2011-12-18T11:07:56Z</time>
      </trkpt>
      <trkpt lat="47.26925" lon="-1.54915">
        <ele>27</ele>
        <time>2011-12-18T11:08:33Z</time>
      </trkpt>
      <trkpt lat="47.26916" lon="-1.54981">
        <ele>27</ele>
        <time>2011-12-18T11:08:41Z</time>
      </trkpt>
      <trkpt lat="47.26958" lon="-1.55199">
        <ele>27</ele>
        <time>2011-12-18T11:09:17Z</time>
      </trkpt>
      <trkpt lat="47.26978" lon="-1.55227">
        <ele>27</ele>
        <time>2011-12-18T11:09:25Z</time>
      </trkpt>
      <trkpt lat="47.26979" lon="-1.55242">
        <ele>27</ele>
        <time>2011-12-18T11:09:27Z</time>
      </trkpt>
      <trkpt lat="47.26987" lon="-1.55266">
        <ele>27</ele>
        <time>2011-12-18T11:09:35Z</time>
      </trkpt>
      <trkpt lat="47.26987" lon="-1.55269">
        <ele>27</ele>
        <time>2011-12-18T11:09:37Z</time>
      </trkpt>
      <trkpt lat="47.26986" lon="-1.55272">
        <ele>27</ele>
        <time>2011-12-18T11:09:38Z</time>
      </trkpt>
      <trkpt lat="47.26983" lon="-1.55274">
        <ele>26</ele>
        <time>2011-12-18T11:09:56Z</time>
      </trkpt>
      <trkpt lat="47.26987" lon="-1.55272">
        <ele>15</ele>
        <time>2011-12-18T11:10:49Z</time>
      </trkpt>
      <trkpt lat="47.26986" lon="-1.55271">
        <ele>15</ele>
        <time>2011-12-18T11:11:52Z</time>
      </trkpt>
      <trkpt lat="47.26986" lon="-1.55269">
        <ele>15</ele>
        <time>2011-12-18T11:12:49Z</time>
      </trkpt>
      <trkpt lat="47.26987" lon="-1.55274">
        <ele>15</ele>
        <time>2011-12-18T11:13:06Z</time>
      </trkpt>
      <trkpt lat="47.26989" lon="-1.55274">
        <ele>15</ele>
        <time>2011-12-18T11:13:09Z</time>
      </trkpt>
      <trkpt lat="47.26992" lon="-1.55272">
        <ele>15</ele>
        <time>2011-12-18T11:13:16Z</time>
      </trkpt>
      <trkpt lat="47.26998" lon="-1.55276">
        <ele>15</ele>
        <time>2011-12-18T11:13:17Z</time>
      </trkpt>
      <trkpt lat="47.27003" lon="-1.55284">
        <ele>15</ele>
        <time>2011-12-18T11:13:24Z</time>
      </trkpt>
      <trkpt lat="47.27007" lon="-1.55296">
        <ele>15</ele>
        <time>2011-12-18T11:13:24Z</time>
      </trkpt>
      <trkpt lat="47.27005" lon="-1.55305">
        <ele>15</ele>
        <time>2011-12-18T11:13:27Z</time>
      </trkpt>
      <trkpt lat="47.27005" lon="-1.55308">
        <ele>16</ele>
        <time>2011-12-18T11:13:28Z</time>
      </trkpt>
      <trkpt lat="47.27045" lon="-1.5551">
        <ele>20</ele>
        <time>2011-12-18T11:14:07Z</time>
      </trkpt>
      <trkpt lat="47.27086" lon="-1.55554">
        <ele>19</ele>
        <time>2011-12-18T11:14:18Z</time>
      </trkpt>
      <trkpt lat="47.27096" lon="-1.55557">
        <ele>19</ele>
        <time>2011-12-18T11:14:18Z</time>
      </trkpt>
      <trkpt lat="47.27096" lon="-1.55558">
        <ele>19</ele>
        <time>2011-12-18T11:14:19Z</time>
      </trkpt>
      <trkpt lat="47.27096" lon="-1.5556">
        <ele>19</ele>
        <time>2011-12-18T11:14:20Z</time>
      </trkpt>
      <trkpt lat="47.27092" lon="-1.55566">
        <ele>19</ele>
        <time>2011-12-18T11:14:27Z</time>
      </trkpt>
      <trkpt lat="47.27074" lon="-1.55583">
        <ele>18</ele>
        <time>2011-12-18T11:14:28Z</time>
      </trkpt>
      <trkpt lat="47.27062" lon="-1.55605">
        <ele>16</ele>
        <time>2011-12-18T11:14:34Z</time>
      </trkpt>
      <trkpt lat="47.27062" lon="-1.55609">
        <ele>15</ele>
        <time>2011-12-18T11:14:34Z</time>
      </trkpt>
      <trkpt lat="47.27062" lon="-1.55613">
        <ele>14</ele>
        <time>2011-12-18T11:14:35Z</time>
      </trkpt>
      <trkpt lat="47.27063" lon="-1.55617">
        <ele>13</ele>
        <time>2011-12-18T11:14:36Z</time>
      </trkpt>
      <trkpt lat="47.27074" lon="-1.55659">
        <ele>12</ele>
        <time>2011-12-18T11:14:47Z</time>
      </trkpt>
      <trkpt lat="47.27057" lon="-1.55734">
        <ele>11</ele>
        <time>2011-12-18T11:14:57Z</time>
      </trkpt>
      <trkpt lat="47.27058" lon="-1.55736">
        <ele>11</ele>
        <time>2011-12-18T11:14:58Z</time>
      </trkpt>
      <trkpt lat="47.27064" lon="-1.5574">
        <ele>11</ele>
        <time>2011-12-18T11:15:04Z</time>
      </trkpt>
      <trkpt lat="47.27069" lon="-1.55751">
        <ele>11</ele>
        <time>2011-12-18T11:15:05Z</time>
      </trkpt>
      <trkpt lat="47.27069" lon="-1.55754">
        <ele>11</ele>
        <time>2011-12-18T11:15:12Z</time>
      </trkpt>
      <trkpt lat="47.27074" lon="-1.55777">
        <ele>11</ele>
        <time>2011-12-18T11:15:21Z</time>
      </trkpt>
      <trkpt lat="47.27084" lon="-1.55792">
        <ele>8</ele>
        <time>2011-12-18T11:15:29Z</time>
      </trkpt>
      <trkpt lat="47.27092" lon="-1.55796">
        <ele>7</ele>
        <time>2011-12-18T11:15:29Z</time>
      </trkpt>
      <trkpt lat="47.27097" lon="-1.55796">
        <ele>5</ele>
        <time>2011-12-18T11:15:31Z</time>
      </trkpt>
      <trkpt lat="47.27101" lon="-1.558">
        <ele>5</ele>
        <time>2011-12-18T11:15:37Z</time>
      </trkpt>
      <trkpt lat="47.27103" lon="-1.55827">
        <ele>5</ele>
        <time>2011-12-18T11:15:44Z</time>
      </trkpt>
      <trkpt lat="47.27118" lon="-1.5587">
        <ele>5</ele>
        <time>2011-12-18T11:15:51Z</time>
      </trkpt>
      <trkpt lat="47.27123" lon="-1.55876">
        <ele>5</ele>
        <time>2011-12-18T11:15:53Z</time>
      </trkpt>
      <trkpt lat="47.27139" lon="-1.55882">
        <ele>6</ele>
        <time>2011-12-18T11:15:58Z</time>
      </trkpt>
      <trkpt lat="47.27193" lon="-1.5599">
        <ele>20</ele>
        <time>2011-12-18T11:16:24Z</time>
      </trkpt>
      <trkpt lat="47.27208" lon="-1.56006">
        <ele>22</ele>
        <time>2011-12-18T11:16:26Z</time>
      </trkpt>
      <trkpt lat="47.2727" lon="-1.56037">
        <ele>20</ele>
        <time>2011-12-18T11:16:39Z</time>
      </trkpt>
      <trkpt lat="47.27281" lon="-1.56054">
        <ele>14</ele>
        <time>2011-12-18T11:16:46Z</time>
      </trkpt>
      <trkpt lat="47.27287" lon="-1.56071">
        <ele>13</ele>
        <time>2011-12-18T11:16:46Z</time>
      </trkpt>
      <trkpt lat="47.27296" lon="-1.56086">
        <ele>11</ele>
        <time>2011-12-18T11:16:52Z</time>
      </trkpt>
      <trkpt lat="47.2733" lon="-1.56108">
        <ele>10</ele>
        <time>2011-12-18T11:16:58Z</time>
      </trkpt>
      <trkpt lat="47.27339" lon="-1.56109">
        <ele>10</ele>
        <time>2011-12-18T11:17:00Z</time>
      </trkpt>
      <trkpt lat="47.27347" lon="-1.56112">
        <ele>11</ele>
        <time>2011-12-18T11:17:05Z</time>
      </trkpt>
      <trkpt lat="47.27363" lon="-1.56127">
        <ele>12</ele>
        <time>2011-12-18T11:17:07Z</time>
      </trkpt>
      <trkpt lat="47.2738" lon="-1.56129">
        <ele>12</ele>
        <time>2011-12-18T11:17:11Z</time>
      </trkpt>
      <trkpt lat="47.27389" lon="-1.56134">
        <ele>12</ele>
        <time>2011-12-18T11:17:14Z</time>
      </trkpt>
      <trkpt lat="47.27407" lon="-1.56136">
        <ele>10</ele>
        <time>2011-12-18T11:17:20Z</time>
      </trkpt>
      <trkpt lat="47.27418" lon="-1.56133">
        <ele>7</ele>
        <time>2011-12-18T11:17:26Z</time>
      </trkpt>
      <trkpt lat="47.27419" lon="-1.56134">
        <ele>6</ele>
        <time>2011-12-18T11:17:28Z</time>
      </trkpt>
      <trkpt lat="47.2742" lon="-1.56134">
        <ele>6</ele>
        <time>2011-12-18T11:17:28Z</time>
      </trkpt>
      <trkpt lat="47.27424" lon="-1.56135">
        <ele>6</ele>
        <time>2011-12-18T11:17:33Z</time>
      </trkpt>
      <trkpt lat="47.2743" lon="-1.56133">
        <ele>6</ele>
        <time>2011-12-18T11:17:34Z</time>
      </trkpt>
      <trkpt lat="47.27433" lon="-1.5613">
        <ele>6</ele>
        <time>2011-12-18T11:17:36Z</time>
      </trkpt>
      <trkpt lat="47.27436" lon="-1.56128">
        <ele>6</ele>
        <time>2011-12-18T11:17:42Z</time>
      </trkpt>
      <trkpt lat="47.27443" lon="-1.56121">
        <ele>6</ele>
        <time>2011-12-18T11:17:48Z</time>
      </trkpt>
      <trkpt lat="47.27444" lon="-1.56113">
        <ele>7</ele>
        <time>2011-12-18T11:17:57Z</time>
      </trkpt>
      <trkpt lat="47.27445" lon="-1.56113">
        <ele>9</ele>
        <time>2011-12-18T11:18:03Z</time>
      </trkpt>
      <trkpt lat="47.2746" lon="-1.56109">
        <ele>9</ele>
        <time>2011-12-18T11:18:11Z</time>
      </trkpt>
      <trkpt lat="47.27494" lon="-1.56084">
        <ele>9</ele>
        <time>2011-12-18T11:18:29Z</time>
      </trkpt>
      <trkpt lat="47.27506" lon="-1.56071">
        <ele>10</ele>
        <time>2011-12-18T11:18:36Z</time>
      </trkpt>
      <trkpt lat="47.27508" lon="-1.56066">
        <ele>11</ele>
        <time>2011-12-18T11:18:38Z</time>
      </trkpt>
      <trkpt lat="47.27508" lon="-1.56063">
        <ele>12</ele>
        <time>2011-12-18T11:18:39Z</time>
      </trkpt>
      <trkpt lat="47.27508" lon="-1.5606">
        <ele>13</ele>
        <time>2011-12-18T11:18:40Z</time>
      </trkpt>
      <trkpt lat="47.27513" lon="-1.56049">
        <ele>14</ele>
        <time>2011-12-18T11:18:47Z</time>
      </trkpt>
      <trkpt lat="47.27515" lon="-1.5604">
        <ele>18</ele>
        <time>2011-12-18T11:18:54Z</time>
      </trkpt>
      <trkpt lat="47.27516" lon="-1.56038">
        <ele>19</ele>
        <time>2011-12-18T11:18:59Z</time>
      </trkpt>
      <trkpt lat="47.27518" lon="-1.56039">
        <ele>19</ele>
        <time>2011-12-18T11:19:00Z</time>
      </trkpt>
      <trkpt lat="47.2752" lon="-1.56034">
        <ele>19</ele>
        <time>2011-12-18T11:19:08Z</time>
      </trkpt>
      <trkpt lat="47.27522" lon="-1.56033">
        <ele>19</ele>
        <time>2011-12-18T11:19:15Z</time>
      </trkpt>
      <trkpt lat="47.27526" lon="-1.56025">
        <ele>19</ele>
        <time>2011-12-18T11:19:16Z</time>
      </trkpt>
      <trkpt lat="47.27527" lon="-1.56023">
        <ele>20</ele>
        <time>2011-12-18T11:19:17Z</time>
      </trkpt>
      <trkpt lat="47.27528" lon="-1.56021">
        <ele>20</ele>
        <time>2011-12-18T11:19:18Z</time>
      </trkpt>
      <trkpt lat="47.27544" lon="-1.56008">
        <ele>20</ele>
        <time>2011-12-18T11:19:25Z</time>
      </trkpt>
      <trkpt lat="47.27548" lon="-1.56006">
        <ele>20</ele>
        <time>2011-12-18T11:19:30Z</time>
      </trkpt>
      <trkpt lat="47.27557" lon="-1.56007">
        <ele>20</ele>
        <time>2011-12-18T11:19:31Z</time>
      </trkpt>
      <trkpt lat="47.27564" lon="-1.56002">
        <ele>20</ele>
        <time>2011-12-18T11:19:36Z</time>
      </trkpt>
      <trkpt lat="47.27568" lon="-1.55993">
        <ele>20</ele>
        <time>2011-12-18T11:19:37Z</time>
      </trkpt>
      <trkpt lat="47.27568" lon="-1.55991">
        <ele>21</ele>
        <time>2011-12-18T11:19:39Z</time>
      </trkpt>
      <trkpt lat="47.2757" lon="-1.55985">
        <ele>21</ele>
        <time>2011-12-18T11:19:45Z</time>
      </trkpt>
      <trkpt lat="47.27573" lon="-1.55982">
        <ele>21</ele>
        <time>2011-12-18T11:19:46Z</time>
      </trkpt>
      <trkpt lat="47.27575" lon="-1.55982">
        <ele>21</ele>
        <time>2011-12-18T11:19:48Z</time>
      </trkpt>
      <trkpt lat="47.27599" lon="-1.56005">
        <ele>21</ele>
        <time>2011-12-18T11:20:01Z</time>
      </trkpt>
      <trkpt lat="47.276" lon="-1.56007">
        <ele>21</ele>
        <time>2011-12-18T11:20:02Z</time>
      </trkpt>
      <trkpt lat="47.27602" lon="-1.56009">
        <ele>21</ele>
        <time>2011-12-18T11:20:03Z</time>
      </trkpt>
      <trkpt lat="47.27622" lon="-1.56062">
        <ele>21</ele>
        <time>2011-12-18T11:20:17Z</time>
      </trkpt>
      <trkpt lat="47.27657" lon="-1.56108">
        <ele>21</ele>
        <time>2011-12-18T11:20:34Z</time>
      </trkpt>
      <trkpt lat="47.27735" lon="-1.56142">
        <ele>28</ele>
        <time>2011-12-18T11:20:53Z</time>
      </trkpt>
      <trkpt lat="47.27739" lon="-1.56145">
        <ele>29</ele>
        <time>2011-12-18T11:20:54Z</time>
      </trkpt>
      <trkpt lat="47.27807" lon="-1.56295">
        <ele>30</ele>
        <time>2011-12-18T11:21:32Z</time>
      </trkpt>
      <trkpt lat="47.27854" lon="-1.56364">
        <ele>27</ele>
        <time>2011-12-18T11:21:39Z</time>
      </trkpt>
      <trkpt lat="47.27856" lon="-1.56492">
        <ele>22</ele>
        <time>2011-12-18T11:21:51Z</time>
      </trkpt>
      <trkpt lat="47.27859" lon="-1.5651">
        <ele>20</ele>
        <time>2011-12-18T11:21:53Z</time>
      </trkpt>
      <trkpt lat="47.27909" lon="-1.56581">
        <ele>13</ele>
        <time>2011-12-18T11:22:11Z</time>
      </trkpt>
      <trkpt lat="47.27918" lon="-1.56586">
        <ele>7</ele>
        <time>2011-12-18T11:22:21Z</time>
      </trkpt>
      <trkpt lat="47.27917" lon="-1.56588">
        <ele>5</ele>
        <time>2011-12-18T11:22:28Z</time>
      </trkpt>
      <trkpt lat="47.27914" lon="-1.56588">
        <ele>5</ele>
        <time>2011-12-18T11:22:29Z</time>
      </trkpt>
      <trkpt lat="47.27915" lon="-1.56586">
        <ele>5</ele>
        <time>2011-12-18T11:22:38Z</time>
      </trkpt>
      <trkpt lat="47.27918" lon="-1.56585">
        <ele>5</ele>
        <time>2011-12-18T11:22:45Z</time>
      </trkpt>
      <trkpt lat="47.27921" lon="-1.56583">
        <ele>5</ele>
        <time>2011-12-18T11:22:46Z</time>
      </trkpt>
      <trkpt lat="47.27928" lon="-1.56583">
        <ele>5</ele>
        <time>2011-12-18T11:22:54Z</time>
      </trkpt>
      <trkpt lat="47.27932" lon="-1.56581">
        <ele>5</ele>
        <time>2011-12-18T11:23:01Z</time>
      </trkpt>
      <trkpt lat="47.27942" lon="-1.56591">
        <ele>6</ele>
        <time>2011-12-18T11:23:08Z</time>
      </trkpt>
      <trkpt lat="47.27992" lon="-1.56602">
        <ele>6</ele>
        <time>2011-12-18T11:23:17Z</time>
      </trkpt>
      <trkpt lat="47.27998" lon="-1.56606">
        <ele>6</ele>
        <time>2011-12-18T11:23:19Z</time>
      </trkpt>
      <trkpt lat="47.28015" lon="-1.56611">
        <ele>6</ele>
        <time>2011-12-18T11:23:24Z</time>
      </trkpt>
      <trkpt lat="47.28072" lon="-1.56611">
        <ele>6</ele>
        <time>2011-12-18T11:23:44Z</time>
      </trkpt>
      <trkpt lat="47.281" lon="-1.56601">
        <ele>6</ele>
        <time>2011-12-18T11:23:50Z</time>
      </trkpt>
      <trkpt lat="47.28111" lon="-1.566">
        <ele>6</ele>
        <time>2011-12-18T11:23:56Z</time>
      </trkpt>
      <trkpt lat="47.28163" lon="-1.56574">
        <ele>7</ele>
        <time>2011-12-18T11:24:10Z</time>
      </trkpt>
      <trkpt lat="47.28176" lon="-1.56564">
        <ele>7</ele>
        <time>2011-12-18T11:24:16Z</time>
      </trkpt>
      <trkpt lat="47.28179" lon="-1.56564">
        <ele>7</ele>
        <time>2011-12-18T11:24:17Z</time>
      </trkpt>
      <trkpt lat="47.28181" lon="-1.56562">
        <ele>7</ele>
        <time>2011-12-18T11:24:22Z</time>
      </trkpt>
      <trkpt lat="47.28184" lon="-1.56557">
        <ele>7</ele>
        <time>2011-12-18T11:24:22Z</time>
      </trkpt>
      <trkpt lat="47.28184" lon="-1.56552">
        <ele>7</ele>
        <time>2011-12-18T11:24:25Z</time>
      </trkpt>
      <trkpt lat="47.28188" lon="-1.56546">
        <ele>8</ele>
        <time>2011-12-18T11:24:33Z</time>
      </trkpt>
      <trkpt lat="47.28192" lon="-1.56541">
        <ele>8</ele>
        <time>2011-12-18T11:24:40Z</time>
      </trkpt>
      <trkpt lat="47.28194" lon="-1.5654">
        <ele>8</ele>
        <time>2011-12-18T11:24:47Z</time>
      </trkpt>
      <trkpt lat="47.28196" lon="-1.56536">
        <ele>9</ele>
        <time>2011-12-18T11:24:47Z</time>
      </trkpt>
      <trkpt lat="47.28215" lon="-1.56506">
        <ele>10</ele>
        <time>2011-12-18T11:25:02Z</time>
      </trkpt>
      <trkpt lat="47.28231" lon="-1.56491">
        <ele>10</ele>
        <time>2011-12-18T11:25:09Z</time>
      </trkpt>
      <trkpt lat="47.28232" lon="-1.56491">
        <ele>10</ele>
        <time>2011-12-18T11:25:10Z</time>
      </trkpt>
      <trkpt lat="47.28233" lon="-1.5649">
        <ele>10</ele>
        <time>2011-12-18T11:25:11Z</time>
      </trkpt>
      <trkpt lat="47.28236" lon="-1.56491">
        <ele>10</ele>
        <time>2011-12-18T11:25:18Z</time>
      </trkpt>
      <trkpt lat="47.28233" lon="-1.56491">
        <ele>9</ele>
        <time>2011-12-18T11:25:33Z</time>
      </trkpt>
      <trkpt lat="47.28233" lon="-1.56489">
        <ele>6</ele>
        <time>2011-12-18T11:25:34Z</time>
      </trkpt>
      <trkpt lat="47.28235" lon="-1.56483">
        <ele>5</ele>
        <time>2011-12-18T11:25:40Z</time>
      </trkpt>
      <trkpt lat="47.28237" lon="-1.56482">
        <ele>1</ele>
        <time>2011-12-18T11:25:48Z</time>
      </trkpt>
      <trkpt lat="47.28244" lon="-1.56482">
        <ele>10.7</ele>
        <time>2011-12-18T11:25:49Z</time>
      </trkpt>
      <trkpt lat="47.28246" lon="-1.56482">
        <ele>10.4</ele>
        <time>2011-12-18T11:25:50Z</time>
      </trkpt>
      <trkpt lat="47.28257" lon="-1.56479">
        <ele>9.9</ele>
        <time>2011-12-18T11:25:56Z</time>
      </trkpt>
      <trkpt lat="47.2826" lon="-1.56479">
        <ele>9.8</ele>
        <time>2011-12-18T11:25:59Z</time>
      </trkpt>
      <trkpt lat="47.28263" lon="-1.56477">
        <ele>10</ele>
        <time>2011-12-18T11:26:04Z</time>
      </trkpt>
      <trkpt lat="47.28269" lon="-1.5648">
        <ele>9.4</ele>
        <time>2011-12-18T11:26:05Z</time>
      </trkpt>
      <trkpt lat="47.28278" lon="-1.5648">
        <ele>9.1</ele>
        <time>2011-12-18T11:26:14Z</time>
      </trkpt>
      <trkpt lat="47.2828" lon="-1.56481">
        <ele>9</ele>
        <time>2011-12-18T11:26:15Z</time>
      </trkpt>
      <trkpt lat="47.28288" lon="-1.56478">
        <ele>9.1</ele>
        <time>2011-12-18T11:26:20Z</time>
      </trkpt>
      <trkpt lat="47.2829" lon="-1.56478">
        <ele>9</ele>
        <time>2011-12-18T11:26:21Z</time>
      </trkpt>
      <trkpt lat="47.28291" lon="-1.56477">
        <ele>9.1</ele>
        <time>2011-12-18T11:26:22Z</time>
      </trkpt>
      <trkpt lat="47.28298" lon="-1.56478">
        <ele>8.8</ele>
        <time>2011-12-18T11:26:28Z</time>
      </trkpt>
      <trkpt lat="47.28342" lon="-1.5647">
        <ele>9.4</ele>
        <time>2011-12-18T11:26:37Z</time>
      </trkpt>
      <trkpt lat="47.28346" lon="-1.56471">
        <ele>9.6</ele>
        <time>2011-12-18T11:26:40Z</time>
      </trkpt>
      <trkpt lat="47.28347" lon="-1.56471">
        <ele>2</ele>
        <time>2011-12-18T11:26:46Z</time>
      </trkpt>
      <trkpt lat="47.28349" lon="-1.5647">
        <ele>2</ele>
        <time>2011-12-18T11:26:47Z</time>
      </trkpt>
      <trkpt lat="47.28351" lon="-1.5647">
        <ele>2</ele>
        <time>2011-12-18T11:26:54Z</time>
      </trkpt>
      <trkpt lat="47.28355" lon="-1.56467">
        <ele>2</ele>
        <time>2011-12-18T11:26:55Z</time>
      </trkpt>
      <trkpt lat="47.28357" lon="-1.56467">
        <ele>2</ele>
        <time>2011-12-18T11:26:56Z</time>
      </trkpt>
      <trkpt lat="47.28362" lon="-1.56473">
        <ele>2</ele>
        <time>2011-12-18T11:27:03Z</time>
      </trkpt>
      <trkpt lat="47.28373" lon="-1.56479">
        <ele>2</ele>
        <time>2011-12-18T11:27:04Z</time>
      </trkpt>
      <trkpt lat="47.28377" lon="-1.56479">
        <ele>2</ele>
        <time>2011-12-18T11:27:04Z</time>
      </trkpt>
      <trkpt lat="47.28393" lon="-1.56471">
        <ele>3</ele>
        <time>2011-12-18T11:27:13Z</time>
      </trkpt>
      <trkpt lat="47.28406" lon="-1.56483">
        <ele>4</ele>
        <time>2011-12-18T11:27:19Z</time>
      </trkpt>
      <trkpt lat="47.28412" lon="-1.56485">
        <ele>4</ele>
        <time>2011-12-18T11:27:26Z</time>
      </trkpt>
      <trkpt lat="47.28414" lon="-1.56487">
        <ele>4</ele>
        <time>2011-12-18T11:27:26Z</time>
      </trkpt>
      <trkpt lat="47.28415" lon="-1.56486">
        <ele>6</ele>
        <time>2011-12-18T11:27:27Z</time>
      </trkpt>
      <trkpt lat="47.28416" lon="-1.56486">
        <ele>7</ele>
        <time>2011-12-18T11:27:30Z</time>
      </trkpt>
      <trkpt lat="47.28438" lon="-1.5649">
        <ele>8</ele>
        <time>2011-12-18T11:27:59Z</time>
      </trkpt>
      <trkpt lat="47.28437" lon="-1.56492">
        <ele>8</ele>
        <time>2011-12-18T11:28:00Z</time>
      </trkpt>
      <trkpt lat="47.28442" lon="-1.56491">
        <ele>8</ele>
        <time>2011-12-18T11:28:08Z</time>
      </trkpt>
      <trkpt lat="47.28443" lon="-1.56489">
        <ele>8</ele>
        <time>2011-12-18T11:28:10Z</time>
      </trkpt>
      <trkpt lat="47.28452" lon="-1.56487">
        <ele>8</ele>
        <time>2011-12-18T11:28:15Z</time>
      </trkpt>
      <trkpt lat="47.28455" lon="-1.56488">
        <ele>9</ele>
        <time>2011-12-18T11:28:18Z</time>
      </trkpt>
      <trkpt lat="47.28458" lon="-1.56487">
        <ele>10</ele>
        <time>2011-12-18T11:28:23Z</time>
      </trkpt>
      <trkpt lat="47.28465" lon="-1.56489">
        <ele>12</ele>
        <time>2011-12-18T11:28:25Z</time>
      </trkpt>
      <trkpt lat="47.28468" lon="-1.56488">
        <ele>13</ele>
        <time>2011-12-18T11:28:29Z</time>
      </trkpt>
      <trkpt lat="47.28471" lon="-1.56484">
        <ele>14</ele>
        <time>2011-12-18T11:28:30Z</time>
      </trkpt>
      <trkpt lat="47.28471" lon="-1.56482">
        <ele>16</ele>
        <time>2011-12-18T11:28:33Z</time>
      </trkpt>
      <trkpt lat="47.28472" lon="-1.56481">
        <ele>18</ele>
        <time>2011-12-18T11:28:39Z</time>
      </trkpt>
      <trkpt lat="47.28474" lon="-1.56479">
        <ele>19</ele>
        <time>2011-12-18T11:28:41Z</time>
      </trkpt>
      <trkpt lat="47.28476" lon="-1.56479">
        <ele>19</ele>
        <time>2011-12-18T11:28:47Z</time>
      </trkpt>
      <trkpt lat="47.28482" lon="-1.56473">
        <ele>19</ele>
        <time>2011-12-18T11:28:49Z</time>
      </trkpt>
      <trkpt lat="47.28483" lon="-1.56471">
        <ele>19</ele>
        <time>2011-12-18T11:28:56Z</time>
      </trkpt>
      <trkpt lat="47.28483" lon="-1.56472">
        <ele>18</ele>
        <time>2011-12-18T11:29:03Z</time>
      </trkpt>
      <trkpt lat="47.28485" lon="-1.56468">
        <ele>18</ele>
        <time>2011-12-18T11:29:14Z</time>
      </trkpt>
      <trkpt lat="47.28488" lon="-1.56466">
        <ele>18</ele>
        <time>2011-12-18T11:29:20Z</time>
      </trkpt>
      <trkpt lat="47.28502" lon="-1.56467">
        <ele>18</ele>
        <time>2011-12-18T11:29:22Z</time>
      </trkpt>
      <trkpt lat="47.28509" lon="-1.5647">
        <ele>18</ele>
        <time>2011-12-18T11:29:28Z</time>
      </trkpt>
      <trkpt lat="47.28518" lon="-1.56469">
        <ele>18</ele>
        <time>2011-12-18T11:29:29Z</time>
      </trkpt>
      <trkpt lat="47.2852" lon="-1.56471">
        <ele>18</ele>
        <time>2011-12-18T11:29:31Z</time>
      </trkpt>
      <trkpt lat="47.28531" lon="-1.56476">
        <ele>18</ele>
        <time>2011-12-18T11:29:36Z</time>
      </trkpt>
      <trkpt lat="47.28547" lon="-1.56489">
        <ele>18</ele>
        <time>2011-12-18T11:29:37Z</time>
      </trkpt>
      <trkpt lat="47.28558" lon="-1.56513">
        <ele>18</ele>
        <time>2011-12-18T11:29:42Z</time>
      </trkpt>
      <trkpt lat="47.28556" lon="-1.56524">
        <ele>18</ele>
        <time>2011-12-18T11:29:44Z</time>
      </trkpt>
      <trkpt lat="47.28556" lon="-1.56532">
        <ele>18</ele>
        <time>2011-12-18T11:29:49Z</time>
      </trkpt>
      <trkpt lat="47.28564" lon="-1.56545">
        <ele>17</ele>
        <time>2011-12-18T11:29:51Z</time>
      </trkpt>
      <trkpt lat="47.28558" lon="-1.566">
        <ele>12</ele>
        <time>2011-12-18T11:30:04Z</time>
      </trkpt>
      <trkpt lat="47.28565" lon="-1.56617">
        <ele>11</ele>
        <time>2011-12-18T11:30:05Z</time>
      </trkpt>
      <trkpt lat="47.28568" lon="-1.56618">
        <ele>10</ele>
        <time>2011-12-18T11:30:06Z</time>
      </trkpt>
      <trkpt lat="47.28582" lon="-1.56643">
        <ele>6</ele>
        <time>2011-12-18T11:30:20Z</time>
      </trkpt>
      <trkpt lat="47.28584" lon="-1.56649">
        <ele>6</ele>
        <time>2011-12-18T11:30:20Z</time>
      </trkpt>
      <trkpt lat="47.28586" lon="-1.56651">
        <ele>5</ele>
        <time>2011-12-18T11:30:22Z</time>
      </trkpt>
      <trkpt lat="47.28614" lon="-1.56661">
        <ele>4</ele>
        <time>2011-12-18T11:30:36Z</time>
      </trkpt>
      <trkpt lat="47.2863" lon="-1.56672">
        <ele>4</ele>
        <time>2011-12-18T11:30:42Z</time>
      </trkpt>
      <trkpt lat="47.28641" lon="-1.56676">
        <ele>2</ele>
        <time>2011-12-18T11:30:48Z</time>
      </trkpt>
      <trkpt lat="47.28658" lon="-1.56675">
        <ele>1</ele>
        <time>2011-12-18T11:30:49Z</time>
      </trkpt>
      <trkpt lat="47.28674" lon="-1.56667">
        <ele>9.7</ele>
        <time>2011-12-18T11:30:56Z</time>
      </trkpt>
      <trkpt lat="47.28686" lon="-1.56675">
        <ele>9</ele>
        <time>2011-12-18T11:30:56Z</time>
      </trkpt>
      <trkpt lat="47.28729" lon="-1.5672">
        <ele>9.1</ele>
        <time>2011-12-18T11:31:11Z</time>
      </trkpt>
      <trkpt lat="47.28782" lon="-1.56751">
        <ele>9.1</ele>
        <time>2011-12-18T11:31:24Z</time>
      </trkpt>
      <trkpt lat="47.28824" lon="-1.5676">
        <ele>9</ele>
        <time>2011-12-18T11:31:37Z</time>
      </trkpt>
      <trkpt lat="47.28834" lon="-1.56756">
        <ele>9.3</ele>
        <time>2011-12-18T11:31:37Z</time>
      </trkpt>
      <trkpt lat="47.28836" lon="-1.56753">
        <ele>9.4</ele>
        <time>2011-12-18T11:31:40Z</time>
      </trkpt>
      <trkpt lat="47.28837" lon="-1.56751">
        <ele>9.5</ele>
        <time>2011-12-18T11:31:44Z</time>
      </trkpt>
      <trkpt lat="47.28837" lon="-1.56749">
        <ele>9.7</ele>
        <time>2011-12-18T11:31:48Z</time>
      </trkpt>
      <trkpt lat="47.28836" lon="-1.56744">
        <ele>10.3</ele>
        <time>2011-12-18T11:31:54Z</time>
      </trkpt>
      <trkpt lat="47.28837" lon="-1.56743">
        <ele>10.3</ele>
        <time>2011-12-18T11:31:55Z</time>
      </trkpt>
      <trkpt lat="47.28839" lon="-1.56741">
        <ele>10.3</ele>
        <time>2011-12-18T11:31:57Z</time>
      </trkpt>
      <trkpt lat="47.28839" lon="-1.56739">
        <ele>10.4</ele>
        <time>2011-12-18T11:32:02Z</time>
      </trkpt>
      <trkpt lat="47.28841" lon="-1.56738">
        <ele>10.2</ele>
        <time>2011-12-18T11:32:03Z</time>
      </trkpt>
      <trkpt lat="47.28841" lon="-1.56736">
        <ele>1</ele>
        <time>2011-12-18T11:32:04Z</time>
      </trkpt>
      <trkpt lat="47.2884" lon="-1.5672">
        <ele>3</ele>
        <time>2011-12-18T11:32:16Z</time>
      </trkpt>
      <trkpt lat="47.28841" lon="-1.56714">
        <ele>4</ele>
        <time>2011-12-18T11:32:16Z</time>
      </trkpt>
      <trkpt lat="47.28841" lon="-1.56712">
        <ele>5</ele>
        <time>2011-12-18T11:32:17Z</time>
      </trkpt>
      <trkpt lat="47.28843" lon="-1.56676">
        <ele>10</ele>
        <time>2011-12-18T11:32:31Z</time>
      </trkpt>
      <trkpt lat="47.28842" lon="-1.56671">
        <ele>12</ele>
        <time>2011-12-18T11:32:37Z</time>
      </trkpt>
      <trkpt lat="47.28844" lon="-1.56651">
        <ele>16</ele>
        <time>2011-12-18T11:32:46Z</time>
      </trkpt>
      <trkpt lat="47.28848" lon="-1.56634">
        <ele>18</ele>
        <time>2011-12-18T11:32:51Z</time>
      </trkpt>
      <trkpt lat="47.28864" lon="-1.56604">
        <ele>19</ele>
        <time>2011-12-18T11:33:00Z</time>
      </trkpt>
      <trkpt lat="47.28864" lon="-1.56602">
        <ele>19</ele>
        <time>2011-12-18T11:33:01Z</time>
      </trkpt>
      <trkpt lat="47.28866" lon="-1.56596">
        <ele>19</ele>
        <time>2011-12-18T11:33:07Z</time>
      </trkpt>
      <trkpt lat="47.28867" lon="-1.5659">
        <ele>19</ele>
        <time>2011-12-18T11:33:07Z</time>
      </trkpt>
      <trkpt lat="47.28867" lon="-1.56587">
        <ele>20</ele>
        <time>2011-12-18T11:33:08Z</time>
      </trkpt>
      <trkpt lat="47.2887" lon="-1.56579">
        <ele>22</ele>
        <time>2011-12-18T11:33:11Z</time>
      </trkpt>
      <trkpt lat="47.28875" lon="-1.56563">
        <ele>22</ele>
        <time>2011-12-18T11:33:16Z</time>
      </trkpt>
      <trkpt lat="47.28877" lon="-1.56561">
        <ele>22</ele>
        <time>2011-12-18T11:33:17Z</time>
      </trkpt>
      <trkpt lat="47.28881" lon="-1.56546">
        <ele>22</ele>
        <time>2011-12-18T11:33:26Z</time>
      </trkpt>
      <trkpt lat="47.2888" lon="-1.56544">
        <ele>22</ele>
        <time>2011-12-18T11:33:32Z</time>
      </trkpt>
      <trkpt lat="47.28881" lon="-1.56542">
        <ele>22</ele>
        <time>2011-12-18T11:33:33Z</time>
      </trkpt>
      <trkpt lat="47.28881" lon="-1.56537">
        <ele>22</ele>
        <time>2011-12-18T11:33:43Z</time>
      </trkpt>
      <trkpt lat="47.28888" lon="-1.56523">
        <ele>22</ele>
        <time>2011-12-18T11:33:50Z</time>
      </trkpt>
      <trkpt lat="47.28946" lon="-1.56464">
        <ele>25</ele>
        <time>2011-12-18T11:34:16Z</time>
      </trkpt>
      <trkpt lat="47.28964" lon="-1.56458">
        <ele>25</ele>
        <time>2011-12-18T11:34:18Z</time>
      </trkpt>
      <trkpt lat="47.29042" lon="-1.56453">
        <ele>25</ele>
        <time>2011-12-18T11:34:37Z</time>
      </trkpt>
      <trkpt lat="47.29049" lon="-1.56455">
        <ele>25</ele>
        <time>2011-12-18T11:34:42Z</time>
      </trkpt>
      <trkpt lat="47.29078" lon="-1.56488">
        <ele>25</ele>
        <time>2011-12-18T11:34:51Z</time>
      </trkpt>
      <trkpt lat="47.29083" lon="-1.56498">
        <ele>25</ele>
        <time>2011-12-18T11:34:51Z</time>
      </trkpt>
      <trkpt lat="47.29084" lon="-1.56502">
        <ele>25</ele>
        <time>2011-12-18T11:34:52Z</time>
      </trkpt>
      <trkpt lat="47.29135" lon="-1.5662">
        <ele>20</ele>
        <time>2011-12-18T11:35:20Z</time>
      </trkpt>
      <trkpt lat="47.29143" lon="-1.56627">
        <ele>20</ele>
        <time>2011-12-18T11:35:27Z</time>
      </trkpt>
      <trkpt lat="47.29158" lon="-1.56636">
        <ele>20</ele>
        <time>2011-12-18T11:35:34Z</time>
      </trkpt>
      <trkpt lat="47.29164" lon="-1.56636">
        <ele>20</ele>
        <time>2011-12-18T11:35:34Z</time>
      </trkpt>
      <trkpt lat="47.29196" lon="-1.56629">
        <ele>16</ele>
        <time>2011-12-18T11:35:48Z</time>
      </trkpt>
      <trkpt lat="47.29214" lon="-1.56629">
        <ele>16</ele>
        <time>2011-12-18T11:35:55Z</time>
      </trkpt>
      <trkpt lat="47.29225" lon="-1.56636">
        <ele>16</ele>
        <time>2011-12-18T11:35:55Z</time>
      </trkpt>
      <trkpt lat="47.29235" lon="-1.56653">
        <ele>14</ele>
        <time>2011-12-18T11:36:02Z</time>
      </trkpt>
      <trkpt lat="47.29259" lon="-1.56743">
        <ele>9</ele>
        <time>2011-12-18T11:36:16Z</time>
      </trkpt>
      <trkpt lat="47.29263" lon="-1.56774">
        <ele>9</ele>
        <time>2011-12-18T11:36:23Z</time>
      </trkpt>
      <trkpt lat="47.29268" lon="-1.5679">
        <ele>9</ele>
        <time>2011-12-18T11:36:30Z</time>
      </trkpt>
      <trkpt lat="47.29293" lon="-1.5698">
        <ele>20</ele>
        <time>2011-12-18T11:37:06Z</time>
      </trkpt>
      <trkpt lat="47.29318" lon="-1.57051">
        <ele>20</ele>
        <time>2011-12-18T11:37:24Z</time>
      </trkpt>
      <trkpt lat="47.29329" lon="-1.57135">
        <ele>23</ele>
        <time>2011-12-18T11:37:32Z</time>
      </trkpt>
      <trkpt lat="47.2921" lon="-1.57682">
        <ele>12</ele>
        <time>2011-12-18T11:38:53Z</time>
      </trkpt>
      <trkpt lat="47.2921" lon="-1.57686">
        <ele>11</ele>
        <time>2011-12-18T11:38:54Z</time>
      </trkpt>
      <trkpt lat="47.29207" lon="-1.57694">
        <ele>11</ele>
        <time>2011-12-18T11:39:00Z</time>
      </trkpt>
      <trkpt lat="47.29207" lon="-1.57707">
        <ele>11</ele>
        <time>2011-12-18T11:39:00Z</time>
      </trkpt>
      <trkpt lat="47.29209" lon="-1.57708">
        <ele>11</ele>
        <time>2011-12-18T11:39:02Z</time>
      </trkpt>
      <trkpt lat="47.29213" lon="-1.57714">
        <ele>11</ele>
        <time>2011-12-18T11:39:08Z</time>
      </trkpt>
      <trkpt lat="47.29238" lon="-1.57822">
        <ele>11</ele>
        <time>2011-12-18T11:39:36Z</time>
      </trkpt>
      <trkpt lat="47.29239" lon="-1.57824">
        <ele>11</ele>
        <time>2011-12-18T11:39:37Z</time>
      </trkpt>
      <trkpt lat="47.29241" lon="-1.57825">
        <ele>11</ele>
        <time>2011-12-18T11:39:38Z</time>
      </trkpt>
      <trkpt lat="47.29248" lon="-1.57835">
        <ele>12</ele>
        <time>2011-12-18T11:39:46Z</time>
      </trkpt>
      <trkpt lat="47.2925" lon="-1.57835">
        <ele>13</ele>
        <time>2011-12-18T11:39:46Z</time>
      </trkpt>
      <trkpt lat="47.29254" lon="-1.57842">
        <ele>14</ele>
        <time>2011-12-18T11:39:52Z</time>
      </trkpt>
      <trkpt lat="47.29256" lon="-1.57842">
        <ele>16</ele>
        <time>2011-12-18T11:39:55Z</time>
      </trkpt>
      <trkpt lat="47.29259" lon="-1.5785">
        <ele>17</ele>
        <time>2011-12-18T11:40:00Z</time>
      </trkpt>
      <trkpt lat="47.29261" lon="-1.57851">
        <ele>19</ele>
        <time>2011-12-18T11:40:02Z</time>
      </trkpt>
      <trkpt lat="47.29266" lon="-1.57866">
        <ele>19</ele>
        <time>2011-12-18T11:40:15Z</time>
      </trkpt>
      <trkpt lat="47.29268" lon="-1.57868">
        <ele>21</ele>
        <time>2011-12-18T11:40:17Z</time>
      </trkpt>
      <trkpt lat="47.29276" lon="-1.57884">
        <ele>25</ele>
        <time>2011-12-18T11:40:25Z</time>
      </trkpt>
      <trkpt lat="47.29284" lon="-1.57895">
        <ele>27</ele>
        <time>2011-12-18T11:40:31Z</time>
      </trkpt>
      <trkpt lat="47.29285" lon="-1.57897">
        <ele>28</ele>
        <time>2011-12-18T11:40:32Z</time>
      </trkpt>
      <trkpt lat="47.29342" lon="-1.58031">
        <ele>30</ele>
        <time>2011-12-18T11:41:20Z</time>
      </trkpt>
      <trkpt lat="47.29344" lon="-1.58034">
        <ele>30</ele>
        <time>2011-12-18T11:41:21Z</time>
      </trkpt>
      <trkpt lat="47.29346" lon="-1.58036">
        <ele>30</ele>
        <time>2011-12-18T11:41:22Z</time>
      </trkpt>
      <trkpt lat="47.29354" lon="-1.58039">
        <ele>30</ele>
        <time>2011-12-18T11:41:28Z</time>
      </trkpt>
      <trkpt lat="47.2938" lon="-1.58042">
        <ele>29</ele>
        <time>2011-12-18T11:41:35Z</time>
      </trkpt>
      <trkpt lat="47.2938" lon="-1.58041">
        <ele>26</ele>
        <time>2011-12-18T11:41:59Z</time>
      </trkpt>
      <trkpt lat="47.29381" lon="-1.58039">
        <ele>26</ele>
        <time>2011-12-18T11:42:20Z</time>
      </trkpt>
      <trkpt lat="47.29383" lon="-1.58039">
        <ele>26</ele>
        <time>2011-12-18T11:42:26Z</time>
      </trkpt>
      <trkpt lat="47.29386" lon="-1.5804">
        <ele>26</ele>
        <time>2011-12-18T11:42:27Z</time>
      </trkpt>
      <trkpt lat="47.29387" lon="-1.58042">
        <ele>28</ele>
        <time>2011-12-18T11:42:34Z</time>
      </trkpt>
      <trkpt lat="47.29385" lon="-1.58043">
        <ele>29</ele>
        <time>2011-12-18T11:42:42Z</time>
      </trkpt>
      <trkpt lat="47.29384" lon="-1.58043">
        <ele>29</ele>
        <time>2011-12-18T11:42:50Z</time>
      </trkpt>
      <trkpt lat="47.29382" lon="-1.5804">
        <ele>29</ele>
        <time>2011-12-18T11:42:58Z</time>
      </trkpt>
      <trkpt lat="47.29401" lon="-1.58078">
        <ele>29</ele>
        <time>2011-12-18T11:43:15Z</time>
      </trkpt>
      <trkpt lat="47.29425" lon="-1.58178">
        <ele>29</ele>
        <time>2011-12-18T11:43:34Z</time>
      </trkpt>
      <trkpt lat="47.29418" lon="-1.58214">
        <ele>29</ele>
        <time>2011-12-18T11:43:42Z</time>
      </trkpt>
      <trkpt lat="47.29449" lon="-1.58349">
        <ele>33</ele>
        <time>2011-12-18T11:44:11Z</time>
      </trkpt>
      <trkpt lat="47.29453" lon="-1.58362">
        <ele>33</ele>
        <time>2011-12-18T11:44:17Z</time>
      </trkpt>
      <trkpt lat="47.29453" lon="-1.58374">
        <ele>33</ele>
        <time>2011-12-18T11:44:17Z</time>
      </trkpt>
      <trkpt lat="47.2945" lon="-1.58382">
        <ele>33</ele>
        <time>2011-12-18T11:44:20Z</time>
      </trkpt>
      <trkpt lat="47.29448" lon="-1.58385">
        <ele>33</ele>
        <time>2011-12-18T11:44:20Z</time>
      </trkpt>
      <trkpt lat="47.29436" lon="-1.58412">
        <ele>33</ele>
        <time>2011-12-18T11:44:26Z</time>
      </trkpt>
      <trkpt lat="47.29433" lon="-1.58429">
        <ele>33</ele>
        <time>2011-12-18T11:44:33Z</time>
      </trkpt>
      <trkpt lat="47.29453" lon="-1.58659">
        <ele>33</ele>
        <time>2011-12-18T11:45:18Z</time>
      </trkpt>
      <trkpt lat="47.29449" lon="-1.58691">
        <ele>33</ele>
        <time>2011-12-18T11:45:25Z</time>
      </trkpt>
      <trkpt lat="47.29456" lon="-1.58761">
        <ele>33</ele>
        <time>2011-12-18T11:45:44Z</time>
      </trkpt>
      <trkpt lat="47.29446" lon="-1.58813">
        <ele>33</ele>
        <time>2011-12-18T11:45:53Z</time>
      </trkpt>
      <trkpt lat="47.29464" lon="-1.58958">
        <ele>35</ele>
        <time>2011-12-18T11:46:33Z</time>
      </trkpt>
      <trkpt lat="47.2946" lon="-1.58998">
        <ele>39</ele>
        <time>2011-12-18T11:46:40Z</time>
      </trkpt>
      <trkpt lat="47.29438" lon="-1.59047">
        <ele>41</ele>
        <time>2011-12-18T11:46:49Z</time>
      </trkpt>
      <trkpt lat="47.29433" lon="-1.59052">
        <ele>41</ele>
        <time>2011-12-18T11:46:51Z</time>
      </trkpt>
      <trkpt lat="47.29413" lon="-1.59079">
        <ele>41</ele>
        <time>2011-12-18T11:46:59Z</time>
      </trkpt>
      <trkpt lat="47.29404" lon="-1.59111">
        <ele>41</ele>
        <time>2011-12-18T11:47:05Z</time>
      </trkpt>
      <trkpt lat="47.29383" lon="-1.59138">
        <ele>41</ele>
        <time>2011-12-18T11:47:14Z</time>
      </trkpt>
      <trkpt lat="47.29372" lon="-1.59166">
        <ele>41</ele>
        <time>2011-12-18T11:47:21Z</time>
      </trkpt>
      <trkpt lat="47.29371" lon="-1.59172">
        <ele>41</ele>
        <time>2011-12-18T11:47:26Z</time>
      </trkpt>
      <trkpt lat="47.29383" lon="-1.59206">
        <ele>43</ele>
        <time>2011-12-18T11:47:34Z</time>
      </trkpt>
      <trkpt lat="47.29396" lon="-1.59352">
        <ele>52</ele>
        <time>2011-12-18T11:48:16Z</time>
      </trkpt>
      <trkpt lat="47.29398" lon="-1.59442">
        <ele>53</ele>
        <time>2011-12-18T11:48:32Z</time>
      </trkpt>
      <trkpt lat="47.29441" lon="-1.60225">
        <ele>53</ele>
        <time>2011-12-18T11:50:43Z</time>
      </trkpt>
      <trkpt lat="47.29439" lon="-1.60229">
        <ele>53</ele>
        <time>2011-12-18T11:50:44Z</time>
      </trkpt>
      <trkpt lat="47.29291" lon="-1.60453">
        <ele>53</ele>
        <time>2011-12-18T11:51:26Z</time>
      </trkpt>
      <trkpt lat="47.29232" lon="-1.60492">
        <ele>53</ele>
        <time>2011-12-18T11:51:40Z</time>
      </trkpt>
      <trkpt lat="47.29078" lon="-1.60785">
        <ele>56</ele>
        <time>2011-12-18T11:52:31Z</time>
      </trkpt>
      <trkpt lat="47.29075" lon="-1.60792">
        <ele>56</ele>
        <time>2011-12-18T11:52:33Z</time>
      </trkpt>
      <trkpt lat="47.28964" lon="-1.60972">
        <ele>57</ele>
        <time>2011-12-18T11:53:21Z</time>
      </trkpt>
      <trkpt lat="47.28964" lon="-1.60996">
        <ele>57</ele>
        <time>2011-12-18T11:53:22Z</time>
      </trkpt>
      <trkpt lat="47.29091" lon="-1.61132">
        <ele>56</ele>
        <time>2011-12-18T11:53:51Z</time>
      </trkpt>
      <trkpt lat="47.29268" lon="-1.61484">
        <ele>56</ele>
        <time>2011-12-18T11:54:42Z</time>
      </trkpt>
      <trkpt lat="47.2927" lon="-1.61496">
        <ele>56</ele>
        <time>2011-12-18T11:54:48Z</time>
      </trkpt>
      <trkpt lat="47.29159" lon="-1.61657">
        <ele>56</ele>
        <time>2011-12-18T11:55:18Z</time>
      </trkpt>
      <trkpt lat="47.29102" lon="-1.61791">
        <ele>57</ele>
        <time>2011-12-18T11:55:47Z</time>
      </trkpt>
      <trkpt lat="47.29076" lon="-1.61914">
        <ele>57</ele>
        <time>2011-12-18T11:56:09Z</time>
      </trkpt>
      <trkpt lat="47.29069" lon="-1.61939">
        <ele>57</ele>
        <time>2011-12-18T11:56:09Z</time>
      </trkpt>
      <trkpt lat="47.29066" lon="-1.61944">
        <ele>57</ele>
        <time>2011-12-18T11:56:10Z</time>
      </trkpt>
      <trkpt lat="47.29002" lon="-1.62">
        <ele>57</ele>
        <time>2011-12-18T11:56:26Z</time>
      </trkpt>
      <trkpt lat="47.28916" lon="-1.6202">
        <ele>50</ele>
        <time>2011-12-18T11:56:44Z</time>
      </trkpt>
      <trkpt lat="47.28837" lon="-1.62067">
        <ele>44</ele>
        <time>2011-12-18T11:57:01Z</time>
      </trkpt>
      <trkpt lat="47.28833" lon="-1.62072">
        <ele>44</ele>
        <time>2011-12-18T11:57:03Z</time>
      </trkpt>
      <trkpt lat="47.28813" lon="-1.62128">
        <ele>41</ele>
        <time>2011-12-18T11:57:15Z</time>
      </trkpt>
      <trkpt lat="47.28786" lon="-1.62193">
        <ele>45</ele>
        <time>2011-12-18T11:57:32Z</time>
      </trkpt>
      <trkpt lat="47.28784" lon="-1.62197">
        <ele>46</ele>
        <time>2011-12-18T11:57:33Z</time>
      </trkpt>
      <trkpt lat="47.28778" lon="-1.62221">
        <ele>49</ele>
        <time>2011-12-18T11:57:39Z</time>
      </trkpt>
      <trkpt lat="47.28778" lon="-1.62319">
        <ele>56</ele>
        <time>2011-12-18T11:58:04Z</time>
      </trkpt>
      <trkpt lat="47.28758" lon="-1.62356">
        <ele>55</ele>
        <time>2011-12-18T11:58:22Z</time>
      </trkpt>
      <trkpt lat="47.28757" lon="-1.62356">
        <ele>54</ele>
        <time>2011-12-18T11:58:23Z</time>
      </trkpt>
      <trkpt lat="47.28762" lon="-1.62352">
        <ele>53</ele>
        <time>2011-12-18T11:58:30Z</time>
      </trkpt>
      <trkpt lat="47.28763" lon="-1.62352">
        <ele>53</ele>
        <time>2011-12-18T11:58:31Z</time>
      </trkpt>
      <trkpt lat="47.28769" lon="-1.62345">
        <ele>53</ele>
        <time>2011-12-18T11:58:36Z</time>
      </trkpt>
      <trkpt lat="47.28785" lon="-1.62306">
        <ele>53</ele>
        <time>2011-12-18T11:58:48Z</time>
      </trkpt>
      <trkpt lat="47.2878" lon="-1.62237">
        <ele>51</ele>
        <time>2011-12-18T11:59:07Z</time>
      </trkpt>
      <trkpt lat="47.28782" lon="-1.62234">
        <ele>50</ele>
        <time>2011-12-18T11:59:08Z</time>
      </trkpt>
      <trkpt lat="47.28787" lon="-1.62228">
        <ele>48</ele>
        <time>2011-12-18T11:59:10Z</time>
      </trkpt>
      <trkpt lat="47.28801" lon="-1.62225">
        <ele>47</ele>
        <time>2011-12-18T11:59:15Z</time>
      </trkpt>
      <trkpt lat="47.28807" lon="-1.62226">
        <ele>46</ele>
        <time>2011-12-18T11:59:21Z</time>
      </trkpt>
      <trkpt lat="47.28814" lon="-1.62229">
        <ele>46</ele>
        <time>2011-12-18T11:59:23Z</time>
      </trkpt>
      <trkpt lat="47.28817" lon="-1.62229">
        <ele>46</ele>
        <time>2011-12-18T11:59:24Z</time>
      </trkpt>
      <trkpt lat="47.28926" lon="-1.62273">
        <ele>54</ele>
        <time>2011-12-18T11:59:53Z</time>
      </trkpt>
      <trkpt lat="47.28929" lon="-1.62276">
        <ele>55</ele>
        <time>2011-12-18T11:59:54Z</time>
      </trkpt>
      <trkpt lat="47.28931" lon="-1.6228">
        <ele>56</ele>
        <time>2011-12-18T11:59:55Z</time>
      </trkpt>
      <trkpt lat="47.28936" lon="-1.62285">
        <ele>57</ele>
        <time>2011-12-18T12:00:01Z</time>
      </trkpt>
      <trkpt lat="47.28961" lon="-1.6229">
        <ele>59</ele>
        <time>2011-12-18T12:00:03Z</time>
      </trkpt>
      <trkpt lat="47.29001" lon="-1.6231">
        <ele>62</ele>
        <time>2011-12-18T12:00:16Z</time>
      </trkpt>
      <trkpt lat="47.29007" lon="-1.6231">
        <ele>62</ele>
        <time>2011-12-18T12:00:20Z</time>
      </trkpt>
      <trkpt lat="47.29018" lon="-1.62308">
        <ele>62</ele>
        <time>2011-12-18T12:00:21Z</time>
      </trkpt>
      <trkpt lat="47.29022" lon="-1.62308">
        <ele>62</ele>
        <time>2011-12-18T12:00:22Z</time>
      </trkpt>
      <trkpt lat="47.2903" lon="-1.62313">
        <ele>62</ele>
        <time>2011-12-18T12:00:26Z</time>
      </trkpt>
      <trkpt lat="47.29035" lon="-1.62331">
        <ele>62</ele>
        <time>2011-12-18T12:00:28Z</time>
      </trkpt>
      <trkpt lat="47.29022" lon="-1.6248">
        <ele>56</ele>
        <time>2011-12-18T12:00:56Z</time>
      </trkpt>
      <trkpt lat="47.29017" lon="-1.62489">
        <ele>56</ele>
        <time>2011-12-18T12:01:01Z</time>
      </trkpt>
      <trkpt lat="47.28981" lon="-1.62514">
        <ele>56</ele>
        <time>2011-12-18T12:01:19Z</time>
      </trkpt>
      <trkpt lat="47.28979" lon="-1.62514">
        <ele>56</ele>
        <time>2011-12-18T12:01:20Z</time>
      </trkpt>
      <trkpt lat="47.28978" lon="-1.62515">
        <ele>56</ele>
        <time>2011-12-18T12:01:21Z</time>
      </trkpt>
      <trkpt lat="47.28948" lon="-1.62534">
        <ele>53</ele>
        <time>2011-12-18T12:01:33Z</time>
      </trkpt>
      <trkpt lat="47.28937" lon="-1.62538">
        <ele>51</ele>
        <time>2011-12-18T12:01:38Z</time>
      </trkpt>
      <trkpt lat="47.28935" lon="-1.62539">
        <ele>50</ele>
        <time>2011-12-18T12:01:39Z</time>
      </trkpt>
      <trkpt lat="47.28929" lon="-1.6254">
        <ele>50</ele>
        <time>2011-12-18T12:01:44Z</time>
      </trkpt>
      <trkpt lat="47.28889" lon="-1.62568">
        <ele>50</ele>
        <time>2011-12-18T12:01:57Z</time>
      </trkpt>
      <trkpt lat="47.28885" lon="-1.62568">
        <ele>50</ele>
        <time>2011-12-18T12:01:59Z</time>
      </trkpt>
      <trkpt lat="47.28868" lon="-1.62582">
        <ele>49</ele>
        <time>2011-12-18T12:02:06Z</time>
      </trkpt>
      <trkpt lat="47.28857" lon="-1.62586">
        <ele>49</ele>
        <time>2011-12-18T12:02:11Z</time>
      </trkpt>
      <trkpt lat="47.28852" lon="-1.62586">
        <ele>49</ele>
        <time>2011-12-18T12:02:13Z</time>
      </trkpt>
      <trkpt lat="47.28837" lon="-1.62584">
        <ele>49</ele>
        <time>2011-12-18T12:02:19Z</time>
      </trkpt>
      <trkpt lat="47.28835" lon="-1.62582">
        <ele>49</ele>
        <time>2011-12-18T12:02:20Z</time>
      </trkpt>
      <trkpt lat="47.28831" lon="-1.62578">
        <ele>49</ele>
        <time>2011-12-18T12:02:24Z</time>
      </trkpt>
      <trkpt lat="47.28827" lon="-1.62569">
        <ele>49</ele>
        <time>2011-12-18T12:02:25Z</time>
      </trkpt>
      <trkpt lat="47.28824" lon="-1.62567">
        <ele>49</ele>
        <time>2011-12-18T12:02:26Z</time>
      </trkpt>
      <trkpt lat="47.28818" lon="-1.62565">
        <ele>50</ele>
        <time>2011-12-18T12:02:28Z</time>
      </trkpt>
      <trkpt lat="47.28793" lon="-1.62571">
        <ele>51</ele>
        <time>2011-12-18T12:02:39Z</time>
      </trkpt>
      <trkpt lat="47.28786" lon="-1.62574">
        <ele>51</ele>
        <time>2011-12-18T12:02:40Z</time>
      </trkpt>
      <trkpt lat="47.28779" lon="-1.62575">
        <ele>51</ele>
        <time>2011-12-18T12:02:45Z</time>
      </trkpt>
      <trkpt lat="47.28764" lon="-1.62572">
        <ele>52</ele>
        <time>2011-12-18T12:02:52Z</time>
      </trkpt>
      <trkpt lat="47.28756" lon="-1.62573">
        <ele>52</ele>
        <time>2011-12-18T12:02:53Z</time>
      </trkpt>
      <trkpt lat="47.28746" lon="-1.62566">
        <ele>52</ele>
        <time>2011-12-18T12:03:00Z</time>
      </trkpt>
      <trkpt lat="47.28576" lon="-1.62528">
        <ele>52</ele>
        <time>2011-12-18T12:03:45Z</time>
      </trkpt>
      <trkpt lat="47.28565" lon="-1.62522">
        <ele>52</ele>
        <time>2011-12-18T12:03:49Z</time>
      </trkpt>
      <trkpt lat="47.28425" lon="-1.62491">
        <ele>46</ele>
        <time>2011-12-18T12:04:09Z</time>
      </trkpt>
      <trkpt lat="47.2826" lon="-1.62541">
        <ele>41</ele>
        <time>2011-12-18T12:04:39Z</time>
      </trkpt>
      <trkpt lat="47.28215" lon="-1.62566">
        <ele>41</ele>
        <time>2011-12-18T12:04:50Z</time>
      </trkpt>
      <trkpt lat="47.28195" lon="-1.6257">
        <ele>41</ele>
        <time>2011-12-18T12:04:57Z</time>
      </trkpt>
      <trkpt lat="47.28193" lon="-1.62571">
        <ele>40</ele>
        <time>2011-12-18T12:04:59Z</time>
      </trkpt>
      <trkpt lat="47.28194" lon="-1.62573">
        <ele>39</ele>
        <time>2011-12-18T12:05:00Z</time>
      </trkpt>
      <trkpt lat="47.28191" lon="-1.62571">
        <ele>39</ele>
        <time>2011-12-18T12:05:06Z</time>
      </trkpt>
      <trkpt lat="47.28154" lon="-1.62555">
        <ele>37</ele>
        <time>2011-12-18T12:05:26Z</time>
      </trkpt>
      <trkpt lat="47.28106" lon="-1.6254">
        <ele>37</ele>
        <time>2011-12-18T12:05:44Z</time>
      </trkpt>
      <trkpt lat="47.28084" lon="-1.62531">
        <ele>37</ele>
        <time>2011-12-18T12:05:55Z</time>
      </trkpt>
      <trkpt lat="47.28026" lon="-1.62523">
        <ele>37</ele>
        <time>2011-12-18T12:06:15Z</time>
      </trkpt>
      <trkpt lat="47.27979" lon="-1.62509">
        <ele>38</ele>
        <time>2011-12-18T12:06:33Z</time>
      </trkpt>
      <trkpt lat="47.27975" lon="-1.62504">
        <ele>38</ele>
        <time>2011-12-18T12:06:37Z</time>
      </trkpt>
      <trkpt lat="47.27954" lon="-1.62461">
        <ele>38</ele>
        <time>2011-12-18T12:06:45Z</time>
      </trkpt>
      <trkpt lat="47.27949" lon="-1.62454">
        <ele>38</ele>
        <time>2011-12-18T12:06:47Z</time>
      </trkpt>
      <trkpt lat="47.27891" lon="-1.62438">
        <ele>36</ele>
        <time>2011-12-18T12:06:58Z</time>
      </trkpt>
      <trkpt lat="47.27876" lon="-1.62424">
        <ele>35</ele>
        <time>2011-12-18T12:07:05Z</time>
      </trkpt>
      <trkpt lat="47.27874" lon="-1.6242">
        <ele>33</ele>
        <time>2011-12-18T12:07:14Z</time>
      </trkpt>
      <trkpt lat="47.27877" lon="-1.62418">
        <ele>33</ele>
        <time>2011-12-18T12:07:20Z</time>
      </trkpt>
      <trkpt lat="47.27883" lon="-1.62418">
        <ele>32</ele>
        <time>2011-12-18T12:07:21Z</time>
      </trkpt>
      <trkpt lat="47.27921" lon="-1.62405">
        <ele>32</ele>
        <time>2011-12-18T12:07:34Z</time>
      </trkpt>
      <trkpt lat="47.27954" lon="-1.62382">
        <ele>32</ele>
        <time>2011-12-18T12:07:44Z</time>
      </trkpt>
      <trkpt lat="47.27963" lon="-1.62362">
        <ele>32</ele>
        <time>2011-12-18T12:07:45Z</time>
      </trkpt>
      <trkpt lat="47.27963" lon="-1.62356">
        <ele>32</ele>
        <time>2011-12-18T12:07:46Z</time>
      </trkpt>
      <trkpt lat="47.27962" lon="-1.62347">
        <ele>32</ele>
        <time>2011-12-18T12:07:48Z</time>
      </trkpt>
      <trkpt lat="47.27952" lon="-1.62323">
        <ele>32</ele>
        <time>2011-12-18T12:07:54Z</time>
      </trkpt>
      <trkpt lat="47.27937" lon="-1.62268">
        <ele>28</ele>
        <time>2011-12-18T12:08:06Z</time>
      </trkpt>
      <trkpt lat="47.27954" lon="-1.62152">
        <ele>34</ele>
        <time>2011-12-18T12:08:32Z</time>
      </trkpt>
      <trkpt lat="47.27964" lon="-1.62127">
        <ele>36</ele>
        <time>2011-12-18T12:08:37Z</time>
      </trkpt>
      <trkpt lat="47.2797" lon="-1.6212">
        <ele>36</ele>
        <time>2011-12-18T12:08:39Z</time>
      </trkpt>
      <trkpt lat="47.28019" lon="-1.62083">
        <ele>37</ele>
        <time>2011-12-18T12:08:55Z</time>
      </trkpt>
      <trkpt lat="47.28043" lon="-1.62049">
        <ele>40</ele>
        <time>2011-12-18T12:09:03Z</time>
      </trkpt>
      <trkpt lat="47.28045" lon="-1.62045">
        <ele>41</ele>
        <time>2011-12-18T12:09:04Z</time>
      </trkpt>
      <trkpt lat="47.28064" lon="-1.61995">
        <ele>42</ele>
        <time>2011-12-18T12:09:16Z</time>
      </trkpt>
      <trkpt lat="47.28104" lon="-1.61929">
        <ele>47</ele>
        <time>2011-12-18T12:09:34Z</time>
      </trkpt>
      <trkpt lat="47.28139" lon="-1.61886">
        <ele>49</ele>
        <time>2011-12-18T12:09:50Z</time>
      </trkpt>
      <trkpt lat="47.2814" lon="-1.61879">
        <ele>49</ele>
        <time>2011-12-18T12:09:51Z</time>
      </trkpt>
      <trkpt lat="47.28137" lon="-1.61862">
        <ele>49</ele>
        <time>2011-12-18T12:09:57Z</time>
      </trkpt>
      <trkpt lat="47.28121" lon="-1.61836">
        <ele>50</ele>
        <time>2011-12-18T12:10:00Z</time>
      </trkpt>
      <trkpt lat="47.28054" lon="-1.61692">
        <ele>44</ele>
        <time>2011-12-18T12:10:28Z</time>
      </trkpt>
      <trkpt lat="47.28042" lon="-1.6169">
        <ele>44</ele>
        <time>2011-12-18T12:10:29Z</time>
      </trkpt>
      <trkpt lat="47.28034" lon="-1.61694">
        <ele>44</ele>
        <time>2011-12-18T12:10:32Z</time>
      </trkpt>
      <trkpt lat="47.28022" lon="-1.61691">
        <ele>44</ele>
        <time>2011-12-18T12:10:36Z</time>
      </trkpt>
      <trkpt lat="47.28013" lon="-1.61675">
        <ele>44</ele>
        <time>2011-12-18T12:10:37Z</time>
      </trkpt>
      <trkpt lat="47.27962" lon="-1.61503">
        <ele>44</ele>
        <time>2011-12-18T12:11:10Z</time>
      </trkpt>
      <trkpt lat="47.27961" lon="-1.61502">
        <ele>44</ele>
        <time>2011-12-18T12:11:18Z</time>
      </trkpt>
      <trkpt lat="47.27959" lon="-1.61503">
        <ele>44</ele>
        <time>2011-12-18T12:11:26Z</time>
      </trkpt>
      <trkpt lat="47.27947" lon="-1.6149">
        <ele>45</ele>
        <time>2011-12-18T12:11:41Z</time>
      </trkpt>
      <trkpt lat="47.27935" lon="-1.61482">
        <ele>45</ele>
        <time>2011-12-18T12:11:46Z</time>
      </trkpt>
      <trkpt lat="47.27918" lon="-1.61482">
        <ele>45</ele>
        <time>2011-12-18T12:11:54Z</time>
      </trkpt>
      <trkpt lat="47.27916" lon="-1.61485">
        <ele>46</ele>
        <time>2011-12-18T12:12:17Z</time>
      </trkpt>
      <trkpt lat="47.27913" lon="-1.61485">
        <ele>46</ele>
        <time>2011-12-18T12:12:23Z</time>
      </trkpt>
      <trkpt lat="47.279" lon="-1.61497">
        <ele>46</ele>
        <time>2011-12-18T12:12:30Z</time>
      </trkpt>
      <trkpt lat="47.27882" lon="-1.61505">
        <ele>46</ele>
        <time>2011-12-18T12:12:31Z</time>
      </trkpt>
      <trkpt lat="47.27807" lon="-1.61515">
        <ele>46</ele>
        <time>2011-12-18T12:12:54Z</time>
      </trkpt>
      <trkpt lat="47.27809" lon="-1.61514">
        <ele>45</ele>
        <time>2011-12-18T12:13:01Z</time>
      </trkpt>
      <trkpt lat="47.2781" lon="-1.61513">
        <ele>43</ele>
        <time>2011-12-18T12:13:09Z</time>
      </trkpt>
      <trkpt lat="47.27818" lon="-1.61516">
        <ele>41</ele>
        <time>2011-12-18T12:13:33Z</time>
      </trkpt>
      <trkpt lat="47.27819" lon="-1.61516">
        <ele>41</ele>
        <time>2011-12-18T12:13:40Z</time>
      </trkpt>
      <trkpt lat="47.27818" lon="-1.61515">
        <ele>41</ele>
        <time>2011-12-18T12:13:50Z</time>
      </trkpt>
      <trkpt lat="47.27816" lon="-1.61514">
        <ele>41</ele>
        <time>2011-12-18T12:13:58Z</time>
      </trkpt>
      <trkpt lat="47.27798" lon="-1.61523">
        <ele>41</ele>
        <time>2011-12-18T12:14:04Z</time>
      </trkpt>
      <trkpt lat="47.27753" lon="-1.61564">
        <ele>41</ele>
        <time>2011-12-18T12:14:14Z</time>
      </trkpt>
      <trkpt lat="47.2769" lon="-1.61599">
        <ele>40</ele>
        <time>2011-12-18T12:14:26Z</time>
      </trkpt>
      <trkpt lat="47.27491" lon="-1.61621">
        <ele>29</ele>
        <time>2011-12-18T12:14:52Z</time>
      </trkpt>
      <trkpt lat="47.27358" lon="-1.61709">
        <ele>43</ele>
        <time>2011-12-18T12:15:29Z</time>
      </trkpt>
      <trkpt lat="47.27329" lon="-1.61756">
        <ele>53</ele>
        <time>2011-12-18T12:15:41Z</time>
      </trkpt>
      <trkpt lat="47.27282" lon="-1.61853">
        <ele>59</ele>
        <time>2011-12-18T12:16:04Z</time>
      </trkpt>
      <trkpt lat="47.27131" lon="-1.62293">
        <ele>35</ele>
        <time>2011-12-18T12:17:16Z</time>
      </trkpt>
      <trkpt lat="47.27118" lon="-1.62316">
        <ele>38</ele>
        <time>2011-12-18T12:17:23Z</time>
      </trkpt>
      <trkpt lat="47.27116" lon="-1.62322">
        <ele>38</ele>
        <time>2011-12-18T12:17:28Z</time>
      </trkpt>
      <trkpt lat="47.2711" lon="-1.62329">
        <ele>38</ele>
        <time>2011-12-18T12:17:28Z</time>
      </trkpt>
      <trkpt lat="47.27107" lon="-1.6233">
        <ele>38</ele>
        <time>2011-12-18T12:17:29Z</time>
      </trkpt>
      <trkpt lat="47.27105" lon="-1.62329">
        <ele>38</ele>
        <time>2011-12-18T12:17:30Z</time>
      </trkpt>
      <trkpt lat="47.271" lon="-1.62323">
        <ele>38</ele>
        <time>2011-12-18T12:17:35Z</time>
      </trkpt>
      <trkpt lat="47.27089" lon="-1.62315">
        <ele>38</ele>
        <time>2011-12-18T12:17:36Z</time>
      </trkpt>
      <trkpt lat="47.27085" lon="-1.62315">
        <ele>38</ele>
        <time>2011-12-18T12:17:37Z</time>
      </trkpt>
      <trkpt lat="47.27081" lon="-1.62316">
        <ele>38</ele>
        <time>2011-12-18T12:17:38Z</time>
      </trkpt>
      <trkpt lat="47.26935" lon="-1.62412">
        <ele>32</ele>
        <time>2011-12-18T12:18:08Z</time>
      </trkpt>
      <trkpt lat="47.26931" lon="-1.62417">
        <ele>31</ele>
        <time>2011-12-18T12:18:09Z</time>
      </trkpt>
      <trkpt lat="47.26925" lon="-1.62433">
        <ele>29</ele>
        <time>2011-12-18T12:18:15Z</time>
      </trkpt>
      <trkpt lat="47.26929" lon="-1.62448">
        <ele>29</ele>
        <time>2011-12-18T12:18:16Z</time>
      </trkpt>
      <trkpt lat="47.2693" lon="-1.6245">
        <ele>29</ele>
        <time>2011-12-18T12:18:17Z</time>
      </trkpt>
      <trkpt lat="47.26941" lon="-1.62461">
        <ele>29</ele>
        <time>2011-12-18T12:18:23Z</time>
      </trkpt>
      <trkpt lat="47.2695" lon="-1.62476">
        <ele>29</ele>
        <time>2011-12-18T12:18:29Z</time>
      </trkpt>
      <trkpt lat="47.26951" lon="-1.62479">
        <ele>29</ele>
        <time>2011-12-18T12:18:30Z</time>
      </trkpt>
      <trkpt lat="47.26967" lon="-1.62649">
        <ele>45</ele>
        <time>2011-12-18T12:19:13Z</time>
      </trkpt>
      <trkpt lat="47.26967" lon="-1.62671">
        <ele>48</ele>
        <time>2011-12-18T12:19:19Z</time>
      </trkpt>
      <trkpt lat="47.26989" lon="-1.62839">
        <ele>49</ele>
        <time>2011-12-18T12:19:58Z</time>
      </trkpt>
      <trkpt lat="47.26989" lon="-1.62843">
        <ele>49</ele>
        <time>2011-12-18T12:20:00Z</time>
      </trkpt>
      <trkpt lat="47.26988" lon="-1.62848">
        <ele>49</ele>
        <time>2011-12-18T12:20:15Z</time>
      </trkpt>
      <trkpt lat="47.26988" lon="-1.6285">
        <ele>49</ele>
        <time>2011-12-18T12:20:21Z</time>
      </trkpt>
      <trkpt lat="47.26985" lon="-1.62856">
        <ele>49</ele>
        <time>2011-12-18T12:20:33Z</time>
      </trkpt>
      <trkpt lat="47.26984" lon="-1.62857">
        <ele>49</ele>
        <time>2011-12-18T12:20:39Z</time>
      </trkpt>
      <trkpt lat="47.26984" lon="-1.62855">
        <ele>49</ele>
        <time>2011-12-18T12:20:44Z</time>
      </trkpt>
      <trkpt lat="47.26986" lon="-1.62853">
        <ele>49</ele>
        <time>2011-12-18T12:20:53Z</time>
      </trkpt>
      <trkpt lat="47.26991" lon="-1.62852">
        <ele>46</ele>
        <time>2011-12-18T12:21:08Z</time>
      </trkpt>
      <trkpt lat="47.26992" lon="-1.62849">
        <ele>45</ele>
        <time>2011-12-18T12:21:09Z</time>
      </trkpt>
      <trkpt lat="47.26964" lon="-1.6255">
        <ele>37</ele>
        <time>2011-12-18T12:21:54Z</time>
      </trkpt>
      <trkpt lat="47.26941" lon="-1.62468">
        <ele>38</ele>
        <time>2011-12-18T12:22:08Z</time>
      </trkpt>
      <trkpt lat="47.26923" lon="-1.62442">
        <ele>37</ele>
        <time>2011-12-18T12:22:14Z</time>
      </trkpt>
      <trkpt lat="47.26914" lon="-1.62437">
        <ele>34</ele>
        <time>2011-12-18T12:22:16Z</time>
      </trkpt>
      <trkpt lat="47.26884" lon="-1.62433">
        <ele>32</ele>
        <time>2011-12-18T12:22:21Z</time>
      </trkpt>
      <trkpt lat="47.26878" lon="-1.6243">
        <ele>30</ele>
        <time>2011-12-18T12:22:22Z</time>
      </trkpt>
      <trkpt lat="47.26813" lon="-1.62374">
        <ele>24</ele>
        <time>2011-12-18T12:22:34Z</time>
      </trkpt>
      <trkpt lat="47.26808" lon="-1.6237">
        <ele>22</ele>
        <time>2011-12-18T12:22:35Z</time>
      </trkpt>
      <trkpt lat="47.26796" lon="-1.62373">
        <ele>21</ele>
        <time>2011-12-18T12:22:40Z</time>
      </trkpt>
      <trkpt lat="47.26794" lon="-1.6238">
        <ele>17</ele>
        <time>2011-12-18T12:22:42Z</time>
      </trkpt>
      <trkpt lat="47.26764" lon="-1.62691">
        <ele>12</ele>
        <time>2011-12-18T12:23:32Z</time>
      </trkpt>
      <trkpt lat="47.26792" lon="-1.6299">
        <ele>19</ele>
        <time>2011-12-18T12:24:17Z</time>
      </trkpt>
      <trkpt lat="47.26812" lon="-1.6303">
        <ele>19</ele>
        <time>2011-12-18T12:24:29Z</time>
      </trkpt>
      <trkpt lat="47.26824" lon="-1.63034">
        <ele>19</ele>
        <time>2011-12-18T12:24:32Z</time>
      </trkpt>
      <trkpt lat="47.26827" lon="-1.63038">
        <ele>18</ele>
        <time>2011-12-18T12:24:37Z</time>
      </trkpt>
      <trkpt lat="47.26828" lon="-1.63045">
        <ele>18</ele>
        <time>2011-12-18T12:24:37Z</time>
      </trkpt>
      <trkpt lat="47.26828" lon="-1.63046">
        <ele>17</ele>
        <time>2011-12-18T12:24:41Z</time>
      </trkpt>
      <trkpt lat="47.26824" lon="-1.63053">
        <ele>17</ele>
        <time>2011-12-18T12:24:55Z</time>
      </trkpt>
      <trkpt lat="47.26824" lon="-1.63054">
        <ele>17</ele>
        <time>2011-12-18T12:25:04Z</time>
      </trkpt>
      <trkpt lat="47.26825" lon="-1.63056">
        <ele>17</ele>
        <time>2011-12-18T12:25:04Z</time>
      </trkpt>
      <trkpt lat="47.26828" lon="-1.63072">
        <ele>17</ele>
        <time>2011-12-18T12:25:14Z</time>
      </trkpt>
      <trkpt lat="47.26826" lon="-1.63081">
        <ele>17</ele>
        <time>2011-12-18T12:25:20Z</time>
      </trkpt>
      <trkpt lat="47.2683" lon="-1.63092">
        <ele>17</ele>
        <time>2011-12-18T12:25:22Z</time>
      </trkpt>
      <trkpt lat="47.2683" lon="-1.63095">
        <ele>17</ele>
        <time>2011-12-18T12:25:23Z</time>
      </trkpt>
      <trkpt lat="47.26829" lon="-1.63101">
        <ele>17</ele>
        <time>2011-12-18T12:25:28Z</time>
      </trkpt>
      <trkpt lat="47.2683" lon="-1.63109">
        <ele>17</ele>
        <time>2011-12-18T12:25:29Z</time>
      </trkpt>
      <trkpt lat="47.26836" lon="-1.63115">
        <ele>17</ele>
        <time>2011-12-18T12:25:36Z</time>
      </trkpt>
      <trkpt lat="47.26845" lon="-1.63135">
        <ele>18</ele>
        <time>2011-12-18T12:25:37Z</time>
      </trkpt>
      <trkpt lat="47.26847" lon="-1.6314">
        <ele>19</ele>
        <time>2011-12-18T12:25:38Z</time>
      </trkpt>
      <trkpt lat="47.26859" lon="-1.63166">
        <ele>21</ele>
        <time>2011-12-18T12:25:44Z</time>
      </trkpt>
      <trkpt lat="47.26859" lon="-1.63167">
        <ele>22</ele>
        <time>2011-12-18T12:25:45Z</time>
      </trkpt>
      <trkpt lat="47.26859" lon="-1.6317">
        <ele>23</ele>
        <time>2011-12-18T12:25:49Z</time>
      </trkpt>
      <trkpt lat="47.26862" lon="-1.63176">
        <ele>26</ele>
        <time>2011-12-18T12:25:52Z</time>
      </trkpt>
      <trkpt lat="47.26864" lon="-1.63181">
        <ele>26</ele>
        <time>2011-12-18T12:25:58Z</time>
      </trkpt>
      <trkpt lat="47.26868" lon="-1.63187">
        <ele>26</ele>
        <time>2011-12-18T12:25:59Z</time>
      </trkpt>
      <trkpt lat="47.26868" lon="-1.63189">
        <ele>26</ele>
        <time>2011-12-18T12:26:01Z</time>
      </trkpt>
      <trkpt lat="47.26868" lon="-1.63194">
        <ele>26</ele>
        <time>2011-12-18T12:26:08Z</time>
      </trkpt>
      <trkpt lat="47.26871" lon="-1.63203">
        <ele>26</ele>
        <time>2011-12-18T12:26:09Z</time>
      </trkpt>
      <trkpt lat="47.26872" lon="-1.63204">
        <ele>26</ele>
        <time>2011-12-18T12:26:09Z</time>
      </trkpt>
      <trkpt lat="47.26895" lon="-1.63222">
        <ele>24</ele>
        <time>2011-12-18T12:26:21Z</time>
      </trkpt>
      <trkpt lat="47.26903" lon="-1.63224">
        <ele>24</ele>
        <time>2011-12-18T12:26:27Z</time>
      </trkpt>
      <trkpt lat="47.26909" lon="-1.63229">
        <ele>24</ele>
        <time>2011-12-18T12:26:27Z</time>
      </trkpt>
      <trkpt lat="47.26911" lon="-1.63231">
        <ele>25</ele>
        <time>2011-12-18T12:26:28Z</time>
      </trkpt>
      <trkpt lat="47.26914" lon="-1.63233">
        <ele>26</ele>
        <time>2011-12-18T12:26:33Z</time>
      </trkpt>
      <trkpt lat="47.26928" lon="-1.63242">
        <ele>29</ele>
        <time>2011-12-18T12:26:39Z</time>
      </trkpt>
      <trkpt lat="47.26932" lon="-1.63247">
        <ele>30</ele>
        <time>2011-12-18T12:26:40Z</time>
      </trkpt>
      <trkpt lat="47.26936" lon="-1.63249">
        <ele>32</ele>
        <time>2011-12-18T12:26:42Z</time>
      </trkpt>
      <trkpt lat="47.26939" lon="-1.63251">
        <ele>32</ele>
        <time>2011-12-18T12:26:46Z</time>
      </trkpt>
      <trkpt lat="47.26954" lon="-1.63264">
        <ele>32</ele>
        <time>2011-12-18T12:26:57Z</time>
      </trkpt>
      <trkpt lat="47.26955" lon="-1.63264">
        <ele>32</ele>
        <time>2011-12-18T12:26:58Z</time>
      </trkpt>
      <trkpt lat="47.26961" lon="-1.63269">
        <ele>32</ele>
        <time>2011-12-18T12:27:04Z</time>
      </trkpt>
      <trkpt lat="47.26964" lon="-1.63268">
        <ele>30</ele>
        <time>2011-12-18T12:27:06Z</time>
      </trkpt>
      <trkpt lat="47.26999" lon="-1.63278">
        <ele>27</ele>
        <time>2011-12-18T12:27:31Z</time>
      </trkpt>
      <trkpt lat="47.27005" lon="-1.63277">
        <ele>27</ele>
        <time>2011-12-18T12:27:33Z</time>
      </trkpt>
      <trkpt lat="47.27022" lon="-1.63278">
        <ele>28</ele>
        <time>2011-12-18T12:27:50Z</time>
      </trkpt>
      <trkpt lat="47.27028" lon="-1.63281">
        <ele>28</ele>
        <time>2011-12-18T12:27:51Z</time>
      </trkpt>
      <trkpt lat="47.27029" lon="-1.63282">
        <ele>28</ele>
        <time>2011-12-18T12:27:52Z</time>
      </trkpt>
      <trkpt lat="47.27031" lon="-1.63284">
        <ele>29</ele>
        <time>2011-12-18T12:27:53Z</time>
      </trkpt>
      <trkpt lat="47.27034" lon="-1.63288">
        <ele>29</ele>
        <time>2011-12-18T12:28:00Z</time>
      </trkpt>
      <trkpt lat="47.27036" lon="-1.63292">
        <ele>29</ele>
        <time>2011-12-18T12:28:01Z</time>
      </trkpt>
      <trkpt lat="47.27041" lon="-1.63393">
        <ele>32</ele>
        <time>2011-12-18T12:28:28Z</time>
      </trkpt>
      <trkpt lat="47.27048" lon="-1.63413">
        <ele>32</ele>
        <time>2011-12-18T12:28:33Z</time>
      </trkpt>
      <trkpt lat="47.27054" lon="-1.63419">
        <ele>33</ele>
        <time>2011-12-18T12:28:35Z</time>
      </trkpt>
      <trkpt lat="47.27074" lon="-1.6343">
        <ele>34</ele>
        <time>2011-12-18T12:28:42Z</time>
      </trkpt>
      <trkpt lat="47.27084" lon="-1.63446">
        <ele>34</ele>
        <time>2011-12-18T12:28:47Z</time>
      </trkpt>
      <trkpt lat="47.27085" lon="-1.6345">
        <ele>34</ele>
        <time>2011-12-18T12:28:48Z</time>
      </trkpt>
      <trkpt lat="47.27092" lon="-1.6355">
        <ele>39</ele>
        <time>2011-12-18T12:29:14Z</time>
      </trkpt>
      <trkpt lat="47.27079" lon="-1.6361">
        <ele>43</ele>
        <time>2011-12-18T12:29:29Z</time>
      </trkpt>
      <trkpt lat="47.27068" lon="-1.63669">
        <ele>46</ele>
        <time>2011-12-18T12:29:41Z</time>
      </trkpt>
      <trkpt lat="47.27067" lon="-1.63883">
        <ele>46</ele>
        <time>2011-12-18T12:30:13Z</time>
      </trkpt>
      <trkpt lat="47.27074" lon="-1.63903">
        <ele>46</ele>
        <time>2011-12-18T12:30:18Z</time>
      </trkpt>
      <trkpt lat="47.2708" lon="-1.63908">
        <ele>46</ele>
        <time>2011-12-18T12:30:23Z</time>
      </trkpt>
      <trkpt lat="47.27135" lon="-1.64005">
        <ele>46</ele>
        <time>2011-12-18T12:30:46Z</time>
      </trkpt>
      <trkpt lat="47.27247" lon="-1.64254">
        <ele>42</ele>
        <time>2011-12-18T12:31:26Z</time>
      </trkpt>
      <trkpt lat="47.27249" lon="-1.64257">
        <ele>41</ele>
        <time>2011-12-18T12:31:27Z</time>
      </trkpt>
      <trkpt lat="47.27329" lon="-1.64397">
        <ele>42</ele>
        <time>2011-12-18T12:32:16Z</time>
      </trkpt>
      <trkpt lat="47.2733" lon="-1.644">
        <ele>43</ele>
        <time>2011-12-18T12:32:21Z</time>
      </trkpt>
      <trkpt lat="47.27333" lon="-1.64405">
        <ele>43</ele>
        <time>2011-12-18T12:32:22Z</time>
      </trkpt>
      <trkpt lat="47.27335" lon="-1.64407">
        <ele>44</ele>
        <time>2011-12-18T12:32:23Z</time>
      </trkpt>
      <trkpt lat="47.27336" lon="-1.64408">
        <ele>44</ele>
        <time>2011-12-18T12:32:24Z</time>
      </trkpt>
      <trkpt lat="47.27338" lon="-1.64411">
        <ele>45</ele>
        <time>2011-12-18T12:32:29Z</time>
      </trkpt>
      <trkpt lat="47.27349" lon="-1.64423">
        <ele>46</ele>
        <time>2011-12-18T12:32:35Z</time>
      </trkpt>
      <trkpt lat="47.27352" lon="-1.64429">
        <ele>47</ele>
        <time>2011-12-18T12:32:36Z</time>
      </trkpt>
      <trkpt lat="47.27368" lon="-1.64449">
        <ele>48</ele>
        <time>2011-12-18T12:32:48Z</time>
      </trkpt>
      <trkpt lat="47.27371" lon="-1.64451">
        <ele>48</ele>
        <time>2011-12-18T12:32:53Z</time>
      </trkpt>
      <trkpt lat="47.27391" lon="-1.64474">
        <ele>48</ele>
        <time>2011-12-18T12:33:01Z</time>
      </trkpt>
      <trkpt lat="47.27394" lon="-1.64477">
        <ele>48</ele>
        <time>2011-12-18T12:33:03Z</time>
      </trkpt>
      <trkpt lat="47.27415" lon="-1.64492">
        <ele>46</ele>
        <time>2011-12-18T12:33:15Z</time>
      </trkpt>
      <trkpt lat="47.27416" lon="-1.64491">
        <ele>45</ele>
        <time>2011-12-18T12:33:17Z</time>
      </trkpt>
      <trkpt lat="47.27418" lon="-1.64492">
        <ele>45</ele>
        <time>2011-12-18T12:33:23Z</time>
      </trkpt>
      <trkpt lat="47.27415" lon="-1.64493">
        <ele>45</ele>
        <time>2011-12-18T12:33:26Z</time>
      </trkpt>
      <trkpt lat="47.27412" lon="-1.64493">
        <ele>45</ele>
        <time>2011-12-18T12:33:32Z</time>
      </trkpt>
      <trkpt lat="47.27411" lon="-1.64494">
        <ele>45</ele>
        <time>2011-12-18T12:33:47Z</time>
      </trkpt>
      <trkpt lat="47.27412" lon="-1.64496">
        <ele>45</ele>
        <time>2011-12-18T12:34:02Z</time>
      </trkpt>
      <trkpt lat="47.27411" lon="-1.64496">
        <ele>45</ele>
        <time>2011-12-18T12:34:04Z</time>
      </trkpt>
      <trkpt lat="47.27411" lon="-1.64499">
        <ele>45</ele>
        <time>2011-12-18T12:34:35Z</time>
      </trkpt>
      <trkpt lat="47.27412" lon="-1.645">
        <ele>45</ele>
        <time>2011-12-18T12:34:51Z</time>
      </trkpt>
      <trkpt lat="47.27413" lon="-1.645">
        <ele>45</ele>
        <time>2011-12-18T12:35:23Z</time>
      </trkpt>
      <trkpt lat="47.27415" lon="-1.645">
        <ele>45</ele>
        <time>2011-12-18T12:35:40Z</time>
      </trkpt>
      <trkpt lat="47.27417" lon="-1.645">
        <ele>45</ele>
        <time>2011-12-18T12:35:55Z</time>
      </trkpt>
      <trkpt lat="47.27418" lon="-1.64499">
        <ele>45</ele>
        <time>2011-12-18T12:36:03Z</time>
      </trkpt>
      <trkpt lat="47.27418" lon="-1.64497">
        <ele>45</ele>
        <time>2011-12-18T12:36:11Z</time>
      </trkpt>
      <trkpt lat="47.27416" lon="-1.64496">
        <ele>45</ele>
        <time>2011-12-18T12:36:19Z</time>
      </trkpt>
      <trkpt lat="47.27416" lon="-1.64497">
        <ele>46</ele>
        <time>2011-12-18T12:36:35Z</time>
      </trkpt>
      <trkpt lat="47.27415" lon="-1.64497">
        <ele>47</ele>
        <time>2011-12-18T12:36:45Z</time>
      </trkpt>
      <trkpt lat="47.27414" lon="-1.64497">
        <ele>48</ele>
        <time>2011-12-18T12:37:00Z</time>
      </trkpt>
      <trkpt lat="47.27412" lon="-1.64495">
        <ele>48</ele>
        <time>2011-12-18T12:37:03Z</time>
      </trkpt>
      <trkpt lat="47.27411" lon="-1.64495">
        <ele>48</ele>
        <time>2011-12-18T12:37:09Z</time>
      </trkpt>
      <trkpt lat="47.2741" lon="-1.64496">
        <ele>48</ele>
        <time>2011-12-18T12:37:16Z</time>
      </trkpt>
      <trkpt lat="47.27407" lon="-1.64497">
        <ele>48</ele>
        <time>2011-12-18T12:37:25Z</time>
      </trkpt>
      <trkpt lat="47.27405" lon="-1.64497">
        <ele>46</ele>
        <time>2011-12-18T12:37:27Z</time>
      </trkpt>
      <trkpt lat="47.27402" lon="-1.64497">
        <ele>46</ele>
        <time>2011-12-18T12:37:31Z</time>
      </trkpt>
      <trkpt lat="47.27395" lon="-1.645">
        <ele>45</ele>
        <time>2011-12-18T12:37:33Z</time>
      </trkpt>
      <trkpt lat="47.27363" lon="-1.64518">
        <ele>41</ele>
        <time>2011-12-18T12:37:44Z</time>
      </trkpt>
      <trkpt lat="47.27321" lon="-1.64533">
        <ele>40</ele>
        <time>2011-12-18T12:37:51Z</time>
      </trkpt>
      <trkpt lat="47.27217" lon="-1.64533">
        <ele>38</ele>
        <time>2011-12-18T12:38:26Z</time>
      </trkpt>
      <trkpt lat="47.27219" lon="-1.64533">
        <ele>38</ele>
        <time>2011-12-18T12:38:27Z</time>
      </trkpt>
      <trkpt lat="47.2722" lon="-1.64534">
        <ele>38</ele>
        <time>2011-12-18T12:38:34Z</time>
      </trkpt>
      <trkpt lat="47.27254" lon="-1.64534">
        <ele>38</ele>
        <time>2011-12-18T12:38:51Z</time>
      </trkpt>
      <trkpt lat="47.27257" lon="-1.64535">
        <ele>38</ele>
        <time>2011-12-18T12:38:57Z</time>
      </trkpt>
      <trkpt lat="47.27337" lon="-1.64529">
        <ele>38</ele>
        <time>2011-12-18T12:39:17Z</time>
      </trkpt>
      <trkpt lat="47.27391" lon="-1.645">
        <ele>39</ele>
        <time>2011-12-18T12:39:31Z</time>
      </trkpt>
      <trkpt lat="47.27398" lon="-1.64497">
        <ele>39</ele>
        <time>2011-12-18T12:39:36Z</time>
      </trkpt>
      <trkpt lat="47.27473" lon="-1.64486">
        <ele>43</ele>
        <time>2011-12-18T12:39:56Z</time>
      </trkpt>
      <trkpt lat="47.27528" lon="-1.64457">
        <ele>45</ele>
        <time>2011-12-18T12:40:11Z</time>
      </trkpt>
      <trkpt lat="47.27544" lon="-1.64453">
        <ele>46</ele>
        <time>2011-12-18T12:40:17Z</time>
      </trkpt>
      <trkpt lat="47.27546" lon="-1.64453">
        <ele>46</ele>
        <time>2011-12-18T12:40:18Z</time>
      </trkpt>
      <trkpt lat="47.27548" lon="-1.64455">
        <ele>46</ele>
        <time>2011-12-18T12:40:19Z</time>
      </trkpt>
      <trkpt lat="47.27561" lon="-1.64526">
        <ele>46</ele>
        <time>2011-12-18T12:40:32Z</time>
      </trkpt>
      <trkpt lat="47.27521" lon="-1.64818">
        <ele>49</ele>
        <time>2011-12-18T12:41:17Z</time>
      </trkpt>
      <trkpt lat="47.27551" lon="-1.65095">
        <ele>49</ele>
        <time>2011-12-18T12:41:57Z</time>
      </trkpt>
      <trkpt lat="47.27618" lon="-1.6525">
        <ele>53</ele>
        <time>2011-12-18T12:42:24Z</time>
      </trkpt>
      <trkpt lat="47.27627" lon="-1.6526">
        <ele>53</ele>
        <time>2011-12-18T12:42:25Z</time>
      </trkpt>
      <trkpt lat="47.27639" lon="-1.65313">
        <ele>53</ele>
        <time>2011-12-18T12:42:34Z</time>
      </trkpt>
      <trkpt lat="47.27652" lon="-1.65335">
        <ele>53</ele>
        <time>2011-12-18T12:42:39Z</time>
      </trkpt>
      <trkpt lat="47.27666" lon="-1.65345">
        <ele>51</ele>
        <time>2011-12-18T12:42:46Z</time>
      </trkpt>
      <trkpt lat="47.27675" lon="-1.65346">
        <ele>50</ele>
        <time>2011-12-18T12:42:47Z</time>
      </trkpt>
      <trkpt lat="47.27677" lon="-1.65348">
        <ele>49</ele>
        <time>2011-12-18T12:42:48Z</time>
      </trkpt>
      <trkpt lat="47.27688" lon="-1.65365">
        <ele>49</ele>
        <time>2011-12-18T12:42:55Z</time>
      </trkpt>
      <trkpt lat="47.27706" lon="-1.65423">
        <ele>49</ele>
        <time>2011-12-18T12:43:14Z</time>
      </trkpt>
      <trkpt lat="47.27729" lon="-1.65443">
        <ele>49</ele>
        <time>2011-12-18T12:43:22Z</time>
      </trkpt>
      <trkpt lat="47.27732" lon="-1.65444">
        <ele>49</ele>
        <time>2011-12-18T12:43:23Z</time>
      </trkpt>
      <trkpt lat="47.27756" lon="-1.65442">
        <ele>49</ele>
        <time>2011-12-18T12:43:30Z</time>
      </trkpt>
      <trkpt lat="47.27852" lon="-1.65462">
        <ele>48</ele>
        <time>2011-12-18T12:43:57Z</time>
      </trkpt>
      <trkpt lat="47.27869" lon="-1.65472">
        <ele>46</ele>
        <time>2011-12-18T12:44:04Z</time>
      </trkpt>
      <trkpt lat="47.27872" lon="-1.65472">
        <ele>46</ele>
        <time>2011-12-18T12:44:05Z</time>
      </trkpt>
      <trkpt lat="47.27877" lon="-1.65475">
        <ele>46</ele>
        <time>2011-12-18T12:44:10Z</time>
      </trkpt>
      <trkpt lat="47.27895" lon="-1.65499">
        <ele>46</ele>
        <time>2011-12-18T12:44:18Z</time>
      </trkpt>
      <trkpt lat="47.27898" lon="-1.65504">
        <ele>47</ele>
        <time>2011-12-18T12:44:24Z</time>
      </trkpt>
      <trkpt lat="47.27901" lon="-1.65517">
        <ele>48</ele>
        <time>2011-12-18T12:44:25Z</time>
      </trkpt>
      <trkpt lat="47.27901" lon="-1.6552">
        <ele>49</ele>
        <time>2011-12-18T12:44:26Z</time>
      </trkpt>
      <trkpt lat="47.27924" lon="-1.66003">
        <ele>58</ele>
        <time>2011-12-18T12:45:58Z</time>
      </trkpt>
      <trkpt lat="47.27939" lon="-1.66053">
        <ele>58</ele>
        <time>2011-12-18T12:46:07Z</time>
      </trkpt>
      <trkpt lat="47.27953" lon="-1.66078">
        <ele>58</ele>
        <time>2011-12-18T12:46:12Z</time>
      </trkpt>
      <trkpt lat="47.27962" lon="-1.66083">
        <ele>58</ele>
        <time>2011-12-18T12:46:14Z</time>
      </trkpt>
      <trkpt lat="47.28116" lon="-1.66084">
        <ele>51</ele>
        <time>2011-12-18T12:46:46Z</time>
      </trkpt>
      <trkpt lat="47.2812" lon="-1.66088">
        <ele>51</ele>
        <time>2011-12-18T12:46:47Z</time>
      </trkpt>
      <trkpt lat="47.28123" lon="-1.66092">
        <ele>51</ele>
        <time>2011-12-18T12:46:48Z</time>
      </trkpt>
      <trkpt lat="47.28179" lon="-1.6636">
        <ele>51</ele>
        <time>2011-12-18T12:47:28Z</time>
      </trkpt>
      <trkpt lat="47.28177" lon="-1.66367">
        <ele>51</ele>
        <time>2011-12-18T12:47:30Z</time>
      </trkpt>
      <trkpt lat="47.28159" lon="-1.66387">
        <ele>51</ele>
        <time>2011-12-18T12:47:36Z</time>
      </trkpt>
      <trkpt lat="47.27993" lon="-1.66495">
        <ele>55</ele>
        <time>2011-12-18T12:48:11Z</time>
      </trkpt>
      <trkpt lat="47.27991" lon="-1.66498">
        <ele>55</ele>
        <time>2011-12-18T12:48:12Z</time>
      </trkpt>
      <trkpt lat="47.27992" lon="-1.66506">
        <ele>55</ele>
        <time>2011-12-18T12:48:17Z</time>
      </trkpt>
      <trkpt lat="47.28084" lon="-1.66624">
        <ele>55</ele>
        <time>2011-12-18T12:48:39Z</time>
      </trkpt>
      <trkpt lat="47.28087" lon="-1.66636">
        <ele>55</ele>
        <time>2011-12-18T12:48:41Z</time>
      </trkpt>
      <trkpt lat="47.27914" lon="-1.67423">
        <ele>58</ele>
        <time>2011-12-18T12:50:34Z</time>
      </trkpt>
      <trkpt lat="47.27926" lon="-1.67434">
        <ele>57</ele>
        <time>2011-12-18T12:50:35Z</time>
      </trkpt>
      <trkpt lat="47.27999" lon="-1.67465">
        <ele>54</ele>
        <time>2011-12-18T12:50:49Z</time>
      </trkpt>
      <trkpt lat="47.28007" lon="-1.67473">
        <ele>54</ele>
        <time>2011-12-18T12:50:51Z</time>
      </trkpt>
      <trkpt lat="47.2801" lon="-1.67479">
        <ele>54</ele>
        <time>2011-12-18T12:50:52Z</time>
      </trkpt>
      <trkpt lat="47.28012" lon="-1.67493">
        <ele>53</ele>
        <time>2011-12-18T12:50:57Z</time>
      </trkpt>
      <trkpt lat="47.2799" lon="-1.67717">
        <ele>48</ele>
        <time>2011-12-18T12:51:24Z</time>
      </trkpt>
      <trkpt lat="47.27974" lon="-1.67743">
        <ele>48</ele>
        <time>2011-12-18T12:51:25Z</time>
      </trkpt>
      <trkpt lat="47.27968" lon="-1.67745">
        <ele>47</ele>
        <time>2011-12-18T12:51:26Z</time>
      </trkpt>
      <trkpt lat="47.27943" lon="-1.67746">
        <ele>46</ele>
        <time>2011-12-18T12:51:33Z</time>
      </trkpt>
      <trkpt lat="47.27876" lon="-1.67772">
        <ele>46</ele>
        <time>2011-12-18T12:51:43Z</time>
      </trkpt>
      <trkpt lat="47.27854" lon="-1.67772">
        <ele>46</ele>
        <time>2011-12-18T12:51:48Z</time>
      </trkpt>
      <trkpt lat="47.27851" lon="-1.67769">
        <ele>46</ele>
        <time>2011-12-18T12:51:49Z</time>
      </trkpt>
      <trkpt lat="47.27848" lon="-1.67767">
        <ele>46</ele>
        <time>2011-12-18T12:51:50Z</time>
      </trkpt>
      <trkpt lat="47.27838" lon="-1.67768">
        <ele>46</ele>
        <time>2011-12-18T12:51:52Z</time>
      </trkpt>
      <trkpt lat="47.2781" lon="-1.67781">
        <ele>46</ele>
        <time>2011-12-18T12:51:58Z</time>
      </trkpt>
      <trkpt lat="47.27632" lon="-1.68003">
        <ele>57</ele>
        <time>2011-12-18T12:52:42Z</time>
      </trkpt>
      <trkpt lat="47.27625" lon="-1.68017">
        <ele>57</ele>
        <time>2011-12-18T12:52:47Z</time>
      </trkpt>
      <trkpt lat="47.27622" lon="-1.68016">
        <ele>57</ele>
        <time>2011-12-18T12:52:49Z</time>
      </trkpt>
      <trkpt lat="47.27616" lon="-1.68014">
        <ele>57</ele>
        <time>2011-12-18T12:52:54Z</time>
      </trkpt>
      <trkpt lat="47.27566" lon="-1.68016">
        <ele>57</ele>
        <time>2011-12-18T12:53:04Z</time>
      </trkpt>
      <trkpt lat="47.2756" lon="-1.68021">
        <ele>57</ele>
        <time>2011-12-18T12:53:09Z</time>
      </trkpt>
      <trkpt lat="47.27552" lon="-1.68037">
        <ele>57</ele>
        <time>2011-12-18T12:53:10Z</time>
      </trkpt>
      <trkpt lat="47.27549" lon="-1.68039">
        <ele>57</ele>
        <time>2011-12-18T12:53:11Z</time>
      </trkpt>
      <trkpt lat="47.27542" lon="-1.68042">
        <ele>57</ele>
        <time>2011-12-18T12:53:16Z</time>
      </trkpt>
      <trkpt lat="47.27533" lon="-1.68054">
        <ele>57</ele>
        <time>2011-12-18T12:53:17Z</time>
      </trkpt>
      <trkpt lat="47.27533" lon="-1.68059">
        <ele>56</ele>
        <time>2011-12-18T12:53:18Z</time>
      </trkpt>
      <trkpt lat="47.27513" lon="-1.6814">
        <ele>56</ele>
        <time>2011-12-18T12:53:31Z</time>
      </trkpt>
      <trkpt lat="47.27502" lon="-1.68334">
        <ele>53</ele>
        <time>2011-12-18T12:54:01Z</time>
      </trkpt>
      <trkpt lat="47.27494" lon="-1.68356">
        <ele>53</ele>
        <time>2011-12-18T12:54:08Z</time>
      </trkpt>
      <trkpt lat="47.27492" lon="-1.6836">
        <ele>52</ele>
        <time>2011-12-18T12:54:15Z</time>
      </trkpt>
      <trkpt lat="47.27492" lon="-1.68362">
        <ele>52</ele>
        <time>2011-12-18T12:54:16Z</time>
      </trkpt>
      <trkpt lat="47.27493" lon="-1.68365">
        <ele>52</ele>
        <time>2011-12-18T12:54:24Z</time>
      </trkpt>
      <trkpt lat="47.27492" lon="-1.68368">
        <ele>52</ele>
        <time>2011-12-18T12:54:32Z</time>
      </trkpt>
      <trkpt lat="47.2749" lon="-1.68371">
        <ele>52</ele>
        <time>2011-12-18T12:54:33Z</time>
      </trkpt>
      <trkpt lat="47.27487" lon="-1.68374">
        <ele>52</ele>
        <time>2011-12-18T12:54:41Z</time>
      </trkpt>
      <trkpt lat="47.27484" lon="-1.68377">
        <ele>52</ele>
        <time>2011-12-18T12:54:48Z</time>
      </trkpt>
      <trkpt lat="47.27483" lon="-1.68379">
        <ele>51</ele>
        <time>2011-12-18T12:54:55Z</time>
      </trkpt>
      <trkpt lat="47.27481" lon="-1.68385">
        <ele>51</ele>
        <time>2011-12-18T12:55:04Z</time>
      </trkpt>
      <trkpt lat="47.2748" lon="-1.68386">
        <ele>51</ele>
        <time>2011-12-18T12:55:12Z</time>
      </trkpt>
      <trkpt lat="47.27477" lon="-1.68392">
        <ele>51</ele>
        <time>2011-12-18T12:55:13Z</time>
      </trkpt>
      <trkpt lat="47.27473" lon="-1.68395">
        <ele>51</ele>
        <time>2011-12-18T12:55:19Z</time>
      </trkpt>
      <trkpt lat="47.27468" lon="-1.68404">
        <ele>51</ele>
        <time>2011-12-18T12:55:21Z</time>
      </trkpt>
      <trkpt lat="47.27464" lon="-1.68419">
        <ele>51</ele>
        <time>2011-12-18T12:55:28Z</time>
      </trkpt>
      <trkpt lat="47.27465" lon="-1.68424">
        <ele>51</ele>
        <time>2011-12-18T12:55:31Z</time>
      </trkpt>
      <trkpt lat="47.27466" lon="-1.68426">
        <ele>51</ele>
        <time>2011-12-18T12:55:37Z</time>
      </trkpt>
      <trkpt lat="47.27471" lon="-1.68441">
        <ele>50</ele>
        <time>2011-12-18T12:55:45Z</time>
      </trkpt>
      <trkpt lat="47.27469" lon="-1.68454">
        <ele>50</ele>
        <time>2011-12-18T12:55:45Z</time>
      </trkpt>
      <trkpt lat="47.2747" lon="-1.68456">
        <ele>49</ele>
        <time>2011-12-18T12:55:46Z</time>
      </trkpt>
      <trkpt lat="47.27471" lon="-1.68461">
        <ele>49</ele>
        <time>2011-12-18T12:55:47Z</time>
      </trkpt>
      <trkpt lat="47.27463" lon="-1.68488">
        <ele>47</ele>
        <time>2011-12-18T12:55:54Z</time>
      </trkpt>
      <trkpt lat="47.27454" lon="-1.685">
        <ele>47</ele>
        <time>2011-12-18T12:56:01Z</time>
      </trkpt>
      <trkpt lat="47.27453" lon="-1.68502">
        <ele>46</ele>
        <time>2011-12-18T12:56:08Z</time>
      </trkpt>
      <trkpt lat="47.27454" lon="-1.68504">
        <ele>42</ele>
        <time>2011-12-18T12:56:17Z</time>
      </trkpt>
      <trkpt lat="47.27453" lon="-1.68504">
        <ele>42</ele>
        <time>2011-12-18T12:56:19Z</time>
      </trkpt>
      <trkpt lat="47.2745" lon="-1.68509">
        <ele>41</ele>
        <time>2011-12-18T12:56:26Z</time>
      </trkpt>
      <trkpt lat="47.27445" lon="-1.68513">
        <ele>41</ele>
        <time>2011-12-18T12:56:35Z</time>
      </trkpt>
      <trkpt lat="47.27445" lon="-1.68521">
        <ele>39</ele>
        <time>2011-12-18T12:56:43Z</time>
      </trkpt>
      <trkpt lat="47.27446" lon="-1.68523">
        <ele>38</ele>
        <time>2011-12-18T12:56:44Z</time>
      </trkpt>
      <trkpt lat="47.27446" lon="-1.68527">
        <ele>37</ele>
        <time>2011-12-18T12:56:52Z</time>
      </trkpt>
      <trkpt lat="47.27445" lon="-1.68533">
        <ele>37</ele>
        <time>2011-12-18T12:57:00Z</time>
      </trkpt>
      <trkpt lat="47.27442" lon="-1.68534">
        <ele>40</ele>
        <time>2011-12-18T12:57:08Z</time>
      </trkpt>
      <trkpt lat="47.27438" lon="-1.6854">
        <ele>44</ele>
        <time>2011-12-18T12:57:17Z</time>
      </trkpt>
      <trkpt lat="47.27437" lon="-1.68542">
        <ele>44</ele>
        <time>2011-12-18T12:57:20Z</time>
      </trkpt>
      <trkpt lat="47.27433" lon="-1.68549">
        <ele>44</ele>
        <time>2011-12-18T12:57:26Z</time>
      </trkpt>
      <trkpt lat="47.27432" lon="-1.68556">
        <ele>44</ele>
        <time>2011-12-18T12:57:34Z</time>
      </trkpt>
      <trkpt lat="47.27427" lon="-1.68562">
        <ele>44</ele>
        <time>2011-12-18T12:57:35Z</time>
      </trkpt>
      <trkpt lat="47.27426" lon="-1.68563">
        <ele>44</ele>
        <time>2011-12-18T12:57:36Z</time>
      </trkpt>
      <trkpt lat="47.27425" lon="-1.68565">
        <ele>44</ele>
        <time>2011-12-18T12:57:37Z</time>
      </trkpt>
      <trkpt lat="47.27424" lon="-1.68567">
        <ele>44</ele>
        <time>2011-12-18T12:57:42Z</time>
      </trkpt>
      <trkpt lat="47.27418" lon="-1.6857">
        <ele>44</ele>
        <time>2011-12-18T12:57:44Z</time>
      </trkpt>
      <trkpt lat="47.27417" lon="-1.68569">
        <ele>44</ele>
        <time>2011-12-18T12:57:45Z</time>
      </trkpt>
      <trkpt lat="47.27409" lon="-1.68575">
        <ele>43</ele>
        <time>2011-12-18T12:57:51Z</time>
      </trkpt>
      <trkpt lat="47.27407" lon="-1.68577">
        <ele>41</ele>
        <time>2011-12-18T12:57:53Z</time>
      </trkpt>
      <trkpt lat="47.27402" lon="-1.68588">
        <ele>41</ele>
        <time>2011-12-18T12:57:59Z</time>
      </trkpt>
      <trkpt lat="47.27391" lon="-1.68599">
        <ele>41</ele>
        <time>2011-12-18T12:58:08Z</time>
      </trkpt>
      <trkpt lat="47.27369" lon="-1.68628">
        <ele>41</ele>
        <time>2011-12-18T12:58:28Z</time>
      </trkpt>
      <trkpt lat="47.27368" lon="-1.6863">
        <ele>41</ele>
        <time>2011-12-18T12:58:29Z</time>
      </trkpt>
      <trkpt lat="47.27325" lon="-1.68683">
        <ele>46</ele>
        <time>2011-12-18T12:58:57Z</time>
      </trkpt>
      <trkpt lat="47.27322" lon="-1.6869">
        <ele>46</ele>
        <time>2011-12-18T12:59:06Z</time>
      </trkpt>
      <trkpt lat="47.2732" lon="-1.68693">
        <ele>46</ele>
        <time>2011-12-18T12:59:11Z</time>
      </trkpt>
      <trkpt lat="47.27292" lon="-1.68707">
        <ele>46</ele>
        <time>2011-12-18T12:59:36Z</time>
      </trkpt>
      <trkpt lat="47.27218" lon="-1.68786">
        <ele>53</ele>
        <time>2011-12-18T13:00:21Z</time>
      </trkpt>
      <trkpt lat="47.27213" lon="-1.68795">
        <ele>54</ele>
        <time>2011-12-18T13:00:26Z</time>
      </trkpt>
      <trkpt lat="47.27211" lon="-1.68799">
        <ele>56</ele>
        <time>2011-12-18T13:00:28Z</time>
      </trkpt>
      <trkpt lat="47.27201" lon="-1.68813">
        <ele>56</ele>
        <time>2011-12-18T13:00:35Z</time>
      </trkpt>
      <trkpt lat="47.27194" lon="-1.6882">
        <ele>57</ele>
        <time>2011-12-18T13:00:41Z</time>
      </trkpt>
      <trkpt lat="47.2719" lon="-1.68826">
        <ele>57</ele>
        <time>2011-12-18T13:00:48Z</time>
      </trkpt>
      <trkpt lat="47.27185" lon="-1.68831">
        <ele>57</ele>
        <time>2011-12-18T13:00:49Z</time>
      </trkpt>
      <trkpt lat="47.27172" lon="-1.68864">
        <ele>57</ele>
        <time>2011-12-18T13:01:10Z</time>
      </trkpt>
      <trkpt lat="47.27172" lon="-1.68866">
        <ele>57</ele>
        <time>2011-12-18T13:01:11Z</time>
      </trkpt>
      <trkpt lat="47.27173" lon="-1.68866">
        <ele>57</ele>
        <time>2011-12-18T13:01:17Z</time>
      </trkpt>
      <trkpt lat="47.27176" lon="-1.6887">
        <ele>57</ele>
        <time>2011-12-18T13:01:27Z</time>
      </trkpt>
      <trkpt lat="47.27176" lon="-1.68873">
        <ele>57</ele>
        <time>2011-12-18T13:01:36Z</time>
      </trkpt>
      <trkpt lat="47.27179" lon="-1.68879">
        <ele>57</ele>
        <time>2011-12-18T13:01:52Z</time>
      </trkpt>
      <trkpt lat="47.27182" lon="-1.68881">
        <ele>57</ele>
        <time>2011-12-18T13:01:54Z</time>
      </trkpt>
      <trkpt lat="47.27424" lon="-1.69021">
        <ele>55</ele>
        <time>2011-12-18T13:03:18Z</time>
      </trkpt>
      <trkpt lat="47.27428" lon="-1.69022">
        <ele>55</ele>
        <time>2011-12-18T13:03:23Z</time>
      </trkpt>
      <trkpt lat="47.27428" lon="-1.69025">
        <ele>55</ele>
        <time>2011-12-18T13:03:24Z</time>
      </trkpt>
      <trkpt lat="47.27426" lon="-1.69025">
        <ele>55</ele>
        <time>2011-12-18T13:03:25Z</time>
      </trkpt>
      <trkpt lat="47.2742" lon="-1.69023">
        <ele>55</ele>
        <time>2011-12-18T13:03:31Z</time>
      </trkpt>
      <trkpt lat="47.27345" lon="-1.6905">
        <ele>55</ele>
        <time>2011-12-18T13:03:47Z</time>
      </trkpt>
      <trkpt lat="47.27318" lon="-1.69072">
        <ele>55</ele>
        <time>2011-12-18T13:03:54Z</time>
      </trkpt>
      <trkpt lat="47.27264" lon="-1.69202">
        <ele>55</ele>
        <time>2011-12-18T13:04:16Z</time>
      </trkpt>
      <trkpt lat="47.27241" lon="-1.6932">
        <ele>58</ele>
        <time>2011-12-18T13:04:37Z</time>
      </trkpt>
      <trkpt lat="47.27239" lon="-1.69323">
        <ele>58</ele>
        <time>2011-12-18T13:04:38Z</time>
      </trkpt>
      <trkpt lat="47.27231" lon="-1.69328">
        <ele>58</ele>
        <time>2011-12-18T13:04:44Z</time>
      </trkpt>
      <trkpt lat="47.2722" lon="-1.69339">
        <ele>58</ele>
        <time>2011-12-18T13:04:45Z</time>
      </trkpt>
      <trkpt lat="47.27219" lon="-1.69343">
        <ele>58</ele>
        <time>2011-12-18T13:04:46Z</time>
      </trkpt>
      <trkpt lat="47.27219" lon="-1.69351">
        <ele>58</ele>
        <time>2011-12-18T13:04:52Z</time>
      </trkpt>
      <trkpt lat="47.27306" lon="-1.69596">
        <ele>58</ele>
        <time>2011-12-18T13:05:29Z</time>
      </trkpt>
      <trkpt lat="47.27318" lon="-1.69611">
        <ele>58</ele>
        <time>2011-12-18T13:05:36Z</time>
      </trkpt>
      <trkpt lat="47.27325" lon="-1.6963">
        <ele>58</ele>
        <time>2011-12-18T13:05:37Z</time>
      </trkpt>
      <trkpt lat="47.27322" lon="-1.69633">
        <ele>58</ele>
        <time>2011-12-18T13:05:38Z</time>
      </trkpt>
      <trkpt lat="47.27017" lon="-1.69794">
        <ele>58</ele>
        <time>2011-12-18T13:06:46Z</time>
      </trkpt>
      <trkpt lat="47.27007" lon="-1.69798">
        <ele>58</ele>
        <time>2011-12-18T13:06:47Z</time>
      </trkpt>
      <trkpt lat="47.27005" lon="-1.69797">
        <ele>58</ele>
        <time>2011-12-18T13:06:48Z</time>
      </trkpt>
      <trkpt lat="47.26986" lon="-1.69737">
        <ele>58</ele>
        <time>2011-12-18T13:07:08Z</time>
      </trkpt>
      <trkpt lat="47.26986" lon="-1.69735">
        <ele>58</ele>
        <time>2011-12-18T13:07:10Z</time>
      </trkpt>
      <trkpt lat="47.26981" lon="-1.69735">
        <ele>58</ele>
        <time>2011-12-18T13:07:17Z</time>
      </trkpt>
      <trkpt lat="47.26963" lon="-1.69746">
        <ele>58</ele>
        <time>2011-12-18T13:07:18Z</time>
      </trkpt>
      <trkpt lat="47.26961" lon="-1.69749">
        <ele>58</ele>
        <time>2011-12-18T13:07:19Z</time>
      </trkpt>
      <trkpt lat="47.2696" lon="-1.69753">
        <ele>58</ele>
        <time>2011-12-18T13:07:25Z</time>
      </trkpt>
      <trkpt lat="47.26963" lon="-1.69778">
        <ele>58</ele>
        <time>2011-12-18T13:07:26Z</time>
      </trkpt>
      <trkpt lat="47.26922" lon="-1.70036">
        <ele>60</ele>
        <time>2011-12-18T13:08:02Z</time>
      </trkpt>
      <trkpt lat="47.26901" lon="-1.70296">
        <ele>62</ele>
        <time>2011-12-18T13:08:38Z</time>
      </trkpt>
      <trkpt lat="47.26899" lon="-1.70301">
        <ele>62</ele>
        <time>2011-12-18T13:08:39Z</time>
      </trkpt>
      <trkpt lat="47.26897" lon="-1.70304">
        <ele>62</ele>
        <time>2011-12-18T13:08:40Z</time>
      </trkpt>
      <trkpt lat="47.26601" lon="-1.70375">
        <ele>59</ele>
        <time>2011-12-18T13:09:35Z</time>
      </trkpt>
      <trkpt lat="47.26438" lon="-1.70463">
        <ele>53</ele>
        <time>2011-12-18T13:10:04Z</time>
      </trkpt>
      <trkpt lat="47.26389" lon="-1.70474">
        <ele>53</ele>
        <time>2011-12-18T13:10:13Z</time>
      </trkpt>
      <trkpt lat="47.26361" lon="-1.70477">
        <ele>53</ele>
        <time>2011-12-18T13:10:19Z</time>
      </trkpt>
      <trkpt lat="47.26358" lon="-1.70474">
        <ele>53</ele>
        <time>2011-12-18T13:10:20Z</time>
      </trkpt>
      <trkpt lat="47.26291" lon="-1.70344">
        <ele>53</ele>
        <time>2011-12-18T13:10:43Z</time>
      </trkpt>
      <trkpt lat="47.2629" lon="-1.70333">
        <ele>53</ele>
        <time>2011-12-18T13:10:48Z</time>
      </trkpt>
      <trkpt lat="47.2635" lon="-1.70271">
        <ele>53</ele>
        <time>2011-12-18T13:11:04Z</time>
      </trkpt>
      <trkpt lat="47.26351" lon="-1.70268">
        <ele>53</ele>
        <time>2011-12-18T13:11:05Z</time>
      </trkpt>
      <trkpt lat="47.26352" lon="-1.70265">
        <ele>53</ele>
        <time>2011-12-18T13:11:06Z</time>
      </trkpt>
      <trkpt lat="47.26351" lon="-1.7026">
        <ele>53</ele>
        <time>2011-12-18T13:11:12Z</time>
      </trkpt>
      <trkpt lat="47.26341" lon="-1.70262">
        <ele>53</ele>
        <time>2011-12-18T13:11:13Z</time>
      </trkpt>
      <trkpt lat="47.26279" lon="-1.7031">
        <ele>53</ele>
        <time>2011-12-18T13:11:34Z</time>
      </trkpt>
      <trkpt lat="47.26277" lon="-1.70314">
        <ele>53</ele>
        <time>2011-12-18T13:11:36Z</time>
      </trkpt>
      <trkpt lat="47.26276" lon="-1.70318">
        <ele>53</ele>
        <time>2011-12-18T13:11:42Z</time>
      </trkpt>
      <trkpt lat="47.26274" lon="-1.70318">
        <ele>53</ele>
        <time>2011-12-18T13:11:51Z</time>
      </trkpt>
      <trkpt lat="47.26271" lon="-1.70321">
        <ele>53</ele>
        <time>2011-12-18T13:11:52Z</time>
      </trkpt>
      <trkpt lat="47.26268" lon="-1.70323">
        <ele>53</ele>
        <time>2011-12-18T13:12:00Z</time>
      </trkpt>
      <trkpt lat="47.26266" lon="-1.70322">
        <ele>53</ele>
        <time>2011-12-18T13:12:08Z</time>
      </trkpt>
      <trkpt lat="47.26228" lon="-1.70351">
        <ele>53</ele>
        <time>2011-12-18T13:12:24Z</time>
      </trkpt>
      <trkpt lat="47.26223" lon="-1.70353">
        <ele>53</ele>
        <time>2011-12-18T13:12:30Z</time>
      </trkpt>
      <trkpt lat="47.26219" lon="-1.70356">
        <ele>53</ele>
        <time>2011-12-18T13:12:31Z</time>
      </trkpt>
      <trkpt lat="47.2622" lon="-1.7036">
        <ele>53</ele>
        <time>2011-12-18T13:12:33Z</time>
      </trkpt>
      <trkpt lat="47.2622" lon="-1.70379">
        <ele>53</ele>
        <time>2011-12-18T13:12:40Z</time>
      </trkpt>
      <trkpt lat="47.26284" lon="-1.70509">
        <ele>53</ele>
        <time>2011-12-18T13:13:12Z</time>
      </trkpt>
      <trkpt lat="47.26328" lon="-1.70748">
        <ele>53</ele>
        <time>2011-12-18T13:13:40Z</time>
      </trkpt>
      <trkpt lat="47.26205" lon="-1.71455">
        <ele>64</ele>
        <time>2011-12-18T13:15:57Z</time>
      </trkpt>
      <trkpt lat="47.26129" lon="-1.71569">
        <ele>69</ele>
        <time>2011-12-18T13:16:28Z</time>
      </trkpt>
      <trkpt lat="47.26125" lon="-1.71587">
        <ele>69</ele>
        <time>2011-12-18T13:16:34Z</time>
      </trkpt>
      <trkpt lat="47.26127" lon="-1.71616">
        <ele>69</ele>
        <time>2011-12-18T13:16:35Z</time>
      </trkpt>
      <trkpt lat="47.26179" lon="-1.71761">
        <ele>69</ele>
        <time>2011-12-18T13:17:05Z</time>
      </trkpt>
      <trkpt lat="47.26171" lon="-1.71771">
        <ele>69</ele>
        <time>2011-12-18T13:17:13Z</time>
      </trkpt>
      <trkpt lat="47.26149" lon="-1.71781">
        <ele>69</ele>
        <time>2011-12-18T13:17:21Z</time>
      </trkpt>
      <trkpt lat="47.26146" lon="-1.71787">
        <ele>69</ele>
        <time>2011-12-18T13:17:26Z</time>
      </trkpt>
      <trkpt lat="47.26172" lon="-1.71882">
        <ele>69</ele>
        <time>2011-12-18T13:17:41Z</time>
      </trkpt>
      <trkpt lat="47.26201" lon="-1.7192">
        <ele>69</ele>
        <time>2011-12-18T13:17:51Z</time>
      </trkpt>
      <trkpt lat="47.26267" lon="-1.72089">
        <ele>74</ele>
        <time>2011-12-18T13:18:21Z</time>
      </trkpt>
      <trkpt lat="47.26317" lon="-1.72154">
        <ele>75</ele>
        <time>2011-12-18T13:18:34Z</time>
      </trkpt>
      <trkpt lat="47.26401" lon="-1.72215">
        <ele>72</ele>
        <time>2011-12-18T13:18:55Z</time>
      </trkpt>
      <trkpt lat="47.26426" lon="-1.72253">
        <ele>72</ele>
        <time>2011-12-18T13:19:05Z</time>
      </trkpt>
      <trkpt lat="47.26434" lon="-1.72333">
        <ele>72</ele>
        <time>2011-12-18T13:19:19Z</time>
      </trkpt>
      <trkpt lat="47.26452" lon="-1.72428">
        <ele>72</ele>
        <time>2011-12-18T13:19:37Z</time>
      </trkpt>
      <trkpt lat="47.26449" lon="-1.72438">
        <ele>72</ele>
        <time>2011-12-18T13:19:37Z</time>
      </trkpt>
      <trkpt lat="47.26439" lon="-1.72452">
        <ele>72</ele>
        <time>2011-12-18T13:19:44Z</time>
      </trkpt>
      <trkpt lat="47.2644" lon="-1.72466">
        <ele>72</ele>
        <time>2011-12-18T13:19:45Z</time>
      </trkpt>
      <trkpt lat="47.26517" lon="-1.72622">
        <ele>72</ele>
        <time>2011-12-18T13:20:15Z</time>
      </trkpt>
      <trkpt lat="47.26558" lon="-1.72768">
        <ele>72</ele>
        <time>2011-12-18T13:20:35Z</time>
      </trkpt>
      <trkpt lat="47.26558" lon="-1.72779">
        <ele>72</ele>
        <time>2011-12-18T13:20:39Z</time>
      </trkpt>
      <trkpt lat="47.2655" lon="-1.72795">
        <ele>72</ele>
        <time>2011-12-18T13:20:40Z</time>
      </trkpt>
      <trkpt lat="47.26424" lon="-1.72944">
        <ele>72</ele>
        <time>2011-12-18T13:21:10Z</time>
      </trkpt>
      <trkpt lat="47.26416" lon="-1.72964">
        <ele>72</ele>
        <time>2011-12-18T13:21:10Z</time>
      </trkpt>
      <trkpt lat="47.26417" lon="-1.72972">
        <ele>72</ele>
        <time>2011-12-18T13:21:12Z</time>
      </trkpt>
      <trkpt lat="47.26451" lon="-1.73064">
        <ele>70</ele>
        <time>2011-12-18T13:21:23Z</time>
      </trkpt>
      <trkpt lat="47.26474" lon="-1.73187">
        <ele>70</ele>
        <time>2011-12-18T13:21:48Z</time>
      </trkpt>
      <trkpt lat="47.2648" lon="-1.73197">
        <ele>70</ele>
        <time>2011-12-18T13:21:54Z</time>
      </trkpt>
      <trkpt lat="47.26491" lon="-1.73203">
        <ele>70</ele>
        <time>2011-12-18T13:21:55Z</time>
      </trkpt>
      <trkpt lat="47.26513" lon="-1.73205">
        <ele>70</ele>
        <time>2011-12-18T13:22:01Z</time>
      </trkpt>
      <trkpt lat="47.2652" lon="-1.73208">
        <ele>70</ele>
        <time>2011-12-18T13:22:04Z</time>
      </trkpt>
      <trkpt lat="47.26539" lon="-1.73229">
        <ele>70</ele>
        <time>2011-12-18T13:22:10Z</time>
      </trkpt>
      <trkpt lat="47.26545" lon="-1.73233">
        <ele>70</ele>
        <time>2011-12-18T13:22:12Z</time>
      </trkpt>
      <trkpt lat="47.2656" lon="-1.73235">
        <ele>70</ele>
        <time>2011-12-18T13:22:17Z</time>
      </trkpt>
      <trkpt lat="47.26563" lon="-1.73236">
        <ele>70</ele>
        <time>2011-12-18T13:22:18Z</time>
      </trkpt>
      <trkpt lat="47.26598" lon="-1.73287">
        <ele>70</ele>
        <time>2011-12-18T13:22:31Z</time>
      </trkpt>
      <trkpt lat="47.26645" lon="-1.7341">
        <ele>69</ele>
        <time>2011-12-18T13:22:45Z</time>
      </trkpt>
      <trkpt lat="47.26653" lon="-1.73468">
        <ele>68</ele>
        <time>2011-12-18T13:22:53Z</time>
      </trkpt>
      <trkpt lat="47.26632" lon="-1.73559">
        <ele>67</ele>
        <time>2011-12-18T13:23:04Z</time>
      </trkpt>
      <trkpt lat="47.26632" lon="-1.73569">
        <ele>67</ele>
        <time>2011-12-18T13:23:09Z</time>
      </trkpt>
      <trkpt lat="47.26641" lon="-1.73575">
        <ele>67</ele>
        <time>2011-12-18T13:23:10Z</time>
      </trkpt>
      <trkpt lat="47.26648" lon="-1.7357">
        <ele>67</ele>
        <time>2011-12-18T13:23:12Z</time>
      </trkpt>
      <trkpt lat="47.26654" lon="-1.73569">
        <ele>67</ele>
        <time>2011-12-18T13:23:16Z</time>
      </trkpt>
      <trkpt lat="47.26678" lon="-1.73582">
        <ele>67</ele>
        <time>2011-12-18T13:23:23Z</time>
      </trkpt>
      <trkpt lat="47.267" lon="-1.73606">
        <ele>67</ele>
        <time>2011-12-18T13:23:30Z</time>
      </trkpt>
      <trkpt lat="47.26726" lon="-1.73653">
        <ele>67</ele>
        <time>2011-12-18T13:23:37Z</time>
      </trkpt>
      <trkpt lat="47.26763" lon="-1.73697">
        <ele>67</ele>
        <time>2011-12-18T13:23:50Z</time>
      </trkpt>
      <trkpt lat="47.26785" lon="-1.73719">
        <ele>67</ele>
        <time>2011-12-18T13:23:57Z</time>
      </trkpt>
      <trkpt lat="47.26809" lon="-1.73776">
        <ele>67</ele>
        <time>2011-12-18T13:24:04Z</time>
      </trkpt>
      <trkpt lat="47.26855" lon="-1.74121">
        <ele>67</ele>
        <time>2011-12-18T13:25:03Z</time>
      </trkpt>
      <trkpt lat="47.26908" lon="-1.74279">
        <ele>67</ele>
        <time>2011-12-18T13:25:29Z</time>
      </trkpt>
      <trkpt lat="47.26908" lon="-1.7429">
        <ele>67</ele>
        <time>2011-12-18T13:25:34Z</time>
      </trkpt>
      <trkpt lat="47.26889" lon="-1.74326">
        <ele>67</ele>
        <time>2011-12-18T13:25:41Z</time>
      </trkpt>
      <trkpt lat="47.26882" lon="-1.74357">
        <ele>67</ele>
        <time>2011-12-18T13:25:43Z</time>
      </trkpt>
      <trkpt lat="47.26877" lon="-1.74498">
        <ele>64</ele>
        <time>2011-12-18T13:26:00Z</time>
      </trkpt>
      <trkpt lat="47.26903" lon="-1.74562">
        <ele>63</ele>
        <time>2011-12-18T13:26:13Z</time>
      </trkpt>
      <trkpt lat="47.26921" lon="-1.74775">
        <ele>59</ele>
        <time>2011-12-18T13:26:39Z</time>
      </trkpt>
      <trkpt lat="47.26912" lon="-1.74755">
        <ele>58</ele>
        <time>2011-12-18T13:26:46Z</time>
      </trkpt>
      <trkpt lat="47.26902" lon="-1.7475">
        <ele>58</ele>
        <time>2011-12-18T13:26:48Z</time>
      </trkpt>
      <trkpt lat="47.26781" lon="-1.74759">
        <ele>52</ele>
        <time>2011-12-18T13:27:05Z</time>
      </trkpt>
      <trkpt lat="47.26754" lon="-1.7477">
        <ele>50</ele>
        <time>2011-12-18T13:27:10Z</time>
      </trkpt>
      <trkpt lat="47.26604" lon="-1.749">
        <ele>42</ele>
        <time>2011-12-18T13:27:23Z</time>
      </trkpt>
      <trkpt lat="47.26598" lon="-1.74907">
        <ele>40</ele>
        <time>2011-12-18T13:27:24Z</time>
      </trkpt>
      <trkpt lat="47.2659" lon="-1.74923">
        <ele>38</ele>
        <time>2011-12-18T13:27:29Z</time>
      </trkpt>
      <trkpt lat="47.26591" lon="-1.74951">
        <ele>37</ele>
        <time>2011-12-18T13:27:29Z</time>
      </trkpt>
      <trkpt lat="47.26666" lon="-1.75259">
        <ele>26</ele>
        <time>2011-12-18T13:28:06Z</time>
      </trkpt>
      <trkpt lat="47.26669" lon="-1.7527">
        <ele>25</ele>
        <time>2011-12-18T13:28:06Z</time>
      </trkpt>
      <trkpt lat="47.26672" lon="-1.75271">
        <ele>24</ele>
        <time>2011-12-18T13:28:08Z</time>
      </trkpt>
      <trkpt lat="47.26674" lon="-1.75271">
        <ele>23</ele>
        <time>2011-12-18T13:28:09Z</time>
      </trkpt>
      <trkpt lat="47.26676" lon="-1.75269">
        <ele>23</ele>
        <time>2011-12-18T13:28:10Z</time>
      </trkpt>
      <trkpt lat="47.26691" lon="-1.7525">
        <ele>23</ele>
        <time>2011-12-18T13:28:20Z</time>
      </trkpt>
      <trkpt lat="47.26745" lon="-1.75222">
        <ele>24</ele>
        <time>2011-12-18T13:28:40Z</time>
      </trkpt>
      <trkpt lat="47.26763" lon="-1.75224">
        <ele>26</ele>
        <time>2011-12-18T13:28:51Z</time>
      </trkpt>
      <trkpt lat="47.2679" lon="-1.7524">
        <ele>29</ele>
        <time>2011-12-18T13:28:59Z</time>
      </trkpt>
      <trkpt lat="47.26803" lon="-1.75269">
        <ele>29</ele>
        <time>2011-12-18T13:29:07Z</time>
      </trkpt>
      <trkpt lat="47.26811" lon="-1.75279">
        <ele>29</ele>
        <time>2011-12-18T13:29:11Z</time>
      </trkpt>
      <trkpt lat="47.26832" lon="-1.75294">
        <ele>29</ele>
        <time>2011-12-18T13:29:14Z</time>
      </trkpt>
      <trkpt lat="47.2684" lon="-1.75296">
        <ele>29</ele>
        <time>2011-12-18T13:29:18Z</time>
      </trkpt>
      <trkpt lat="47.26873" lon="-1.75275">
        <ele>29</ele>
        <time>2011-12-18T13:29:46Z</time>
      </trkpt>
      <trkpt lat="47.26887" lon="-1.75265">
        <ele>29</ele>
        <time>2011-12-18T13:30:01Z</time>
      </trkpt>
      <trkpt lat="47.26897" lon="-1.75267">
        <ele>29</ele>
        <time>2011-12-18T13:30:09Z</time>
      </trkpt>
      <trkpt lat="47.269" lon="-1.75264">
        <ele>29</ele>
        <time>2011-12-18T13:30:10Z</time>
      </trkpt>
      <trkpt lat="47.26901" lon="-1.75265">
        <ele>29</ele>
        <time>2011-12-18T13:30:16Z</time>
      </trkpt>
      <trkpt lat="47.26902" lon="-1.75264">
        <ele>29</ele>
        <time>2011-12-18T13:30:16Z</time>
      </trkpt>
      <trkpt lat="47.26903" lon="-1.75263">
        <ele>30</ele>
        <time>2011-12-18T13:30:24Z</time>
      </trkpt>
      <trkpt lat="47.26905" lon="-1.75263">
        <ele>30</ele>
        <time>2011-12-18T13:30:44Z</time>
      </trkpt>
      <trkpt lat="47.26903" lon="-1.75265">
        <ele>30</ele>
        <time>2011-12-18T13:30:55Z</time>
      </trkpt>
      <trkpt lat="47.26899" lon="-1.75265">
        <ele>30</ele>
        <time>2011-12-18T13:31:00Z</time>
      </trkpt>
      <trkpt lat="47.26898" lon="-1.75267">
        <ele>30</ele>
        <time>2011-12-18T13:31:02Z</time>
      </trkpt>
      <trkpt lat="47.26891" lon="-1.75274">
        <ele>30</ele>
        <time>2011-12-18T13:31:14Z</time>
      </trkpt>
      <trkpt lat="47.26892" lon="-1.75281">
        <ele>30</ele>
        <time>2011-12-18T13:31:30Z</time>
      </trkpt>
      <trkpt lat="47.26892" lon="-1.75277">
        <ele>34</ele>
        <time>2011-12-18T13:31:54Z</time>
      </trkpt>
      <trkpt lat="47.2689" lon="-1.75275">
        <ele>34</ele>
        <time>2011-12-18T13:32:00Z</time>
      </trkpt>
      <trkpt lat="47.26891" lon="-1.75279">
        <ele>34</ele>
        <time>2011-12-18T13:32:06Z</time>
      </trkpt>
      <trkpt lat="47.26892" lon="-1.75282">
        <ele>34</ele>
        <time>2011-12-18T13:32:07Z</time>
      </trkpt>
      <trkpt lat="47.26891" lon="-1.75287">
        <ele>34</ele>
        <time>2011-12-18T13:32:15Z</time>
      </trkpt>
      <trkpt lat="47.26892" lon="-1.7529">
        <ele>34</ele>
        <time>2011-12-18T13:32:16Z</time>
      </trkpt>
      <trkpt lat="47.269" lon="-1.75292">
        <ele>33</ele>
        <time>2011-12-18T13:32:31Z</time>
      </trkpt>
      <trkpt lat="47.26907" lon="-1.75291">
        <ele>31</ele>
        <time>2011-12-18T13:32:38Z</time>
      </trkpt>
      <trkpt lat="47.26909" lon="-1.7529">
        <ele>31</ele>
        <time>2011-12-18T13:32:45Z</time>
      </trkpt>
      <trkpt lat="47.26912" lon="-1.75289">
        <ele>31</ele>
        <time>2011-12-18T13:32:45Z</time>
      </trkpt>
      <trkpt lat="47.26914" lon="-1.75287">
        <ele>31</ele>
        <time>2011-12-18T13:32:48Z</time>
      </trkpt>
      <trkpt lat="47.26923" lon="-1.75283">
        <ele>31</ele>
        <time>2011-12-18T13:32:59Z</time>
      </trkpt>
      <trkpt lat="47.26925" lon="-1.75283">
        <ele>31</ele>
        <time>2011-12-18T13:33:01Z</time>
      </trkpt>
      <trkpt lat="47.26927" lon="-1.75283">
        <ele>32</ele>
        <time>2011-12-18T13:33:08Z</time>
      </trkpt>
      <trkpt lat="47.26928" lon="-1.75284">
        <ele>33</ele>
        <time>2011-12-18T13:33:10Z</time>
      </trkpt>
      <trkpt lat="47.2693" lon="-1.75282">
        <ele>34</ele>
        <time>2011-12-18T13:33:15Z</time>
      </trkpt>
      <trkpt lat="47.26933" lon="-1.7528">
        <ele>34</ele>
        <time>2011-12-18T13:33:15Z</time>
      </trkpt>
      <trkpt lat="47.26936" lon="-1.75283">
        <ele>37</ele>
        <time>2011-12-18T13:33:23Z</time>
      </trkpt>
      <trkpt lat="47.26938" lon="-1.75286">
        <ele>40</ele>
        <time>2011-12-18T13:33:30Z</time>
      </trkpt>
      <trkpt lat="47.26939" lon="-1.75287">
        <ele>40</ele>
        <time>2011-12-18T13:33:31Z</time>
      </trkpt>
      <trkpt lat="47.26946" lon="-1.75293">
        <ele>40</ele>
        <time>2011-12-18T13:33:45Z</time>
      </trkpt>
      <trkpt lat="47.26949" lon="-1.75297">
        <ele>40</ele>
        <time>2011-12-18T13:33:53Z</time>
      </trkpt>
      <trkpt lat="47.26953" lon="-1.75298">
        <ele>40</ele>
        <time>2011-12-18T13:33:59Z</time>
      </trkpt>
      <trkpt lat="47.26959" lon="-1.75308">
        <ele>40</ele>
        <time>2011-12-18T13:34:08Z</time>
      </trkpt>
      <trkpt lat="47.2696" lon="-1.75311">
        <ele>40</ele>
        <time>2011-12-18T13:34:13Z</time>
      </trkpt>
      <trkpt lat="47.26965" lon="-1.75315">
        <ele>40</ele>
        <time>2011-12-18T13:34:19Z</time>
      </trkpt>
      <trkpt lat="47.26967" lon="-1.75318">
        <ele>40</ele>
        <time>2011-12-18T13:34:20Z</time>
      </trkpt>
      <trkpt lat="47.26968" lon="-1.75319">
        <ele>39</ele>
        <time>2011-12-18T13:34:21Z</time>
      </trkpt>
      <trkpt lat="47.26973" lon="-1.7532">
        <ele>39</ele>
        <time>2011-12-18T13:34:29Z</time>
      </trkpt>
      <trkpt lat="47.26975" lon="-1.75318">
        <ele>39</ele>
        <time>2011-12-18T13:34:34Z</time>
      </trkpt>
      <trkpt lat="47.26977" lon="-1.75318">
        <ele>39</ele>
        <time>2011-12-18T13:34:36Z</time>
      </trkpt>
      <trkpt lat="47.26978" lon="-1.75319">
        <ele>41</ele>
        <time>2011-12-18T13:34:42Z</time>
      </trkpt>
      <trkpt lat="47.26979" lon="-1.75323">
        <ele>41</ele>
        <time>2011-12-18T13:34:43Z</time>
      </trkpt>
      <trkpt lat="47.26983" lon="-1.75324">
        <ele>42</ele>
        <time>2011-12-18T13:34:49Z</time>
      </trkpt>
      <trkpt lat="47.2699" lon="-1.75331">
        <ele>43</ele>
        <time>2011-12-18T13:34:57Z</time>
      </trkpt>
      <trkpt lat="47.26991" lon="-1.75332">
        <ele>43</ele>
        <time>2011-12-18T13:34:59Z</time>
      </trkpt>
      <trkpt lat="47.26992" lon="-1.75337">
        <ele>43</ele>
        <time>2011-12-18T13:35:05Z</time>
      </trkpt>
      <trkpt lat="47.26991" lon="-1.75339">
        <ele>43</ele>
        <time>2011-12-18T13:35:06Z</time>
      </trkpt>
      <trkpt lat="47.26997" lon="-1.7534">
        <ele>44</ele>
        <time>2011-12-18T13:35:12Z</time>
      </trkpt>
      <trkpt lat="47.26999" lon="-1.75341">
        <ele>45</ele>
        <time>2011-12-18T13:35:14Z</time>
      </trkpt>
      <trkpt lat="47.27002" lon="-1.75341">
        <ele>46</ele>
        <time>2011-12-18T13:35:19Z</time>
      </trkpt>
      <trkpt lat="47.27004" lon="-1.75344">
        <ele>46</ele>
        <time>2011-12-18T13:35:20Z</time>
      </trkpt>
      <trkpt lat="47.27006" lon="-1.75345">
        <ele>48</ele>
        <time>2011-12-18T13:35:23Z</time>
      </trkpt>
      <trkpt lat="47.27008" lon="-1.75346">
        <ele>48</ele>
        <time>2011-12-18T13:35:27Z</time>
      </trkpt>
      <trkpt lat="47.2701" lon="-1.75349">
        <ele>48</ele>
        <time>2011-12-18T13:35:28Z</time>
      </trkpt>
      <trkpt lat="47.2701" lon="-1.7535">
        <ele>48</ele>
        <time>2011-12-18T13:35:30Z</time>
      </trkpt>
      <trkpt lat="47.27012" lon="-1.75351">
        <ele>48</ele>
        <time>2011-12-18T13:35:35Z</time>
      </trkpt>
      <trkpt lat="47.27013" lon="-1.75354">
        <ele>48</ele>
        <time>2011-12-18T13:35:35Z</time>
      </trkpt>
      <trkpt lat="47.27015" lon="-1.75357">
        <ele>48</ele>
        <time>2011-12-18T13:35:42Z</time>
      </trkpt>
      <trkpt lat="47.27016" lon="-1.75359">
        <ele>48</ele>
        <time>2011-12-18T13:35:43Z</time>
      </trkpt>
      <trkpt lat="47.27024" lon="-1.75363">
        <ele>48</ele>
        <time>2011-12-18T13:35:58Z</time>
      </trkpt>
      <trkpt lat="47.27027" lon="-1.75361">
        <ele>48</ele>
        <time>2011-12-18T13:35:58Z</time>
      </trkpt>
      <trkpt lat="47.27028" lon="-1.75361">
        <ele>48</ele>
        <time>2011-12-18T13:36:06Z</time>
      </trkpt>
      <trkpt lat="47.27029" lon="-1.75362">
        <ele>48</ele>
        <time>2011-12-18T13:36:07Z</time>
      </trkpt>
      <trkpt lat="47.2703" lon="-1.75364">
        <ele>48</ele>
        <time>2011-12-18T13:36:14Z</time>
      </trkpt>
      <trkpt lat="47.27032" lon="-1.75367">
        <ele>48</ele>
        <time>2011-12-18T13:36:15Z</time>
      </trkpt>
      <trkpt lat="47.27035" lon="-1.75369">
        <ele>48</ele>
        <time>2011-12-18T13:36:20Z</time>
      </trkpt>
      <trkpt lat="47.27035" lon="-1.75371">
        <ele>48</ele>
        <time>2011-12-18T13:36:21Z</time>
      </trkpt>
      <trkpt lat="47.27036" lon="-1.75372">
        <ele>48</ele>
        <time>2011-12-18T13:36:24Z</time>
      </trkpt>
      <trkpt lat="47.27038" lon="-1.75372">
        <ele>48</ele>
        <time>2011-12-18T13:36:29Z</time>
      </trkpt>
      <trkpt lat="47.27044" lon="-1.75372">
        <ele>48</ele>
        <time>2011-12-18T13:36:36Z</time>
      </trkpt>
      <trkpt lat="47.27048" lon="-1.75373">
        <ele>48</ele>
        <time>2011-12-18T13:36:37Z</time>
      </trkpt>
      <trkpt lat="47.27048" lon="-1.75376">
        <ele>48</ele>
        <time>2011-12-18T13:36:44Z</time>
      </trkpt>
      <trkpt lat="47.27051" lon="-1.75378">
        <ele>48</ele>
        <time>2011-12-18T13:36:52Z</time>
      </trkpt>
      <trkpt lat="47.27053" lon="-1.7538">
        <ele>48</ele>
        <time>2011-12-18T13:36:52Z</time>
      </trkpt>
      <trkpt lat="47.27056" lon="-1.75388">
        <ele>48</ele>
        <time>2011-12-18T13:37:07Z</time>
      </trkpt>
      <trkpt lat="47.27056" lon="-1.75391">
        <ele>48</ele>
        <time>2011-12-18T13:37:08Z</time>
      </trkpt>
      <trkpt lat="47.27056" lon="-1.75393">
        <ele>48</ele>
        <time>2011-12-18T13:37:14Z</time>
      </trkpt>
      <trkpt lat="47.27054" lon="-1.75398">
        <ele>48</ele>
        <time>2011-12-18T13:37:17Z</time>
      </trkpt>
      <trkpt lat="47.27052" lon="-1.75399">
        <ele>48</ele>
        <time>2011-12-18T13:37:22Z</time>
      </trkpt>
      <trkpt lat="47.27051" lon="-1.75401">
        <ele>48</ele>
        <time>2011-12-18T13:37:30Z</time>
      </trkpt>
      <trkpt lat="47.27048" lon="-1.75404">
        <ele>48</ele>
        <time>2011-12-18T13:37:39Z</time>
      </trkpt>
      <trkpt lat="47.27048" lon="-1.75407">
        <ele>48</ele>
        <time>2011-12-18T13:37:46Z</time>
      </trkpt>
      <trkpt lat="47.27047" lon="-1.7541">
        <ele>46</ele>
        <time>2011-12-18T13:37:54Z</time>
      </trkpt>
      <trkpt lat="47.27051" lon="-1.75409">
        <ele>45</ele>
        <time>2011-12-18T13:38:01Z</time>
      </trkpt>
      <trkpt lat="47.2705" lon="-1.7541">
        <ele>45</ele>
        <time>2011-12-18T13:38:10Z</time>
      </trkpt>
      <trkpt lat="47.27049" lon="-1.75413">
        <ele>45</ele>
        <time>2011-12-18T13:38:23Z</time>
      </trkpt>
      <trkpt lat="47.27043" lon="-1.75423">
        <ele>45</ele>
        <time>2011-12-18T13:38:31Z</time>
      </trkpt>
      <trkpt lat="47.27038" lon="-1.75445">
        <ele>47</ele>
        <time>2011-12-18T13:38:41Z</time>
      </trkpt>
      <trkpt lat="47.27038" lon="-1.75447">
        <ele>48</ele>
        <time>2011-12-18T13:38:41Z</time>
      </trkpt>
      <trkpt lat="47.27038" lon="-1.7545">
        <ele>49</ele>
        <time>2011-12-18T13:38:46Z</time>
      </trkpt>
      <trkpt lat="47.27038" lon="-1.75458">
        <ele>49</ele>
        <time>2011-12-18T13:38:47Z</time>
      </trkpt>
      <trkpt lat="47.27035" lon="-1.75474">
        <ele>53</ele>
        <time>2011-12-18T13:38:54Z</time>
      </trkpt>
      <trkpt lat="47.27036" lon="-1.75539">
        <ele>54</ele>
        <time>2011-12-18T13:39:11Z</time>
      </trkpt>
      <trkpt lat="47.27039" lon="-1.75544">
        <ele>54</ele>
        <time>2011-12-18T13:39:14Z</time>
      </trkpt>
      <trkpt lat="47.27042" lon="-1.75546">
        <ele>54</ele>
        <time>2011-12-18T13:39:19Z</time>
      </trkpt>
      <trkpt lat="47.27042" lon="-1.75549">
        <ele>54</ele>
        <time>2011-12-18T13:39:20Z</time>
      </trkpt>
      <trkpt lat="47.2704" lon="-1.7555">
        <ele>54</ele>
        <time>2011-12-18T13:39:21Z</time>
      </trkpt>
      <trkpt lat="47.27034" lon="-1.7555">
        <ele>54</ele>
        <time>2011-12-18T13:39:27Z</time>
      </trkpt>
      <trkpt lat="47.27034" lon="-1.75548">
        <ele>54</ele>
        <time>2011-12-18T13:39:27Z</time>
      </trkpt>
      <trkpt lat="47.27034" lon="-1.75546">
        <ele>54</ele>
        <time>2011-12-18T13:39:29Z</time>
      </trkpt>
      <trkpt lat="47.27037" lon="-1.75542">
        <ele>54</ele>
        <time>2011-12-18T13:39:34Z</time>
      </trkpt>
      <trkpt lat="47.27039" lon="-1.75518">
        <ele>56</ele>
        <time>2011-12-18T13:40:37Z</time>
      </trkpt>
      <trkpt lat="47.27131" lon="-1.75529">
        <ele>53</ele>
        <time>2011-12-18T13:40:44Z</time>
      </trkpt>
      <trkpt lat="47.27133" lon="-1.75527">
        <ele>53</ele>
        <time>2011-12-18T13:40:46Z</time>
      </trkpt>
      <trkpt lat="47.27223" lon="-1.75475">
        <ele>54</ele>
        <time>2011-12-18T13:41:21Z</time>
      </trkpt>
      <trkpt lat="47.27456" lon="-1.75405">
        <ele>61</ele>
        <time>2011-12-18T13:42:22Z</time>
      </trkpt>
      <trkpt lat="47.27463" lon="-1.75409">
        <ele>61</ele>
        <time>2011-12-18T13:42:22Z</time>
      </trkpt>
      <trkpt lat="47.27464" lon="-1.75413">
        <ele>61</ele>
        <time>2011-12-18T13:42:23Z</time>
      </trkpt>
      <trkpt lat="47.27386" lon="-1.75804">
        <ele>60</ele>
        <time>2011-12-18T13:43:19Z</time>
      </trkpt>
      <trkpt lat="47.27384" lon="-1.75819">
        <ele>59</ele>
        <time>2011-12-18T13:43:21Z</time>
      </trkpt>
      <trkpt lat="47.27404" lon="-1.7587">
        <ele>57</ele>
        <time>2011-12-18T13:43:33Z</time>
      </trkpt>
      <trkpt lat="47.27414" lon="-1.75876">
        <ele>56</ele>
        <time>2011-12-18T13:43:33Z</time>
      </trkpt>
      <trkpt lat="47.2742" lon="-1.75876">
        <ele>56</ele>
        <time>2011-12-18T13:43:35Z</time>
      </trkpt>
      <trkpt lat="47.27501" lon="-1.75849">
        <ele>56</ele>
        <time>2011-12-18T13:43:48Z</time>
      </trkpt>
      <trkpt lat="47.2751" lon="-1.75846">
        <ele>56</ele>
        <time>2011-12-18T13:43:53Z</time>
      </trkpt>
      <trkpt lat="47.27518" lon="-1.75856">
        <ele>56</ele>
        <time>2011-12-18T13:43:53Z</time>
      </trkpt>
      <trkpt lat="47.27485" lon="-1.76042">
        <ele>56</ele>
        <time>2011-12-18T13:44:25Z</time>
      </trkpt>
      <trkpt lat="47.27472" lon="-1.76157">
        <ele>57</ele>
        <time>2011-12-18T13:44:40Z</time>
      </trkpt>
      <trkpt lat="47.27474" lon="-1.76167">
        <ele>57</ele>
        <time>2011-12-18T13:44:41Z</time>
      </trkpt>
      <trkpt lat="47.27494" lon="-1.76211">
        <ele>57</ele>
        <time>2011-12-18T13:44:49Z</time>
      </trkpt>
      <trkpt lat="47.27501" lon="-1.76219">
        <ele>57</ele>
        <time>2011-12-18T13:44:54Z</time>
      </trkpt>
      <trkpt lat="47.27511" lon="-1.7622">
        <ele>57</ele>
        <time>2011-12-18T13:44:55Z</time>
      </trkpt>
      <trkpt lat="47.27514" lon="-1.76219">
        <ele>57</ele>
        <time>2011-12-18T13:44:55Z</time>
      </trkpt>
      <trkpt lat="47.27517" lon="-1.7622">
        <ele>57</ele>
        <time>2011-12-18T13:44:56Z</time>
      </trkpt>
      <trkpt lat="47.27519" lon="-1.76221">
        <ele>57</ele>
        <time>2011-12-18T13:45:02Z</time>
      </trkpt>
      <trkpt lat="47.27521" lon="-1.76227">
        <ele>57</ele>
        <time>2011-12-18T13:45:03Z</time>
      </trkpt>
      <trkpt lat="47.2752" lon="-1.7623">
        <ele>58</ele>
        <time>2011-12-18T13:45:04Z</time>
      </trkpt>
      <trkpt lat="47.27517" lon="-1.76253">
        <ele>60</ele>
        <time>2011-12-18T13:45:10Z</time>
      </trkpt>
      <trkpt lat="47.27553" lon="-1.76375">
        <ele>60</ele>
        <time>2011-12-18T13:45:46Z</time>
      </trkpt>
      <trkpt lat="47.27552" lon="-1.76377">
        <ele>60</ele>
        <time>2011-12-18T13:45:52Z</time>
      </trkpt>
      <trkpt lat="47.27553" lon="-1.76378">
        <ele>59</ele>
        <time>2011-12-18T13:45:59Z</time>
      </trkpt>
      <trkpt lat="47.27555" lon="-1.76378">
        <ele>56</ele>
        <time>2011-12-18T13:46:17Z</time>
      </trkpt>
      <trkpt lat="47.27554" lon="-1.76376">
        <ele>56</ele>
        <time>2011-12-18T13:46:32Z</time>
      </trkpt>
      <trkpt lat="47.27559" lon="-1.76422">
        <ele>59</ele>
        <time>2011-12-18T13:46:49Z</time>
      </trkpt>
      <trkpt lat="47.27544" lon="-1.76506">
        <ele>57</ele>
        <time>2011-12-18T13:47:00Z</time>
      </trkpt>
      <trkpt lat="47.27544" lon="-1.76526">
        <ele>55</ele>
        <time>2011-12-18T13:47:06Z</time>
      </trkpt>
      <trkpt lat="47.27568" lon="-1.76599">
        <ele>49</ele>
        <time>2011-12-18T13:47:15Z</time>
      </trkpt>
      <trkpt lat="47.27573" lon="-1.76636">
        <ele>47</ele>
        <time>2011-12-18T13:47:22Z</time>
      </trkpt>
      <trkpt lat="47.27575" lon="-1.76696">
        <ele>47</ele>
        <time>2011-12-18T13:47:34Z</time>
      </trkpt>
      <trkpt lat="47.27576" lon="-1.76708">
        <ele>46</ele>
        <time>2011-12-18T13:47:34Z</time>
      </trkpt>
      <trkpt lat="47.27575" lon="-1.76715">
        <ele>46</ele>
        <time>2011-12-18T13:47:36Z</time>
      </trkpt>
      <trkpt lat="47.27542" lon="-1.76745">
        <ele>45</ele>
        <time>2011-12-18T13:47:44Z</time>
      </trkpt>
      <trkpt lat="47.27519" lon="-1.76769">
        <ele>43</ele>
        <time>2011-12-18T13:47:49Z</time>
      </trkpt>
      <trkpt lat="47.27507" lon="-1.76838">
        <ele>38</ele>
        <time>2011-12-18T13:47:58Z</time>
      </trkpt>
      <trkpt lat="47.27559" lon="-1.7701">
        <ele>32</ele>
        <time>2011-12-18T13:48:29Z</time>
      </trkpt>
      <trkpt lat="47.27558" lon="-1.77023">
        <ele>31</ele>
        <time>2011-12-18T13:48:30Z</time>
      </trkpt>
      <trkpt lat="47.27563" lon="-1.77057">
        <ele>29</ele>
        <time>2011-12-18T13:48:38Z</time>
      </trkpt>
      <trkpt lat="47.27591" lon="-1.77111">
        <ele>26</ele>
        <time>2011-12-18T13:48:46Z</time>
      </trkpt>
      <trkpt lat="47.27601" lon="-1.77164">
        <ele>22</ele>
        <time>2011-12-18T13:48:54Z</time>
      </trkpt>
      <trkpt lat="47.27604" lon="-1.77184">
        <ele>21</ele>
        <time>2011-12-18T13:48:59Z</time>
      </trkpt>
      <trkpt lat="47.27604" lon="-1.77187">
        <ele>20</ele>
        <time>2011-12-18T13:49:00Z</time>
      </trkpt>
      <trkpt lat="47.27617" lon="-1.77267">
        <ele>20</ele>
        <time>2011-12-18T13:49:21Z</time>
      </trkpt>
      <trkpt lat="47.27672" lon="-1.7734">
        <ele>19</ele>
        <time>2011-12-18T13:49:45Z</time>
      </trkpt>
      <trkpt lat="47.2768" lon="-1.77354">
        <ele>19</ele>
        <time>2011-12-18T13:49:51Z</time>
      </trkpt>
      <trkpt lat="47.27683" lon="-1.77356">
        <ele>19</ele>
        <time>2011-12-18T13:49:53Z</time>
      </trkpt>
      <trkpt lat="47.27686" lon="-1.77359">
        <ele>19</ele>
        <time>2011-12-18T13:49:58Z</time>
      </trkpt>
      <trkpt lat="47.27734" lon="-1.77506">
        <ele>23</ele>
        <time>2011-12-18T13:50:23Z</time>
      </trkpt>
      <trkpt lat="47.27737" lon="-1.7751">
        <ele>23</ele>
        <time>2011-12-18T13:50:24Z</time>
      </trkpt>
      <trkpt lat="47.27741" lon="-1.77512">
        <ele>23</ele>
        <time>2011-12-18T13:50:25Z</time>
      </trkpt>
      <trkpt lat="47.27744" lon="-1.77513">
        <ele>23</ele>
        <time>2011-12-18T13:50:26Z</time>
      </trkpt>
      <trkpt lat="47.27756" lon="-1.77509">
        <ele>23</ele>
        <time>2011-12-18T13:50:31Z</time>
      </trkpt>
      <trkpt lat="47.27757" lon="-1.77507">
        <ele>23</ele>
        <time>2011-12-18T13:50:32Z</time>
      </trkpt>
      <trkpt lat="47.27758" lon="-1.77505">
        <ele>24</ele>
        <time>2011-12-18T13:50:33Z</time>
      </trkpt>
      <trkpt lat="47.27779" lon="-1.77464">
        <ele>30</ele>
        <time>2011-12-18T13:50:51Z</time>
      </trkpt>
      <trkpt lat="47.27785" lon="-1.77456">
        <ele>30</ele>
        <time>2011-12-18T13:50:56Z</time>
      </trkpt>
      <trkpt lat="47.27787" lon="-1.77455">
        <ele>31</ele>
        <time>2011-12-18T13:50:57Z</time>
      </trkpt>
      <trkpt lat="47.27806" lon="-1.77442">
        <ele>32</ele>
        <time>2011-12-18T13:51:10Z</time>
      </trkpt>
      <trkpt lat="47.27809" lon="-1.7744">
        <ele>33</ele>
        <time>2011-12-18T13:51:15Z</time>
      </trkpt>
      <trkpt lat="47.27821" lon="-1.77433">
        <ele>33</ele>
        <time>2011-12-18T13:51:21Z</time>
      </trkpt>
      <trkpt lat="47.27823" lon="-1.77432">
        <ele>34</ele>
        <time>2011-12-18T13:51:22Z</time>
      </trkpt>
      <trkpt lat="47.27831" lon="-1.77426">
        <ele>35</ele>
        <time>2011-12-18T13:51:28Z</time>
      </trkpt>
      <trkpt lat="47.27833" lon="-1.77424">
        <ele>36</ele>
        <time>2011-12-18T13:51:29Z</time>
      </trkpt>
      <trkpt lat="47.2784" lon="-1.77419">
        <ele>36</ele>
        <time>2011-12-18T13:51:34Z</time>
      </trkpt>
      <trkpt lat="47.27841" lon="-1.77418">
        <ele>37</ele>
        <time>2011-12-18T13:51:35Z</time>
      </trkpt>
      <trkpt lat="47.2786" lon="-1.77393">
        <ele>38</ele>
        <time>2011-12-18T13:51:53Z</time>
      </trkpt>
      <trkpt lat="47.27866" lon="-1.77393">
        <ele>39</ele>
        <time>2011-12-18T13:51:53Z</time>
      </trkpt>
      <trkpt lat="47.27867" lon="-1.77395">
        <ele>39</ele>
        <time>2011-12-18T13:51:54Z</time>
      </trkpt>
      <trkpt lat="47.27954" lon="-1.77539">
        <ele>42</ele>
        <time>2011-12-18T13:52:32Z</time>
      </trkpt>
      <trkpt lat="47.27971" lon="-1.77563">
        <ele>43</ele>
        <time>2011-12-18T13:52:38Z</time>
      </trkpt>
      <trkpt lat="47.27992" lon="-1.77585">
        <ele>43</ele>
        <time>2011-12-18T13:52:49Z</time>
      </trkpt>
      <trkpt lat="47.28" lon="-1.77595">
        <ele>43</ele>
        <time>2011-12-18T13:52:49Z</time>
      </trkpt>
      <trkpt lat="47.27999" lon="-1.77599">
        <ele>43</ele>
        <time>2011-12-18T13:52:50Z</time>
      </trkpt>
      <trkpt lat="47.27997" lon="-1.77602">
        <ele>43</ele>
        <time>2011-12-18T13:52:51Z</time>
      </trkpt>
      <trkpt lat="47.27994" lon="-1.77605">
        <ele>43</ele>
        <time>2011-12-18T13:52:57Z</time>
      </trkpt>
      <trkpt lat="47.27992" lon="-1.77606">
        <ele>48</ele>
        <time>2011-12-18T13:53:07Z</time>
      </trkpt>
      <trkpt lat="47.27954" lon="-1.77644">
        <ele>50</ele>
        <time>2011-12-18T13:53:26Z</time>
      </trkpt>
      <trkpt lat="47.27939" lon="-1.77671">
        <ele>50</ele>
        <time>2011-12-18T13:53:32Z</time>
      </trkpt>
      <trkpt lat="47.27937" lon="-1.77672">
        <ele>50</ele>
        <time>2011-12-18T13:53:33Z</time>
      </trkpt>
      <trkpt lat="47.27935" lon="-1.77672">
        <ele>50</ele>
        <time>2011-12-18T13:53:34Z</time>
      </trkpt>
      <trkpt lat="47.27933" lon="-1.77671">
        <ele>50</ele>
        <time>2011-12-18T13:53:35Z</time>
      </trkpt>
      <trkpt lat="47.2792" lon="-1.77684">
        <ele>49</ele>
        <time>2011-12-18T13:53:40Z</time>
      </trkpt>
      <trkpt lat="47.27917" lon="-1.77688">
        <ele>48</ele>
        <time>2011-12-18T13:53:42Z</time>
      </trkpt>
      <trkpt lat="47.27901" lon="-1.77728">
        <ele>43</ele>
        <time>2011-12-18T13:53:53Z</time>
      </trkpt>
      <trkpt lat="47.27838" lon="-1.77796">
        <ele>36</ele>
        <time>2011-12-18T13:54:06Z</time>
      </trkpt>
      <trkpt lat="47.27836" lon="-1.77799">
        <ele>34</ele>
        <time>2011-12-18T13:54:07Z</time>
      </trkpt>
      <trkpt lat="47.27834" lon="-1.77801">
        <ele>32</ele>
        <time>2011-12-18T13:54:08Z</time>
      </trkpt>
      <trkpt lat="47.27834" lon="-1.77803">
        <ele>30</ele>
        <time>2011-12-18T13:54:09Z</time>
      </trkpt>
      <trkpt lat="47.27837" lon="-1.77806">
        <ele>28</ele>
        <time>2011-12-18T13:54:14Z</time>
      </trkpt>
      <trkpt lat="47.27855" lon="-1.77809">
        <ele>25</ele>
        <time>2011-12-18T13:54:22Z</time>
      </trkpt>
      <trkpt lat="47.27866" lon="-1.77819">
        <ele>24</ele>
        <time>2011-12-18T13:54:22Z</time>
      </trkpt>
      <trkpt lat="47.27868" lon="-1.77822">
        <ele>23</ele>
        <time>2011-12-18T13:54:23Z</time>
      </trkpt>
      <trkpt lat="47.2787" lon="-1.77831">
        <ele>22</ele>
        <time>2011-12-18T13:54:29Z</time>
      </trkpt>
      <trkpt lat="47.2787" lon="-1.77898">
        <ele>22</ele>
        <time>2011-12-18T13:54:36Z</time>
      </trkpt>
      <trkpt lat="47.27866" lon="-1.77912">
        <ele>22</ele>
        <time>2011-12-18T13:54:39Z</time>
      </trkpt>
      <trkpt lat="47.27831" lon="-1.77941">
        <ele>22</ele>
        <time>2011-12-18T13:54:44Z</time>
      </trkpt>
      <trkpt lat="47.27757" lon="-1.7796">
        <ele>22</ele>
        <time>2011-12-18T13:54:53Z</time>
      </trkpt>
      <trkpt lat="47.27699" lon="-1.77993">
        <ele>19</ele>
        <time>2011-12-18T13:55:04Z</time>
      </trkpt>
      <trkpt lat="47.27685" lon="-1.77975">
        <ele>16</ele>
        <time>2011-12-18T13:55:11Z</time>
      </trkpt>
      <trkpt lat="47.27678" lon="-1.77969">
        <ele>15</ele>
        <time>2011-12-18T13:55:11Z</time>
      </trkpt>
      <trkpt lat="47.27651" lon="-1.7801">
        <ele>14</ele>
        <time>2011-12-18T13:55:25Z</time>
      </trkpt>
      <trkpt lat="47.27656" lon="-1.78027">
        <ele>14</ele>
        <time>2011-12-18T13:55:28Z</time>
      </trkpt>
      <trkpt lat="47.27658" lon="-1.78059">
        <ele>14</ele>
        <time>2011-12-18T13:55:32Z</time>
      </trkpt>
      <trkpt lat="47.2766" lon="-1.78064">
        <ele>14</ele>
        <time>2011-12-18T13:55:33Z</time>
      </trkpt>
      <trkpt lat="47.27667" lon="-1.78071">
        <ele>14</ele>
        <time>2011-12-18T13:55:38Z</time>
      </trkpt>
      <trkpt lat="47.27726" lon="-1.78092">
        <ele>12</ele>
        <time>2011-12-18T13:55:46Z</time>
      </trkpt>
      <trkpt lat="47.2773" lon="-1.78096">
        <ele>12</ele>
        <time>2011-12-18T13:55:47Z</time>
      </trkpt>
      <trkpt lat="47.27754" lon="-1.7816">
        <ele>12</ele>
        <time>2011-12-18T13:56:00Z</time>
      </trkpt>
      <trkpt lat="47.27827" lon="-1.78288">
        <ele>6</ele>
        <time>2011-12-18T13:56:26Z</time>
      </trkpt>
      <trkpt lat="47.27929" lon="-1.78529">
        <ele>5</ele>
        <time>2011-12-18T13:57:09Z</time>
      </trkpt>
      <trkpt lat="47.28141" lon="-1.78731">
        <ele>1</ele>
        <time>2011-12-18T13:58:00Z</time>
      </trkpt>
      <trkpt lat="47.28189" lon="-1.7875">
        <ele>4</ele>
        <time>2011-12-18T13:58:13Z</time>
      </trkpt>
      <trkpt lat="47.28208" lon="-1.78763">
        <ele>8</ele>
        <time>2011-12-18T13:58:19Z</time>
      </trkpt>
      <trkpt lat="47.28236" lon="-1.78818">
        <ele>10</ele>
        <time>2011-12-18T13:58:33Z</time>
      </trkpt>
      <trkpt lat="47.28237" lon="-1.78823">
        <ele>11</ele>
        <time>2011-12-18T13:58:34Z</time>
      </trkpt>
      <trkpt lat="47.28249" lon="-1.78851">
        <ele>11</ele>
        <time>2011-12-18T13:58:40Z</time>
      </trkpt>
      <trkpt lat="47.28264" lon="-1.78873">
        <ele>12</ele>
        <time>2011-12-18T13:58:46Z</time>
      </trkpt>
      <trkpt lat="47.28338" lon="-1.78945">
        <ele>12</ele>
        <time>2011-12-18T13:59:11Z</time>
      </trkpt>
      <trkpt lat="47.28351" lon="-1.78966">
        <ele>12</ele>
        <time>2011-12-18T13:59:18Z</time>
      </trkpt>
      <trkpt lat="47.28354" lon="-1.7897">
        <ele>12</ele>
        <time>2011-12-18T13:59:19Z</time>
      </trkpt>
      <trkpt lat="47.28357" lon="-1.78972">
        <ele>12</ele>
        <time>2011-12-18T13:59:21Z</time>
      </trkpt>
      <trkpt lat="47.28364" lon="-1.78971">
        <ele>12</ele>
        <time>2011-12-18T13:59:26Z</time>
      </trkpt>
      <trkpt lat="47.28368" lon="-1.78953">
        <ele>12</ele>
        <time>2011-12-18T13:59:27Z</time>
      </trkpt>
      <trkpt lat="47.28369" lon="-1.78927">
        <ele>15</ele>
        <time>2011-12-18T13:59:34Z</time>
      </trkpt>
      <trkpt lat="47.28383" lon="-1.78861">
        <ele>25</ele>
        <time>2011-12-18T13:59:58Z</time>
      </trkpt>
      <trkpt lat="47.28384" lon="-1.78854">
        <ele>25</ele>
        <time>2011-12-18T13:59:58Z</time>
      </trkpt>
      <trkpt lat="47.28385" lon="-1.78852">
        <ele>26</ele>
        <time>2011-12-18T13:59:59Z</time>
      </trkpt>
      <trkpt lat="47.28386" lon="-1.7885">
        <ele>26</ele>
        <time>2011-12-18T14:00:00Z</time>
      </trkpt>
      <trkpt lat="47.28392" lon="-1.78848">
        <ele>27</ele>
        <time>2011-12-18T14:00:06Z</time>
      </trkpt>
      <trkpt lat="47.28397" lon="-1.78849">
        <ele>27</ele>
        <time>2011-12-18T14:00:07Z</time>
      </trkpt>
      <trkpt lat="47.2846" lon="-1.78996">
        <ele>24</ele>
        <time>2011-12-18T14:00:39Z</time>
      </trkpt>
      <trkpt lat="47.28464" lon="-1.78998">
        <ele>23</ele>
        <time>2011-12-18T14:00:40Z</time>
      </trkpt>
      <trkpt lat="47.28468" lon="-1.78999">
        <ele>22</ele>
        <time>2011-12-18T14:00:42Z</time>
      </trkpt>
      <trkpt lat="47.28477" lon="-1.78997">
        <ele>21</ele>
        <time>2011-12-18T14:00:47Z</time>
      </trkpt>
      <trkpt lat="47.28519" lon="-1.7898">
        <ele>21</ele>
        <time>2011-12-18T14:00:53Z</time>
      </trkpt>
      <trkpt lat="47.28523" lon="-1.7898">
        <ele>21</ele>
        <time>2011-12-18T14:00:54Z</time>
      </trkpt>
      <trkpt lat="47.28526" lon="-1.78982">
        <ele>21</ele>
        <time>2011-12-18T14:00:55Z</time>
      </trkpt>
      <trkpt lat="47.28529" lon="-1.78993">
        <ele>21</ele>
        <time>2011-12-18T14:01:01Z</time>
      </trkpt>
      <trkpt lat="47.28532" lon="-1.79128">
        <ele>23</ele>
        <time>2011-12-18T14:01:21Z</time>
      </trkpt>
      <trkpt lat="47.28542" lon="-1.79157">
        <ele>23</ele>
        <time>2011-12-18T14:01:26Z</time>
      </trkpt>
      <trkpt lat="47.28563" lon="-1.79186">
        <ele>23</ele>
        <time>2011-12-18T14:01:33Z</time>
      </trkpt>
      <trkpt lat="47.28565" lon="-1.79189">
        <ele>22</ele>
        <time>2011-12-18T14:01:34Z</time>
      </trkpt>
      <trkpt lat="47.28615" lon="-1.79275">
        <ele>14</ele>
        <time>2011-12-18T14:01:59Z</time>
      </trkpt>
      <trkpt lat="47.28626" lon="-1.79281">
        <ele>13</ele>
        <time>2011-12-18T14:02:07Z</time>
      </trkpt>
      <trkpt lat="47.28625" lon="-1.79283">
        <ele>13</ele>
        <time>2011-12-18T14:02:15Z</time>
      </trkpt>
      <trkpt lat="47.28627" lon="-1.79287">
        <ele>23</ele>
        <time>2011-12-18T14:02:40Z</time>
      </trkpt>
      <trkpt lat="47.28628" lon="-1.79287">
        <ele>23</ele>
        <time>2011-12-18T14:02:45Z</time>
      </trkpt>
      <trkpt lat="47.28632" lon="-1.79286">
        <ele>24</ele>
        <time>2011-12-18T14:02:54Z</time>
      </trkpt>
      <trkpt lat="47.28636" lon="-1.79283">
        <ele>24</ele>
        <time>2011-12-18T14:03:03Z</time>
      </trkpt>
      <trkpt lat="47.28638" lon="-1.7928">
        <ele>28</ele>
        <time>2011-12-18T14:03:20Z</time>
      </trkpt>
      <trkpt lat="47.28637" lon="-1.79283">
        <ele>31</ele>
        <time>2011-12-18T14:03:34Z</time>
      </trkpt>
      <trkpt lat="47.28636" lon="-1.79285">
        <ele>35</ele>
        <time>2011-12-18T14:03:43Z</time>
      </trkpt>
      <trkpt lat="47.28638" lon="-1.79282">
        <ele>35</ele>
        <time>2011-12-18T14:03:50Z</time>
      </trkpt>
      <trkpt lat="47.2864" lon="-1.79281">
        <ele>35</ele>
        <time>2011-12-18T14:03:51Z</time>
      </trkpt>
      <trkpt lat="47.28642" lon="-1.7928">
        <ele>37</ele>
        <time>2011-12-18T14:03:53Z</time>
      </trkpt>
      <trkpt lat="47.28644" lon="-1.79281">
        <ele>38</ele>
        <time>2011-12-18T14:03:59Z</time>
      </trkpt>
      <trkpt lat="47.28653" lon="-1.79279">
        <ele>39</ele>
        <time>2011-12-18T14:04:01Z</time>
      </trkpt>
      <trkpt lat="47.28661" lon="-1.79279">
        <ele>39</ele>
        <time>2011-12-18T14:04:07Z</time>
      </trkpt>
      <trkpt lat="47.28663" lon="-1.7928">
        <ele>39</ele>
        <time>2011-12-18T14:04:12Z</time>
      </trkpt>
      <trkpt lat="47.28668" lon="-1.79278">
        <ele>39</ele>
        <time>2011-12-18T14:04:13Z</time>
      </trkpt>
      <trkpt lat="47.28669" lon="-1.79277">
        <ele>38</ele>
        <time>2011-12-18T14:04:14Z</time>
      </trkpt>
      <trkpt lat="47.2867" lon="-1.79277">
        <ele>37</ele>
        <time>2011-12-18T14:04:16Z</time>
      </trkpt>
      <trkpt lat="47.28671" lon="-1.79277">
        <ele>36</ele>
        <time>2011-12-18T14:04:17Z</time>
      </trkpt>
      <trkpt lat="47.28678" lon="-1.79275">
        <ele>36</ele>
        <time>2011-12-18T14:04:22Z</time>
      </trkpt>
      <trkpt lat="47.28681" lon="-1.79275">
        <ele>35</ele>
        <time>2011-12-18T14:04:28Z</time>
      </trkpt>
      <trkpt lat="47.28689" lon="-1.7927">
        <ele>34</ele>
        <time>2011-12-18T14:04:34Z</time>
      </trkpt>
      <trkpt lat="47.28698" lon="-1.7926">
        <ele>34</ele>
        <time>2011-12-18T14:04:41Z</time>
      </trkpt>
      <trkpt lat="47.28701" lon="-1.79259">
        <ele>34</ele>
        <time>2011-12-18T14:04:43Z</time>
      </trkpt>
      <trkpt lat="47.28703" lon="-1.79259">
        <ele>34</ele>
        <time>2011-12-18T14:04:49Z</time>
      </trkpt>
      <trkpt lat="47.28708" lon="-1.79269">
        <ele>34</ele>
        <time>2011-12-18T14:04:50Z</time>
      </trkpt>
      <trkpt lat="47.28735" lon="-1.79499">
        <ele>31</ele>
        <time>2011-12-18T14:05:22Z</time>
      </trkpt>
      <trkpt lat="47.28738" lon="-1.7952">
        <ele>30</ele>
        <time>2011-12-18T14:05:22Z</time>
      </trkpt>
      <trkpt lat="47.28779" lon="-1.79618">
        <ele>24</ele>
        <time>2011-12-18T14:05:41Z</time>
      </trkpt>
      <trkpt lat="47.28816" lon="-1.7966">
        <ele>24</ele>
        <time>2011-12-18T14:05:49Z</time>
      </trkpt>
      <trkpt lat="47.28834" lon="-1.79672">
        <ele>24</ele>
        <time>2011-12-18T14:05:57Z</time>
      </trkpt>
      <trkpt lat="47.2888" lon="-1.7973">
        <ele>21</ele>
        <time>2011-12-18T14:06:10Z</time>
      </trkpt>
      <trkpt lat="47.28884" lon="-1.79733">
        <ele>21</ele>
        <time>2011-12-18T14:06:13Z</time>
      </trkpt>
      <trkpt lat="47.2889" lon="-1.79745">
        <ele>21</ele>
        <time>2011-12-18T14:06:17Z</time>
      </trkpt>
      <trkpt lat="47.28891" lon="-1.79748">
        <ele>21</ele>
        <time>2011-12-18T14:06:19Z</time>
      </trkpt>
      <trkpt lat="47.28894" lon="-1.79754">
        <ele>21</ele>
        <time>2011-12-18T14:06:21Z</time>
      </trkpt>
      <trkpt lat="47.28898" lon="-1.79758">
        <ele>21</ele>
        <time>2011-12-18T14:06:26Z</time>
      </trkpt>
      <trkpt lat="47.28929" lon="-1.79824">
        <ele>23</ele>
        <time>2011-12-18T14:06:45Z</time>
      </trkpt>
      <trkpt lat="47.28945" lon="-1.79844">
        <ele>23</ele>
        <time>2011-12-18T14:06:47Z</time>
      </trkpt>
      <trkpt lat="47.28961" lon="-1.79869">
        <ele>23</ele>
        <time>2011-12-18T14:06:54Z</time>
      </trkpt>
      <trkpt lat="47.28965" lon="-1.79881">
        <ele>23</ele>
        <time>2011-12-18T14:06:55Z</time>
      </trkpt>
      <trkpt lat="47.28982" lon="-1.80038">
        <ele>30</ele>
        <time>2011-12-18T14:07:20Z</time>
      </trkpt>
      <trkpt lat="47.28995" lon="-1.80071">
        <ele>29</ele>
        <time>2011-12-18T14:07:22Z</time>
      </trkpt>
      <trkpt lat="47.29" lon="-1.80103">
        <ele>27</ele>
        <time>2011-12-18T14:07:27Z</time>
      </trkpt>
      <trkpt lat="47.29039" lon="-1.80171">
        <ele>11</ele>
        <time>2011-12-18T14:07:41Z</time>
      </trkpt>
      <trkpt lat="47.2905" lon="-1.80212">
        <ele>5</ele>
        <time>2011-12-18T14:07:48Z</time>
      </trkpt>
      <trkpt lat="47.29059" lon="-1.80271">
        <ele>1</ele>
        <time>2011-12-18T14:08:00Z</time>
      </trkpt>
      <trkpt lat="47.29065" lon="-1.80277">
        <ele>1</ele>
        <time>2011-12-18T14:08:01Z</time>
      </trkpt>
      <trkpt lat="47.29067" lon="-1.80279">
        <ele>18</ele>
        <time>2011-12-18T14:08:02Z</time>
      </trkpt>
      <trkpt lat="47.29078" lon="-1.80292">
        <ele>17.9</ele>
        <time>2011-12-18T14:08:08Z</time>
      </trkpt>
      <trkpt lat="47.29079" lon="-1.80295">
        <ele>17.9</ele>
        <time>2011-12-18T14:08:09Z</time>
      </trkpt>
      <trkpt lat="47.29096" lon="-1.80316">
        <ele>20.1</ele>
        <time>2011-12-18T14:08:22Z</time>
      </trkpt>
      <trkpt lat="47.29098" lon="-1.80322">
        <ele>20.8</ele>
        <time>2011-12-18T14:08:22Z</time>
      </trkpt>
      <trkpt lat="47.29098" lon="-1.80323">
        <ele>20.9</ele>
        <time>2011-12-18T14:08:23Z</time>
      </trkpt>
      <trkpt lat="47.29101" lon="-1.80328">
        <ele>21.7</ele>
        <time>2011-12-18T14:08:31Z</time>
      </trkpt>
      <trkpt lat="47.29102" lon="-1.80329">
        <ele>22</ele>
        <time>2011-12-18T14:08:33Z</time>
      </trkpt>
      <trkpt lat="47.29104" lon="-1.80334">
        <ele>1</ele>
        <time>2011-12-18T14:08:39Z</time>
      </trkpt>
      <trkpt lat="47.29105" lon="-1.80336">
        <ele>1</ele>
        <time>2011-12-18T14:08:40Z</time>
      </trkpt>
      <trkpt lat="47.29106" lon="-1.80338">
        <ele>2</ele>
        <time>2011-12-18T14:08:45Z</time>
      </trkpt>
      <trkpt lat="47.29107" lon="-1.80342">
        <ele>2</ele>
        <time>2011-12-18T14:08:45Z</time>
      </trkpt>
      <trkpt lat="47.29107" lon="-1.80345">
        <ele>4</ele>
        <time>2011-12-18T14:08:47Z</time>
      </trkpt>
      <trkpt lat="47.29111" lon="-1.80352">
        <ele>6</ele>
        <time>2011-12-18T14:08:54Z</time>
      </trkpt>
      <trkpt lat="47.29111" lon="-1.80354">
        <ele>7</ele>
        <time>2011-12-18T14:08:57Z</time>
      </trkpt>
      <trkpt lat="47.29111" lon="-1.80356">
        <ele>7</ele>
        <time>2011-12-18T14:09:02Z</time>
      </trkpt>
      <trkpt lat="47.29113" lon="-1.80359">
        <ele>7</ele>
        <time>2011-12-18T14:09:03Z</time>
      </trkpt>
      <trkpt lat="47.29116" lon="-1.80362">
        <ele>10</ele>
        <time>2011-12-18T14:09:12Z</time>
      </trkpt>
      <trkpt lat="47.29117" lon="-1.80365">
        <ele>10</ele>
        <time>2011-12-18T14:09:13Z</time>
      </trkpt>
      <trkpt lat="47.29118" lon="-1.80366">
        <ele>10</ele>
        <time>2011-12-18T14:09:14Z</time>
      </trkpt>
      <trkpt lat="47.29122" lon="-1.80376">
        <ele>10</ele>
        <time>2011-12-18T14:09:20Z</time>
      </trkpt>
      <trkpt lat="47.29121" lon="-1.80389">
        <ele>11</ele>
        <time>2011-12-18T14:09:28Z</time>
      </trkpt>
      <trkpt lat="47.29125" lon="-1.80402">
        <ele>11</ele>
        <time>2011-12-18T14:09:29Z</time>
      </trkpt>
      <trkpt lat="47.2913" lon="-1.80407">
        <ele>12</ele>
        <time>2011-12-18T14:09:36Z</time>
      </trkpt>
      <trkpt lat="47.29138" lon="-1.80429">
        <ele>12</ele>
        <time>2011-12-18T14:09:43Z</time>
      </trkpt>
      <trkpt lat="47.29142" lon="-1.80435">
        <ele>12</ele>
        <time>2011-12-18T14:09:43Z</time>
      </trkpt>
      <trkpt lat="47.29148" lon="-1.8045">
        <ele>12</ele>
        <time>2011-12-18T14:09:51Z</time>
      </trkpt>
      <trkpt lat="47.29149" lon="-1.80452">
        <ele>12</ele>
        <time>2011-12-18T14:10:05Z</time>
      </trkpt>
      <trkpt lat="47.2915" lon="-1.80454">
        <ele>13</ele>
        <time>2011-12-18T14:10:14Z</time>
      </trkpt>
      <trkpt lat="47.29151" lon="-1.80455">
        <ele>13</ele>
        <time>2011-12-18T14:10:30Z</time>
      </trkpt>
      <trkpt lat="47.29148" lon="-1.80456">
        <ele>14</ele>
        <time>2011-12-18T14:10:55Z</time>
      </trkpt>
      <trkpt lat="47.29149" lon="-1.80458">
        <ele>12</ele>
        <time>2011-12-18T14:11:22Z</time>
      </trkpt>
      <trkpt lat="47.29147" lon="-1.80454">
        <ele>15</ele>
        <time>2011-12-18T14:12:18Z</time>
      </trkpt>
      <trkpt lat="47.2916" lon="-1.80505">
        <ele>15</ele>
        <time>2011-12-18T14:12:32Z</time>
      </trkpt>
      <trkpt lat="47.29174" lon="-1.80534">
        <ele>15</ele>
        <time>2011-12-18T14:12:39Z</time>
      </trkpt>
      <trkpt lat="47.29242" lon="-1.80868">
        <ele>15</ele>
        <time>2011-12-18T14:13:36Z</time>
      </trkpt>
      <trkpt lat="47.29243" lon="-1.80887">
        <ele>15</ele>
        <time>2011-12-18T14:13:43Z</time>
      </trkpt>
      <trkpt lat="47.29253" lon="-1.80926">
        <ele>15</ele>
        <time>2011-12-18T14:13:50Z</time>
      </trkpt>
      <trkpt lat="47.29258" lon="-1.8093">
        <ele>15</ele>
        <time>2011-12-18T14:13:53Z</time>
      </trkpt>
      <trkpt lat="47.29263" lon="-1.8093">
        <ele>14</ele>
        <time>2011-12-18T14:13:58Z</time>
      </trkpt>
      <trkpt lat="47.29313" lon="-1.80904">
        <ele>14</ele>
        <time>2011-12-18T14:14:21Z</time>
      </trkpt>
      <trkpt lat="47.29327" lon="-1.80897">
        <ele>14</ele>
        <time>2011-12-18T14:14:27Z</time>
      </trkpt>
      <trkpt lat="47.29331" lon="-1.80895">
        <ele>15</ele>
        <time>2011-12-18T14:14:32Z</time>
      </trkpt>
      <trkpt lat="47.29334" lon="-1.80889">
        <ele>15</ele>
        <time>2011-12-18T14:14:33Z</time>
      </trkpt>
      <trkpt lat="47.29335" lon="-1.80886">
        <ele>16</ele>
        <time>2011-12-18T14:14:34Z</time>
      </trkpt>
      <trkpt lat="47.29335" lon="-1.80882">
        <ele>16</ele>
        <time>2011-12-18T14:14:35Z</time>
      </trkpt>
      <trkpt lat="47.29335" lon="-1.80879">
        <ele>17</ele>
        <time>2011-12-18T14:14:36Z</time>
      </trkpt>
      <trkpt lat="47.29337" lon="-1.80857">
        <ele>19</ele>
        <time>2011-12-18T14:14:42Z</time>
      </trkpt>
      <trkpt lat="47.29339" lon="-1.80851">
        <ele>20</ele>
        <time>2011-12-18T14:14:47Z</time>
      </trkpt>
      <trkpt lat="47.29348" lon="-1.80841">
        <ele>23</ele>
        <time>2011-12-18T14:14:49Z</time>
      </trkpt>
      <trkpt lat="47.29351" lon="-1.80838">
        <ele>24</ele>
        <time>2011-12-18T14:14:54Z</time>
      </trkpt>
      <trkpt lat="47.29389" lon="-1.80813">
        <ele>24</ele>
        <time>2011-12-18T14:15:13Z</time>
      </trkpt>
      <trkpt lat="47.294" lon="-1.80804">
        <ele>26</ele>
        <time>2011-12-18T14:15:22Z</time>
      </trkpt>
      <trkpt lat="47.29405" lon="-1.80796">
        <ele>29</ele>
        <time>2011-12-18T14:15:31Z</time>
      </trkpt>
      <trkpt lat="47.2941" lon="-1.8079">
        <ele>29</ele>
        <time>2011-12-18T14:15:31Z</time>
      </trkpt>
      <trkpt lat="47.29415" lon="-1.80779">
        <ele>30</ele>
        <time>2011-12-18T14:15:36Z</time>
      </trkpt>
      <trkpt lat="47.29416" lon="-1.80777">
        <ele>31</ele>
        <time>2011-12-18T14:15:37Z</time>
      </trkpt>
      <trkpt lat="47.29417" lon="-1.80775">
        <ele>31</ele>
        <time>2011-12-18T14:15:38Z</time>
      </trkpt>
      <trkpt lat="47.29418" lon="-1.80774">
        <ele>32</ele>
        <time>2011-12-18T14:15:39Z</time>
      </trkpt>
      <trkpt lat="47.29428" lon="-1.80752">
        <ele>33</ele>
        <time>2011-12-18T14:15:50Z</time>
      </trkpt>
      <trkpt lat="47.29433" lon="-1.80748">
        <ele>33</ele>
        <time>2011-12-18T14:16:00Z</time>
      </trkpt>
      <trkpt lat="47.2944" lon="-1.80741">
        <ele>35</ele>
        <time>2011-12-18T14:16:05Z</time>
      </trkpt>
      <trkpt lat="47.29443" lon="-1.8074">
        <ele>37</ele>
        <time>2011-12-18T14:16:11Z</time>
      </trkpt>
      <trkpt lat="47.29443" lon="-1.80738">
        <ele>38</ele>
        <time>2011-12-18T14:16:12Z</time>
      </trkpt>
      <trkpt lat="47.29444" lon="-1.80738">
        <ele>40</ele>
        <time>2011-12-18T14:16:14Z</time>
      </trkpt>
      <trkpt lat="47.29445" lon="-1.80736">
        <ele>40</ele>
        <time>2011-12-18T14:16:15Z</time>
      </trkpt>
      <trkpt lat="47.29451" lon="-1.80732">
        <ele>40</ele>
        <time>2011-12-18T14:16:23Z</time>
      </trkpt>
      <trkpt lat="47.29456" lon="-1.80728">
        <ele>41</ele>
        <time>2011-12-18T14:16:29Z</time>
      </trkpt>
      <trkpt lat="47.29458" lon="-1.80728">
        <ele>41</ele>
        <time>2011-12-18T14:16:30Z</time>
      </trkpt>
      <trkpt lat="47.29459" lon="-1.80727">
        <ele>42</ele>
        <time>2011-12-18T14:16:40Z</time>
      </trkpt>
      <trkpt lat="47.29461" lon="-1.80726">
        <ele>44</ele>
        <time>2011-12-18T14:16:41Z</time>
      </trkpt>
      <trkpt lat="47.29463" lon="-1.80724">
        <ele>45</ele>
        <time>2011-12-18T14:16:47Z</time>
      </trkpt>
      <trkpt lat="47.29466" lon="-1.80723">
        <ele>46</ele>
        <time>2011-12-18T14:16:48Z</time>
      </trkpt>
      <trkpt lat="47.29468" lon="-1.80724">
        <ele>47</ele>
        <time>2011-12-18T14:16:50Z</time>
      </trkpt>
      <trkpt lat="47.2947" lon="-1.80723">
        <ele>47</ele>
        <time>2011-12-18T14:16:54Z</time>
      </trkpt>
      <trkpt lat="47.29472" lon="-1.80716">
        <ele>47</ele>
        <time>2011-12-18T14:16:55Z</time>
      </trkpt>
      <trkpt lat="47.29473" lon="-1.80714">
        <ele>47</ele>
        <time>2011-12-18T14:16:57Z</time>
      </trkpt>
      <trkpt lat="47.29475" lon="-1.80714">
        <ele>47</ele>
        <time>2011-12-18T14:16:58Z</time>
      </trkpt>
      <trkpt lat="47.29477" lon="-1.80713">
        <ele>48</ele>
        <time>2011-12-18T14:17:04Z</time>
      </trkpt>
      <trkpt lat="47.29482" lon="-1.80711">
        <ele>48</ele>
        <time>2011-12-18T14:17:05Z</time>
      </trkpt>
      <trkpt lat="47.2949" lon="-1.80712">
        <ele>48</ele>
        <time>2011-12-18T14:17:12Z</time>
      </trkpt>
      <trkpt lat="47.29494" lon="-1.8071">
        <ele>48</ele>
        <time>2011-12-18T14:17:17Z</time>
      </trkpt>
      <trkpt lat="47.29504" lon="-1.80708">
        <ele>48</ele>
        <time>2011-12-18T14:17:26Z</time>
      </trkpt>
      <trkpt lat="47.29527" lon="-1.80693">
        <ele>48</ele>
        <time>2011-12-18T14:17:48Z</time>
      </trkpt>
      <trkpt lat="47.29539" lon="-1.8068">
        <ele>49</ele>
        <time>2011-12-18T14:17:56Z</time>
      </trkpt>
      <trkpt lat="47.29558" lon="-1.80663">
        <ele>50</ele>
        <time>2011-12-18T14:18:11Z</time>
      </trkpt>
      <trkpt lat="47.29577" lon="-1.80632">
        <ele>50</ele>
        <time>2011-12-18T14:18:25Z</time>
      </trkpt>
      <trkpt lat="47.29588" lon="-1.80618">
        <ele>51</ele>
        <time>2011-12-18T14:18:33Z</time>
      </trkpt>
      <trkpt lat="47.29592" lon="-1.80613">
        <ele>53</ele>
        <time>2011-12-18T14:18:35Z</time>
      </trkpt>
      <trkpt lat="47.2961" lon="-1.80599">
        <ele>56</ele>
        <time>2011-12-18T14:18:46Z</time>
      </trkpt>
      <trkpt lat="47.29677" lon="-1.80564">
        <ele>57</ele>
        <time>2011-12-18T14:19:01Z</time>
      </trkpt>
      <trkpt lat="47.2974" lon="-1.80511">
        <ele>57</ele>
        <time>2011-12-18T14:19:21Z</time>
      </trkpt>
      <trkpt lat="47.29746" lon="-1.80509">
        <ele>57</ele>
        <time>2011-12-18T14:19:26Z</time>
      </trkpt>
      <trkpt lat="47.29761" lon="-1.80521">
        <ele>57</ele>
        <time>2011-12-18T14:19:30Z</time>
      </trkpt>
      <trkpt lat="47.29764" lon="-1.80522">
        <ele>57</ele>
        <time>2011-12-18T14:19:31Z</time>
      </trkpt>
      <trkpt lat="47.29832" lon="-1.80534">
        <ele>55</ele>
        <time>2011-12-18T14:19:52Z</time>
      </trkpt>
      <trkpt lat="47.29835" lon="-1.80537">
        <ele>55</ele>
        <time>2011-12-18T14:19:55Z</time>
      </trkpt>
      <trkpt lat="47.29841" lon="-1.8054">
        <ele>53</ele>
        <time>2011-12-18T14:20:13Z</time>
      </trkpt>
      <trkpt lat="47.2984" lon="-1.80536">
        <ele>53</ele>
        <time>2011-12-18T14:20:26Z</time>
      </trkpt>
      <trkpt lat="47.2984" lon="-1.80538">
        <ele>53</ele>
        <time>2011-12-18T14:21:24Z</time>
      </trkpt>
      <trkpt lat="47.29837" lon="-1.80539">
        <ele>53</ele>
        <time>2011-12-18T14:21:25Z</time>
      </trkpt>
      <trkpt lat="47.29839" lon="-1.8054">
        <ele>53</ele>
        <time>2011-12-18T14:21:28Z</time>
      </trkpt>
      <trkpt lat="47.29839" lon="-1.80568">
        <ele>53</ele>
        <time>2011-12-18T14:21:34Z</time>
      </trkpt>
      <trkpt lat="47.30013" lon="-1.81144">
        <ele>45</ele>
        <time>2011-12-18T14:23:12Z</time>
      </trkpt>
      <trkpt lat="47.30015" lon="-1.81149">
        <ele>44</ele>
        <time>2011-12-18T14:23:13Z</time>
      </trkpt>
      <trkpt lat="47.30042" lon="-1.81229">
        <ele>41</ele>
        <time>2011-12-18T14:23:26Z</time>
      </trkpt>
      <trkpt lat="47.30046" lon="-1.81256">
        <ele>40</ele>
        <time>2011-12-18T14:23:31Z</time>
      </trkpt>
      <trkpt lat="47.30053" lon="-1.81267">
        <ele>39</ele>
        <time>2011-12-18T14:23:33Z</time>
      </trkpt>
      <trkpt lat="47.30076" lon="-1.81332">
        <ele>34</ele>
        <time>2011-12-18T14:23:45Z</time>
      </trkpt>
      <trkpt lat="47.30077" lon="-1.81336">
        <ele>32</ele>
        <time>2011-12-18T14:23:46Z</time>
      </trkpt>
      <trkpt lat="47.30101" lon="-1.81408">
        <ele>24</ele>
        <time>2011-12-18T14:24:00Z</time>
      </trkpt>
      <trkpt lat="47.30101" lon="-1.81436">
        <ele>22</ele>
        <time>2011-12-18T14:24:06Z</time>
      </trkpt>
      <trkpt lat="47.30078" lon="-1.81535">
        <ele>17</ele>
        <time>2011-12-18T14:24:26Z</time>
      </trkpt>
      <trkpt lat="47.30065" lon="-1.81565">
        <ele>17</ele>
        <time>2011-12-18T14:24:29Z</time>
      </trkpt>
      <trkpt lat="47.30064" lon="-1.8157">
        <ele>16</ele>
        <time>2011-12-18T14:24:29Z</time>
      </trkpt>
      <trkpt lat="47.30057" lon="-1.81591">
        <ele>16</ele>
        <time>2011-12-18T14:24:36Z</time>
      </trkpt>
      <trkpt lat="47.30057" lon="-1.81594">
        <ele>15</ele>
        <time>2011-12-18T14:24:37Z</time>
      </trkpt>
      <trkpt lat="47.30057" lon="-1.81598">
        <ele>14</ele>
        <time>2011-12-18T14:24:43Z</time>
      </trkpt>
      <trkpt lat="47.30058" lon="-1.81599">
        <ele>13</ele>
        <time>2011-12-18T14:24:46Z</time>
      </trkpt>
      <trkpt lat="47.30059" lon="-1.81601">
        <ele>12</ele>
        <time>2011-12-18T14:24:50Z</time>
      </trkpt>
      <trkpt lat="47.30059" lon="-1.81605">
        <ele>12</ele>
        <time>2011-12-18T14:24:51Z</time>
      </trkpt>
      <trkpt lat="47.30059" lon="-1.81607">
        <ele>10</ele>
        <time>2011-12-18T14:24:54Z</time>
      </trkpt>
      <trkpt lat="47.3006" lon="-1.81609">
        <ele>7</ele>
        <time>2011-12-18T14:25:08Z</time>
      </trkpt>
      <trkpt lat="47.30062" lon="-1.81614">
        <ele>7</ele>
        <time>2011-12-18T14:25:24Z</time>
      </trkpt>
      <trkpt lat="47.30064" lon="-1.81613">
        <ele>7</ele>
        <time>2011-12-18T14:25:25Z</time>
      </trkpt>
      <trkpt lat="47.30062" lon="-1.81611">
        <ele>7</ele>
        <time>2011-12-18T14:25:33Z</time>
      </trkpt>
      <trkpt lat="47.30062" lon="-1.81615">
        <ele>7</ele>
        <time>2011-12-18T14:25:58Z</time>
      </trkpt>
      <trkpt lat="47.30064" lon="-1.8163">
        <ele>7</ele>
        <time>2011-12-18T14:26:07Z</time>
      </trkpt>
      <trkpt lat="47.30066" lon="-1.81636">
        <ele>7</ele>
        <time>2011-12-18T14:26:12Z</time>
      </trkpt>
      <trkpt lat="47.30067" lon="-1.81643">
        <ele>7</ele>
        <time>2011-12-18T14:26:21Z</time>
      </trkpt>
      <trkpt lat="47.30065" lon="-1.81657">
        <ele>7</ele>
        <time>2011-12-18T14:26:29Z</time>
      </trkpt>
      <trkpt lat="47.30053" lon="-1.81687">
        <ele>11</ele>
        <time>2011-12-18T14:26:46Z</time>
      </trkpt>
      <trkpt lat="47.30053" lon="-1.817">
        <ele>12</ele>
        <time>2011-12-18T14:26:58Z</time>
      </trkpt>
      <trkpt lat="47.30052" lon="-1.81701">
        <ele>12</ele>
        <time>2011-12-18T14:27:00Z</time>
      </trkpt>
      <trkpt lat="47.3005" lon="-1.81703">
        <ele>12</ele>
        <time>2011-12-18T14:27:01Z</time>
      </trkpt>
      <trkpt lat="47.30049" lon="-1.81719">
        <ele>12</ele>
        <time>2011-12-18T14:27:15Z</time>
      </trkpt>
      <trkpt lat="47.30051" lon="-1.81727">
        <ele>12</ele>
        <time>2011-12-18T14:27:22Z</time>
      </trkpt>
      <trkpt lat="47.3006" lon="-1.81734">
        <ele>13</ele>
        <time>2011-12-18T14:27:30Z</time>
      </trkpt>
      <trkpt lat="47.30062" lon="-1.81737">
        <ele>15</ele>
        <time>2011-12-18T14:27:33Z</time>
      </trkpt>
      <trkpt lat="47.30064" lon="-1.81738">
        <ele>16</ele>
        <time>2011-12-18T14:27:37Z</time>
      </trkpt>
      <trkpt lat="47.30066" lon="-1.81743">
        <ele>17</ele>
        <time>2011-12-18T14:27:38Z</time>
      </trkpt>
      <trkpt lat="47.30068" lon="-1.81749">
        <ele>20</ele>
        <time>2011-12-18T14:27:41Z</time>
      </trkpt>
      <trkpt lat="47.30086" lon="-1.81799">
        <ele>22</ele>
        <time>2011-12-18T14:28:14Z</time>
      </trkpt>
      <trkpt lat="47.30087" lon="-1.81801">
        <ele>22</ele>
        <time>2011-12-18T14:28:18Z</time>
      </trkpt>
      <trkpt lat="47.30089" lon="-1.81806">
        <ele>23</ele>
        <time>2011-12-18T14:28:19Z</time>
      </trkpt>
      <trkpt lat="47.3009" lon="-1.8181">
        <ele>25</ele>
        <time>2011-12-18T14:28:21Z</time>
      </trkpt>
      <trkpt lat="47.30091" lon="-1.81815">
        <ele>26</ele>
        <time>2011-12-18T14:28:28Z</time>
      </trkpt>
      <trkpt lat="47.30097" lon="-1.8183">
        <ele>28</ele>
        <time>2011-12-18T14:28:34Z</time>
      </trkpt>
      <trkpt lat="47.30143" lon="-1.81893">
        <ele>28</ele>
        <time>2011-12-18T14:29:08Z</time>
      </trkpt>
      <trkpt lat="47.30144" lon="-1.81897">
        <ele>28</ele>
        <time>2011-12-18T14:29:10Z</time>
      </trkpt>
      <trkpt lat="47.30158" lon="-1.81935">
        <ele>28</ele>
        <time>2011-12-18T14:29:22Z</time>
      </trkpt>
      <trkpt lat="47.30158" lon="-1.81947">
        <ele>28</ele>
        <time>2011-12-18T14:29:25Z</time>
      </trkpt>
      <trkpt lat="47.30144" lon="-1.81997">
        <ele>28</ele>
        <time>2011-12-18T14:29:36Z</time>
      </trkpt>
      <trkpt lat="47.30132" lon="-1.82012">
        <ele>28</ele>
        <time>2011-12-18T14:29:37Z</time>
      </trkpt>
      <trkpt lat="47.30102" lon="-1.82039">
        <ele>29</ele>
        <time>2011-12-18T14:29:50Z</time>
      </trkpt>
      <trkpt lat="47.30094" lon="-1.82056">
        <ele>30</ele>
        <time>2011-12-18T14:29:51Z</time>
      </trkpt>
      <trkpt lat="47.30088" lon="-1.82086">
        <ele>30</ele>
        <time>2011-12-18T14:29:59Z</time>
      </trkpt>
      <trkpt lat="47.30084" lon="-1.82093">
        <ele>31</ele>
        <time>2011-12-18T14:30:05Z</time>
      </trkpt>
      <trkpt lat="47.30082" lon="-1.8209">
        <ele>34</ele>
        <time>2011-12-18T14:30:24Z</time>
      </trkpt>
      <trkpt lat="47.30081" lon="-1.82084">
        <ele>36</ele>
        <time>2011-12-18T14:30:31Z</time>
      </trkpt>
      <trkpt lat="47.3008" lon="-1.82075">
        <ele>44</ele>
        <time>2011-12-18T14:30:47Z</time>
      </trkpt>
      <trkpt lat="47.30079" lon="-1.82073">
        <ele>52</ele>
        <time>2011-12-18T14:31:04Z</time>
      </trkpt>
      <trkpt lat="47.30079" lon="-1.82069">
        <ele>53</ele>
        <time>2011-12-18T14:31:05Z</time>
      </trkpt>
      <trkpt lat="47.3008" lon="-1.82073">
        <ele>57</ele>
        <time>2011-12-18T14:31:21Z</time>
      </trkpt>
      <trkpt lat="47.3008" lon="-1.82076">
        <ele>58</ele>
        <time>2011-12-18T14:31:28Z</time>
      </trkpt>
      <trkpt lat="47.30081" lon="-1.82079">
        <ele>58</ele>
        <time>2011-12-18T14:31:29Z</time>
      </trkpt>
      <trkpt lat="47.3008" lon="-1.82077">
        <ele>58</ele>
        <time>2011-12-18T14:31:53Z</time>
      </trkpt>
      <trkpt lat="47.3008" lon="-1.82075">
        <ele>60</ele>
        <time>2011-12-18T14:32:01Z</time>
      </trkpt>
      <trkpt lat="47.30079" lon="-1.82077">
        <ele>60</ele>
        <time>2011-12-18T14:32:17Z</time>
      </trkpt>
      <trkpt lat="47.3008" lon="-1.8208">
        <ele>60</ele>
        <time>2011-12-18T14:32:28Z</time>
      </trkpt>
      <trkpt lat="47.30082" lon="-1.8208">
        <ele>60</ele>
        <time>2011-12-18T14:32:34Z</time>
      </trkpt>
      <trkpt lat="47.30086" lon="-1.82088">
        <ele>56</ele>
        <time>2011-12-18T14:32:43Z</time>
      </trkpt>
      <trkpt lat="47.30088" lon="-1.82088">
        <ele>51</ele>
        <time>2011-12-18T14:32:51Z</time>
      </trkpt>
      <trkpt lat="47.30088" lon="-1.8209">
        <ele>50</ele>
        <time>2011-12-18T14:32:52Z</time>
      </trkpt>
      <trkpt lat="47.30086" lon="-1.82093">
        <ele>47</ele>
        <time>2011-12-18T14:33:00Z</time>
      </trkpt>
      <trkpt lat="47.30085" lon="-1.82094">
        <ele>43</ele>
        <time>2011-12-18T14:33:09Z</time>
      </trkpt>
      <trkpt lat="47.30084" lon="-1.82096">
        <ele>30</ele>
        <time>2011-12-18T14:33:51Z</time>
      </trkpt>
      <trkpt lat="47.30086" lon="-1.82096">
        <ele>30</ele>
        <time>2011-12-18T14:33:59Z</time>
      </trkpt>
      <trkpt lat="47.30098" lon="-1.82127">
        <ele>30</ele>
        <time>2011-12-18T14:34:14Z</time>
      </trkpt>
      <trkpt lat="47.3011" lon="-1.82202">
        <ele>30</ele>
        <time>2011-12-18T14:34:27Z</time>
      </trkpt>
      <trkpt lat="47.30106" lon="-1.82259">
        <ele>30</ele>
        <time>2011-12-18T14:34:34Z</time>
      </trkpt>
      <trkpt lat="47.30091" lon="-1.82306">
        <ele>30</ele>
        <time>2011-12-18T14:34:36Z</time>
      </trkpt>
      <trkpt lat="47.30058" lon="-1.82342">
        <ele>29</ele>
        <time>2011-12-18T14:34:41Z</time>
      </trkpt>
      <trkpt lat="47.30044" lon="-1.82351">
        <ele>29</ele>
        <time>2011-12-18T14:34:43Z</time>
      </trkpt>
      <trkpt lat="47.30022" lon="-1.82373">
        <ele>28</ele>
        <time>2011-12-18T14:34:48Z</time>
      </trkpt>
      <trkpt lat="47.3002" lon="-1.82388">
        <ele>28</ele>
        <time>2011-12-18T14:34:50Z</time>
      </trkpt>
      <trkpt lat="47.30029" lon="-1.82447">
        <ele>27</ele>
        <time>2011-12-18T14:34:57Z</time>
      </trkpt>
      <trkpt lat="47.30251" lon="-1.82966">
        <ele>18</ele>
        <time>2011-12-18T14:36:11Z</time>
      </trkpt>
      <trkpt lat="47.30264" lon="-1.8298">
        <ele>18</ele>
        <time>2011-12-18T14:36:16Z</time>
      </trkpt>
      <trkpt lat="47.30266" lon="-1.82985">
        <ele>18</ele>
        <time>2011-12-18T14:36:17Z</time>
      </trkpt>
      <trkpt lat="47.30323" lon="-1.83175">
        <ele>18</ele>
        <time>2011-12-18T14:36:50Z</time>
      </trkpt>
      <trkpt lat="47.30374" lon="-1.8327">
        <ele>16</ele>
        <time>2011-12-18T14:37:09Z</time>
      </trkpt>
      <trkpt lat="47.3039" lon="-1.83283">
        <ele>16</ele>
        <time>2011-12-18T14:37:10Z</time>
      </trkpt>
      <trkpt lat="47.304" lon="-1.83281">
        <ele>15</ele>
        <time>2011-12-18T14:37:13Z</time>
      </trkpt>
      <trkpt lat="47.30429" lon="-1.83267">
        <ele>15</ele>
        <time>2011-12-18T14:37:19Z</time>
      </trkpt>
      <trkpt lat="47.3043" lon="-1.83271">
        <ele>15</ele>
        <time>2011-12-18T14:37:20Z</time>
      </trkpt>
      <trkpt lat="47.30439" lon="-1.83334">
        <ele>15</ele>
        <time>2011-12-18T14:37:36Z</time>
      </trkpt>
      <trkpt lat="47.30436" lon="-1.8335">
        <ele>15</ele>
        <time>2011-12-18T14:37:41Z</time>
      </trkpt>
      <trkpt lat="47.30434" lon="-1.83353">
        <ele>15</ele>
        <time>2011-12-18T14:37:42Z</time>
      </trkpt>
      <trkpt lat="47.30429" lon="-1.83372">
        <ele>15</ele>
        <time>2011-12-18T14:37:48Z</time>
      </trkpt>
      <trkpt lat="47.30431" lon="-1.83396">
        <ele>15</ele>
        <time>2011-12-18T14:37:57Z</time>
      </trkpt>
      <trkpt lat="47.30455" lon="-1.83451">
        <ele>16</ele>
        <time>2011-12-18T14:38:17Z</time>
      </trkpt>
      <trkpt lat="47.30456" lon="-1.83455">
        <ele>17</ele>
        <time>2011-12-18T14:38:18Z</time>
      </trkpt>
      <trkpt lat="47.30529" lon="-1.83582">
        <ele>17</ele>
        <time>2011-12-18T14:38:49Z</time>
      </trkpt>
      <trkpt lat="47.30658" lon="-1.83713">
        <ele>18</ele>
        <time>2011-12-18T14:39:36Z</time>
      </trkpt>
      <trkpt lat="47.30723" lon="-1.83801">
        <ele>15</ele>
        <time>2011-12-18T14:39:57Z</time>
      </trkpt>
      <trkpt lat="47.30786" lon="-1.83984">
        <ele>15</ele>
        <time>2011-12-18T14:40:30Z</time>
      </trkpt>
      <trkpt lat="47.30914" lon="-1.84173">
        <ele>8</ele>
        <time>2011-12-18T14:41:08Z</time>
      </trkpt>
      <trkpt lat="47.30916" lon="-1.84188">
        <ele>8</ele>
        <time>2011-12-18T14:41:15Z</time>
      </trkpt>
      <trkpt lat="47.30921" lon="-1.84199">
        <ele>8</ele>
        <time>2011-12-18T14:41:16Z</time>
      </trkpt>
      <trkpt lat="47.30928" lon="-1.84208">
        <ele>8</ele>
        <time>2011-12-18T14:41:23Z</time>
      </trkpt>
      <trkpt lat="47.30934" lon="-1.84218">
        <ele>10</ele>
        <time>2011-12-18T14:41:24Z</time>
      </trkpt>
      <trkpt lat="47.30942" lon="-1.84231">
        <ele>12</ele>
        <time>2011-12-18T14:41:31Z</time>
      </trkpt>
      <trkpt lat="47.30956" lon="-1.84246">
        <ele>14</ele>
        <time>2011-12-18T14:41:38Z</time>
      </trkpt>
      <trkpt lat="47.30994" lon="-1.84322">
        <ele>18</ele>
        <time>2011-12-18T14:41:58Z</time>
      </trkpt>
      <trkpt lat="47.31042" lon="-1.84391">
        <ele>10</ele>
        <time>2011-12-18T14:42:20Z</time>
      </trkpt>
      <trkpt lat="47.31043" lon="-1.84392">
        <ele>10</ele>
        <time>2011-12-18T14:42:22Z</time>
      </trkpt>
      <trkpt lat="47.31046" lon="-1.84394">
        <ele>10</ele>
        <time>2011-12-18T14:42:28Z</time>
      </trkpt>
      <trkpt lat="47.31047" lon="-1.84395">
        <ele>10</ele>
        <time>2011-12-18T14:42:36Z</time>
      </trkpt>
      <trkpt lat="47.31049" lon="-1.84396">
        <ele>13</ele>
        <time>2011-12-18T14:42:53Z</time>
      </trkpt>
      <trkpt lat="47.31048" lon="-1.84398">
        <ele>13</ele>
        <time>2011-12-18T14:42:54Z</time>
      </trkpt>
      <trkpt lat="47.31049" lon="-1.844">
        <ele>13</ele>
        <time>2011-12-18T14:43:03Z</time>
      </trkpt>
      <trkpt lat="47.31048" lon="-1.844">
        <ele>13</ele>
        <time>2011-12-18T14:43:13Z</time>
      </trkpt>
      <trkpt lat="47.31051" lon="-1.84398">
        <ele>13</ele>
        <time>2011-12-18T14:43:21Z</time>
      </trkpt>
      <trkpt lat="47.3105" lon="-1.84398">
        <ele>13</ele>
        <time>2011-12-18T14:43:29Z</time>
      </trkpt>
      <trkpt lat="47.31056" lon="-1.84406">
        <ele>14</ele>
        <time>2011-12-18T14:43:46Z</time>
      </trkpt>
      <trkpt lat="47.31066" lon="-1.84431">
        <ele>16</ele>
        <time>2011-12-18T14:43:53Z</time>
      </trkpt>
      <trkpt lat="47.31085" lon="-1.84479">
        <ele>17</ele>
        <time>2011-12-18T14:44:06Z</time>
      </trkpt>
      <trkpt lat="47.31094" lon="-1.84518">
        <ele>17</ele>
        <time>2011-12-18T14:44:14Z</time>
      </trkpt>
      <trkpt lat="47.311" lon="-1.84524">
        <ele>17</ele>
        <time>2011-12-18T14:44:16Z</time>
      </trkpt>
      <trkpt lat="47.31217" lon="-1.84744">
        <ele>17</ele>
        <time>2011-12-18T14:45:09Z</time>
      </trkpt>
      <trkpt lat="47.31265" lon="-1.84891">
        <ele>17</ele>
        <time>2011-12-18T14:45:30Z</time>
      </trkpt>
      <trkpt lat="47.31339" lon="-1.85058">
        <ele>5</ele>
        <time>2011-12-18T14:45:56Z</time>
      </trkpt>
      <trkpt lat="47.31382" lon="-1.85212">
        <ele>3</ele>
        <time>2011-12-18T14:46:16Z</time>
      </trkpt>
      <trkpt lat="47.31385" lon="-1.85277">
        <ele>1</ele>
        <time>2011-12-18T14:46:24Z</time>
      </trkpt>
      <trkpt lat="47.31376" lon="-1.85342">
        <ele>7.3</ele>
        <time>2011-12-18T14:46:44Z</time>
      </trkpt>
      <trkpt lat="47.31386" lon="-1.85394">
        <ele>8.8</ele>
        <time>2011-12-18T14:46:58Z</time>
      </trkpt>
      <trkpt lat="47.31387" lon="-1.85414">
        <ele>8.8</ele>
        <time>2011-12-18T14:47:05Z</time>
      </trkpt>
      <trkpt lat="47.31389" lon="-1.85419">
        <ele>9</ele>
        <time>2011-12-18T14:47:13Z</time>
      </trkpt>
      <trkpt lat="47.3139" lon="-1.85418">
        <ele>9.2</ele>
        <time>2011-12-18T14:47:15Z</time>
      </trkpt>
      <trkpt lat="47.31393" lon="-1.85418">
        <ele>9.4</ele>
        <time>2011-12-18T14:47:22Z</time>
      </trkpt>
      <trkpt lat="47.31392" lon="-1.85407">
        <ele>9.4</ele>
        <time>2011-12-18T14:47:46Z</time>
      </trkpt>
      <trkpt lat="47.31393" lon="-1.85405">
        <ele>4</ele>
        <time>2011-12-18T14:47:56Z</time>
      </trkpt>
      <trkpt lat="47.31392" lon="-1.85407">
        <ele>11</ele>
        <time>2011-12-18T14:48:49Z</time>
      </trkpt>
      <trkpt lat="47.31392" lon="-1.85405">
        <ele>12</ele>
        <time>2011-12-18T14:49:26Z</time>
      </trkpt>
      <trkpt lat="47.31392" lon="-1.85404">
        <ele>15</ele>
        <time>2011-12-18T14:49:40Z</time>
      </trkpt>
      <trkpt lat="47.31391" lon="-1.85405">
        <ele>16</ele>
        <time>2011-12-18T14:49:50Z</time>
      </trkpt>
      <trkpt lat="47.3139" lon="-1.85406">
        <ele>18</ele>
        <time>2011-12-18T14:50:00Z</time>
      </trkpt>
      <trkpt lat="47.31389" lon="-1.85406">
        <ele>19</ele>
        <time>2011-12-18T14:50:32Z</time>
      </trkpt>
      <trkpt lat="47.31388" lon="-1.85407">
        <ele>19</ele>
        <time>2011-12-18T14:50:43Z</time>
      </trkpt>
      <trkpt lat="47.31387" lon="-1.85409">
        <ele>19</ele>
        <time>2011-12-18T14:50:50Z</time>
      </trkpt>
      <trkpt lat="47.31386" lon="-1.85475">
        <ele>11</ele>
        <time>2011-12-18T14:51:12Z</time>
      </trkpt>
      <trkpt lat="47.31386" lon="-1.85478">
        <ele>9</ele>
        <time>2011-12-18T14:51:13Z</time>
      </trkpt>
      <trkpt lat="47.31389" lon="-1.85559">
        <ele>4</ele>
        <time>2011-12-18T14:51:33Z</time>
      </trkpt>
      <trkpt lat="47.31389" lon="-1.85562">
        <ele>3</ele>
        <time>2011-12-18T14:51:34Z</time>
      </trkpt>
      <trkpt lat="47.31391" lon="-1.85598">
        <ele>3</ele>
        <time>2011-12-18T14:51:46Z</time>
      </trkpt>
      <trkpt lat="47.31413" lon="-1.85669">
        <ele>3</ele>
        <time>2011-12-18T14:52:07Z</time>
      </trkpt>
      <trkpt lat="47.31418" lon="-1.85683">
        <ele>6</ele>
        <time>2011-12-18T14:52:13Z</time>
      </trkpt>
      <trkpt lat="47.31541" lon="-1.85955">
        <ele>13</ele>
        <time>2011-12-18T14:53:08Z</time>
      </trkpt>
      <trkpt lat="47.31572" lon="-1.85991">
        <ele>12</ele>
        <time>2011-12-18T14:53:15Z</time>
      </trkpt>
      <trkpt lat="47.31597" lon="-1.86048">
        <ele>9</ele>
        <time>2011-12-18T14:53:22Z</time>
      </trkpt>
      <trkpt lat="47.31622" lon="-1.86081">
        <ele>8</ele>
        <time>2011-12-18T14:53:27Z</time>
      </trkpt>
      <trkpt lat="47.31629" lon="-1.86086">
        <ele>7</ele>
        <time>2011-12-18T14:53:28Z</time>
      </trkpt>
      <trkpt lat="47.31664" lon="-1.86128">
        <ele>3</ele>
        <time>2011-12-18T14:53:36Z</time>
      </trkpt>
      <trkpt lat="47.31669" lon="-1.86139">
        <ele>2</ele>
        <time>2011-12-18T14:53:41Z</time>
      </trkpt>
      <trkpt lat="47.31677" lon="-1.86202">
        <ele>9.6</ele>
        <time>2011-12-18T14:53:49Z</time>
      </trkpt>
      <trkpt lat="47.31691" lon="-1.86251">
        <ele>10.9</ele>
        <time>2011-12-18T14:54:06Z</time>
      </trkpt>
      <trkpt lat="47.31701" lon="-1.86258">
        <ele>11.2</ele>
        <time>2011-12-18T14:54:11Z</time>
      </trkpt>
      <trkpt lat="47.31703" lon="-1.86259">
        <ele>11.3</ele>
        <time>2011-12-18T14:54:12Z</time>
      </trkpt>
      <trkpt lat="47.31705" lon="-1.86258">
        <ele>11.4</ele>
        <time>2011-12-18T14:54:13Z</time>
      </trkpt>
      <trkpt lat="47.31707" lon="-1.86256">
        <ele>11.5</ele>
        <time>2011-12-18T14:54:14Z</time>
      </trkpt>
      <trkpt lat="47.31745" lon="-1.86195">
        <ele>13.6</ele>
        <time>2011-12-18T14:54:36Z</time>
      </trkpt>
      <trkpt lat="47.3177" lon="-1.8617">
        <ele>15.3</ele>
        <time>2011-12-18T14:54:49Z</time>
      </trkpt>
      <trkpt lat="47.31772" lon="-1.86166">
        <ele>15.7</ele>
        <time>2011-12-18T14:54:54Z</time>
      </trkpt>
      <trkpt lat="47.31774" lon="-1.86155">
        <ele>1</ele>
        <time>2011-12-18T14:54:57Z</time>
      </trkpt>
      <trkpt lat="47.31775" lon="-1.86149">
        <ele>2</ele>
        <time>2011-12-18T14:54:58Z</time>
      </trkpt>
      <trkpt lat="47.31777" lon="-1.86136">
        <ele>2</ele>
        <time>2011-12-18T14:55:03Z</time>
      </trkpt>
      <trkpt lat="47.31783" lon="-1.86125">
        <ele>2</ele>
        <time>2011-12-18T14:55:10Z</time>
      </trkpt>
      <trkpt lat="47.31789" lon="-1.8612">
        <ele>2</ele>
        <time>2011-12-18T14:55:11Z</time>
      </trkpt>
      <trkpt lat="47.31799" lon="-1.86109">
        <ele>5</ele>
        <time>2011-12-18T14:55:20Z</time>
      </trkpt>
      <trkpt lat="47.31807" lon="-1.86101">
        <ele>6</ele>
        <time>2011-12-18T14:55:26Z</time>
      </trkpt>
      <trkpt lat="47.31818" lon="-1.86092">
        <ele>6</ele>
        <time>2011-12-18T14:55:32Z</time>
      </trkpt>
      <trkpt lat="47.31819" lon="-1.86091">
        <ele>7</ele>
        <time>2011-12-18T14:55:33Z</time>
      </trkpt>
      <trkpt lat="47.31821" lon="-1.8609">
        <ele>7</ele>
        <time>2011-12-18T14:55:34Z</time>
      </trkpt>
      <trkpt lat="47.31847" lon="-1.86068">
        <ele>9</ele>
        <time>2011-12-18T14:55:53Z</time>
      </trkpt>
      <trkpt lat="47.31849" lon="-1.86066">
        <ele>10</ele>
        <time>2011-12-18T14:55:54Z</time>
      </trkpt>
      <trkpt lat="47.31858" lon="-1.86057">
        <ele>10</ele>
        <time>2011-12-18T14:56:00Z</time>
      </trkpt>
      <trkpt lat="47.3186" lon="-1.86057">
        <ele>10</ele>
        <time>2011-12-18T14:56:01Z</time>
      </trkpt>
      <trkpt lat="47.31864" lon="-1.86054">
        <ele>10</ele>
        <time>2011-12-18T14:56:07Z</time>
      </trkpt>
      <trkpt lat="47.31871" lon="-1.8605">
        <ele>10</ele>
        <time>2011-12-18T14:56:09Z</time>
      </trkpt>
      <trkpt lat="47.31872" lon="-1.8605">
        <ele>10</ele>
        <time>2011-12-18T14:56:10Z</time>
      </trkpt>
      <trkpt lat="47.31882" lon="-1.86058">
        <ele>11</ele>
        <time>2011-12-18T14:56:17Z</time>
      </trkpt>
      <trkpt lat="47.31884" lon="-1.8606">
        <ele>12</ele>
        <time>2011-12-18T14:56:19Z</time>
      </trkpt>
      <trkpt lat="47.31885" lon="-1.86061">
        <ele>12</ele>
        <time>2011-12-18T14:56:26Z</time>
      </trkpt>
      <trkpt lat="47.31893" lon="-1.86065">
        <ele>12</ele>
        <time>2011-12-18T14:56:29Z</time>
      </trkpt>
      <trkpt lat="47.31894" lon="-1.86064">
        <ele>13</ele>
        <time>2011-12-18T14:56:34Z</time>
      </trkpt>
      <trkpt lat="47.319" lon="-1.86065">
        <ele>14</ele>
        <time>2011-12-18T14:56:35Z</time>
      </trkpt>
      <trkpt lat="47.31902" lon="-1.86064">
        <ele>16</ele>
        <time>2011-12-18T14:56:38Z</time>
      </trkpt>
      <trkpt lat="47.31908" lon="-1.86062">
        <ele>18</ele>
        <time>2011-12-18T14:56:44Z</time>
      </trkpt>
      <trkpt lat="47.31909" lon="-1.86061">
        <ele>19</ele>
        <time>2011-12-18T14:56:46Z</time>
      </trkpt>
      <trkpt lat="47.31911" lon="-1.8606">
        <ele>19</ele>
        <time>2011-12-18T14:56:53Z</time>
      </trkpt>
      <trkpt lat="47.31916" lon="-1.86059">
        <ele>19</ele>
        <time>2011-12-18T14:56:54Z</time>
      </trkpt>
      <trkpt lat="47.31918" lon="-1.86058">
        <ele>20</ele>
        <time>2011-12-18T14:56:56Z</time>
      </trkpt>
      <trkpt lat="47.31921" lon="-1.86053">
        <ele>22</ele>
        <time>2011-12-18T14:57:03Z</time>
      </trkpt>
      <trkpt lat="47.31926" lon="-1.8605">
        <ele>24</ele>
        <time>2011-12-18T14:57:11Z</time>
      </trkpt>
      <trkpt lat="47.3193" lon="-1.86049">
        <ele>24</ele>
        <time>2011-12-18T14:57:16Z</time>
      </trkpt>
      <trkpt lat="47.31932" lon="-1.86047">
        <ele>24</ele>
        <time>2011-12-18T14:57:23Z</time>
      </trkpt>
      <trkpt lat="47.31935" lon="-1.86046">
        <ele>24</ele>
        <time>2011-12-18T14:57:23Z</time>
      </trkpt>
      <trkpt lat="47.31936" lon="-1.86046">
        <ele>24</ele>
        <time>2011-12-18T14:57:25Z</time>
      </trkpt>
      <trkpt lat="47.31939" lon="-1.86044">
        <ele>24</ele>
        <time>2011-12-18T14:57:31Z</time>
      </trkpt>
      <trkpt lat="47.31944" lon="-1.86047">
        <ele>25</ele>
        <time>2011-12-18T14:57:34Z</time>
      </trkpt>
      <trkpt lat="47.31946" lon="-1.86048">
        <ele>26</ele>
        <time>2011-12-18T14:57:39Z</time>
      </trkpt>
      <trkpt lat="47.31947" lon="-1.86047">
        <ele>27</ele>
        <time>2011-12-18T14:57:40Z</time>
      </trkpt>
      <trkpt lat="47.31949" lon="-1.86045">
        <ele>28</ele>
        <time>2011-12-18T14:57:43Z</time>
      </trkpt>
      <trkpt lat="47.31951" lon="-1.86045">
        <ele>28</ele>
        <time>2011-12-18T14:57:49Z</time>
      </trkpt>
      <trkpt lat="47.31959" lon="-1.86051">
        <ele>28</ele>
        <time>2011-12-18T14:57:51Z</time>
      </trkpt>
      <trkpt lat="47.31995" lon="-1.86097">
        <ele>29</ele>
        <time>2011-12-18T14:58:11Z</time>
      </trkpt>
      <trkpt lat="47.32005" lon="-1.86114">
        <ele>30</ele>
        <time>2011-12-18T14:58:18Z</time>
      </trkpt>
      <trkpt lat="47.32029" lon="-1.86141">
        <ele>31</ele>
        <time>2011-12-18T14:58:32Z</time>
      </trkpt>
      <trkpt lat="47.32031" lon="-1.86142">
        <ele>32</ele>
        <time>2011-12-18T14:58:33Z</time>
      </trkpt>
      <trkpt lat="47.32041" lon="-1.86149">
        <ele>33</ele>
        <time>2011-12-18T14:58:38Z</time>
      </trkpt>
      <trkpt lat="47.32046" lon="-1.86153">
        <ele>35</ele>
        <time>2011-12-18T14:58:44Z</time>
      </trkpt>
      <trkpt lat="47.32087" lon="-1.86177">
        <ele>35</ele>
        <time>2011-12-18T14:59:07Z</time>
      </trkpt>
      <trkpt lat="47.32089" lon="-1.86176">
        <ele>35</ele>
        <time>2011-12-18T14:59:14Z</time>
      </trkpt>
      <trkpt lat="47.3209" lon="-1.86177">
        <ele>35</ele>
        <time>2011-12-18T14:59:25Z</time>
      </trkpt>
      <trkpt lat="47.3209" lon="-1.86179">
        <ele>35</ele>
        <time>2011-12-18T14:59:31Z</time>
      </trkpt>
      <trkpt lat="47.32091" lon="-1.8618">
        <ele>35</ele>
        <time>2011-12-18T14:59:31Z</time>
      </trkpt>
      <trkpt lat="47.32092" lon="-1.86181">
        <ele>35</ele>
        <time>2011-12-18T14:59:40Z</time>
      </trkpt>
      <trkpt lat="47.32092" lon="-1.86183">
        <ele>38</ele>
        <time>2011-12-18T14:59:50Z</time>
      </trkpt>
      <trkpt lat="47.32092" lon="-1.86181">
        <ele>41</ele>
        <time>2011-12-18T14:59:59Z</time>
      </trkpt>
      <trkpt lat="47.32091" lon="-1.86179">
        <ele>42</ele>
        <time>2011-12-18T15:00:01Z</time>
      </trkpt>
      <trkpt lat="47.32089" lon="-1.86179">
        <ele>42</ele>
        <time>2011-12-18T15:00:07Z</time>
      </trkpt>
      <trkpt lat="47.3209" lon="-1.86174">
        <ele>42</ele>
        <time>2011-12-18T15:00:08Z</time>
      </trkpt>
      <trkpt lat="47.3209" lon="-1.86172">
        <ele>42</ele>
        <time>2011-12-18T15:00:15Z</time>
      </trkpt>
      <trkpt lat="47.32089" lon="-1.86173">
        <ele>41</ele>
        <time>2011-12-18T15:00:18Z</time>
      </trkpt>
      <trkpt lat="47.3209" lon="-1.86176">
        <ele>41</ele>
        <time>2011-12-18T15:00:26Z</time>
      </trkpt>
      <trkpt lat="47.32089" lon="-1.86181">
        <ele>41</ele>
        <time>2011-12-18T15:00:33Z</time>
      </trkpt>
      <trkpt lat="47.32088" lon="-1.86182">
        <ele>43</ele>
        <time>2011-12-18T15:00:35Z</time>
      </trkpt>
      <trkpt lat="47.32088" lon="-1.86185">
        <ele>45</ele>
        <time>2011-12-18T15:00:43Z</time>
      </trkpt>
      <trkpt lat="47.32089" lon="-1.86186">
        <ele>47</ele>
        <time>2011-12-18T15:00:49Z</time>
      </trkpt>
      <trkpt lat="47.32087" lon="-1.86185">
        <ele>50</ele>
        <time>2011-12-18T15:00:59Z</time>
      </trkpt>
      <trkpt lat="47.32087" lon="-1.86183">
        <ele>50</ele>
        <time>2011-12-18T15:01:05Z</time>
      </trkpt>
      <trkpt lat="47.32089" lon="-1.86184">
        <ele>50</ele>
        <time>2011-12-18T15:01:06Z</time>
      </trkpt>
      <trkpt lat="47.32089" lon="-1.86186">
        <ele>50</ele>
        <time>2011-12-18T15:01:07Z</time>
      </trkpt>
      <trkpt lat="47.32088" lon="-1.86188">
        <ele>49</ele>
        <time>2011-12-18T15:01:08Z</time>
      </trkpt>
      <trkpt lat="47.32077" lon="-1.86403">
        <ele>37</ele>
        <time>2011-12-18T15:01:29Z</time>
      </trkpt>
      <trkpt lat="47.3208" lon="-1.86413">
        <ele>35</ele>
        <time>2011-12-18T15:01:30Z</time>
      </trkpt>
      <trkpt lat="47.32115" lon="-1.86457">
        <ele>29</ele>
        <time>2011-12-18T15:01:38Z</time>
      </trkpt>
      <trkpt lat="47.32114" lon="-1.86499">
        <ele>25</ele>
        <time>2011-12-18T15:01:45Z</time>
      </trkpt>
      <trkpt lat="47.32127" lon="-1.86532">
        <ele>23</ele>
        <time>2011-12-18T15:01:46Z</time>
      </trkpt>
      <trkpt lat="47.32137" lon="-1.86542">
        <ele>19</ele>
        <time>2011-12-18T15:01:48Z</time>
      </trkpt>
      <trkpt lat="47.32151" lon="-1.86596">
        <ele>16</ele>
        <time>2011-12-18T15:02:00Z</time>
      </trkpt>
      <trkpt lat="47.32183" lon="-1.86647">
        <ele>16</ele>
        <time>2011-12-18T15:02:23Z</time>
      </trkpt>
      <trkpt lat="47.32186" lon="-1.8665">
        <ele>16</ele>
        <time>2011-12-18T15:02:28Z</time>
      </trkpt>
      <trkpt lat="47.32192" lon="-1.8665">
        <ele>16</ele>
        <time>2011-12-18T15:02:29Z</time>
      </trkpt>
      <trkpt lat="47.32194" lon="-1.86648">
        <ele>17</ele>
        <time>2011-12-18T15:02:30Z</time>
      </trkpt>
      <trkpt lat="47.322" lon="-1.86645">
        <ele>18</ele>
        <time>2011-12-18T15:02:36Z</time>
      </trkpt>
      <trkpt lat="47.32207" lon="-1.86646">
        <ele>19</ele>
        <time>2011-12-18T15:02:37Z</time>
      </trkpt>
      <trkpt lat="47.32361" lon="-1.86735">
        <ele>29</ele>
        <time>2011-12-18T15:03:55Z</time>
      </trkpt>
      <trkpt lat="47.32365" lon="-1.8674">
        <ele>29</ele>
        <time>2011-12-18T15:04:00Z</time>
      </trkpt>
      <trkpt lat="47.32382" lon="-1.86941">
        <ele>34</ele>
        <time>2011-12-18T15:04:34Z</time>
      </trkpt>
      <trkpt lat="47.32461" lon="-1.87233">
        <ele>30</ele>
        <time>2011-12-18T15:05:11Z</time>
      </trkpt>
      <trkpt lat="47.32496" lon="-1.87341">
        <ele>36</ele>
        <time>2011-12-18T15:05:30Z</time>
      </trkpt>
      <trkpt lat="47.3253" lon="-1.87385">
        <ele>35</ele>
        <time>2011-12-18T15:05:34Z</time>
      </trkpt>
      <trkpt lat="47.32554" lon="-1.8746">
        <ele>23</ele>
        <time>2011-12-18T15:05:47Z</time>
      </trkpt>
      <trkpt lat="47.32555" lon="-1.87464">
        <ele>21</ele>
        <time>2011-12-18T15:05:48Z</time>
      </trkpt>
      <trkpt lat="47.32561" lon="-1.8748">
        <ele>20</ele>
        <time>2011-12-18T15:05:53Z</time>
      </trkpt>
      <trkpt lat="47.32565" lon="-1.87486">
        <ele>19</ele>
        <time>2011-12-18T15:06:00Z</time>
      </trkpt>
      <trkpt lat="47.32572" lon="-1.87487">
        <ele>19</ele>
        <time>2011-12-18T15:06:00Z</time>
      </trkpt>
      <trkpt lat="47.32615" lon="-1.8747">
        <ele>19</ele>
        <time>2011-12-18T15:06:27Z</time>
      </trkpt>
      <trkpt lat="47.32622" lon="-1.87469">
        <ele>19</ele>
        <time>2011-12-18T15:06:30Z</time>
      </trkpt>
      <trkpt lat="47.32629" lon="-1.87467">
        <ele>19</ele>
        <time>2011-12-18T15:06:35Z</time>
      </trkpt>
      <trkpt lat="47.32637" lon="-1.87469">
        <ele>20</ele>
        <time>2011-12-18T15:06:42Z</time>
      </trkpt>
      <trkpt lat="47.32639" lon="-1.87471">
        <ele>22</ele>
        <time>2011-12-18T15:06:44Z</time>
      </trkpt>
      <trkpt lat="47.32647" lon="-1.87475">
        <ele>24</ele>
        <time>2011-12-18T15:06:51Z</time>
      </trkpt>
      <trkpt lat="47.32648" lon="-1.87475">
        <ele>24</ele>
        <time>2011-12-18T15:06:53Z</time>
      </trkpt>
      <trkpt lat="47.32656" lon="-1.8748">
        <ele>26</ele>
        <time>2011-12-18T15:06:58Z</time>
      </trkpt>
      <trkpt lat="47.32658" lon="-1.8748">
        <ele>26</ele>
        <time>2011-12-18T15:06:59Z</time>
      </trkpt>
      <trkpt lat="47.32664" lon="-1.87484">
        <ele>26</ele>
        <time>2011-12-18T15:07:05Z</time>
      </trkpt>
      <trkpt lat="47.32675" lon="-1.87487">
        <ele>28</ele>
        <time>2011-12-18T15:07:14Z</time>
      </trkpt>
      <trkpt lat="47.32683" lon="-1.87487">
        <ele>29</ele>
        <time>2011-12-18T15:07:22Z</time>
      </trkpt>
      <trkpt lat="47.32689" lon="-1.87485">
        <ele>30</ele>
        <time>2011-12-18T15:07:28Z</time>
      </trkpt>
      <trkpt lat="47.32691" lon="-1.87484">
        <ele>32</ele>
        <time>2011-12-18T15:07:30Z</time>
      </trkpt>
      <trkpt lat="47.32693" lon="-1.87483">
        <ele>32</ele>
        <time>2011-12-18T15:07:35Z</time>
      </trkpt>
      <trkpt lat="47.327" lon="-1.87478">
        <ele>32</ele>
        <time>2011-12-18T15:07:44Z</time>
      </trkpt>
      <trkpt lat="47.32707" lon="-1.87479">
        <ele>32</ele>
        <time>2011-12-18T15:07:45Z</time>
      </trkpt>
      <trkpt lat="47.32709" lon="-1.8748">
        <ele>32</ele>
        <time>2011-12-18T15:07:46Z</time>
      </trkpt>
      <trkpt lat="47.3271" lon="-1.87481">
        <ele>32</ele>
        <time>2011-12-18T15:07:47Z</time>
      </trkpt>
      <trkpt lat="47.32743" lon="-1.87511">
        <ele>33</ele>
        <time>2011-12-18T15:08:15Z</time>
      </trkpt>
      <trkpt lat="47.32766" lon="-1.87537">
        <ele>36</ele>
        <time>2011-12-18T15:08:23Z</time>
      </trkpt>
      <trkpt lat="47.3278" lon="-1.87552">
        <ele>38</ele>
        <time>2011-12-18T15:08:30Z</time>
      </trkpt>
      <trkpt lat="47.32813" lon="-1.87569">
        <ele>38</ele>
        <time>2011-12-18T15:08:43Z</time>
      </trkpt>
      <trkpt lat="47.32842" lon="-1.87619">
        <ele>40</ele>
        <time>2011-12-18T15:09:03Z</time>
      </trkpt>
      <trkpt lat="47.32854" lon="-1.87629">
        <ele>40</ele>
        <time>2011-12-18T15:09:03Z</time>
      </trkpt>
      <trkpt lat="47.3286" lon="-1.87629">
        <ele>40</ele>
        <time>2011-12-18T15:09:05Z</time>
      </trkpt>
      <trkpt lat="47.32903" lon="-1.87608">
        <ele>41</ele>
        <time>2011-12-18T15:09:24Z</time>
      </trkpt>
      <trkpt lat="47.32913" lon="-1.87609">
        <ele>41</ele>
        <time>2011-12-18T15:09:25Z</time>
      </trkpt>
      <trkpt lat="47.32916" lon="-1.87611">
        <ele>41</ele>
        <time>2011-12-18T15:09:26Z</time>
      </trkpt>
      <trkpt lat="47.32947" lon="-1.87656">
        <ele>44</ele>
        <time>2011-12-18T15:09:47Z</time>
      </trkpt>
      <trkpt lat="47.32951" lon="-1.87658">
        <ele>46</ele>
        <time>2011-12-18T15:09:53Z</time>
      </trkpt>
      <trkpt lat="47.32962" lon="-1.87658">
        <ele>47</ele>
        <time>2011-12-18T15:09:54Z</time>
      </trkpt>
      <trkpt lat="47.32976" lon="-1.87645">
        <ele>51</ele>
        <time>2011-12-18T15:10:03Z</time>
      </trkpt>
      <trkpt lat="47.32978" lon="-1.87643">
        <ele>52</ele>
        <time>2011-12-18T15:10:03Z</time>
      </trkpt>
      <trkpt lat="47.32992" lon="-1.87631">
        <ele>53</ele>
        <time>2011-12-18T15:10:09Z</time>
      </trkpt>
      <trkpt lat="47.32994" lon="-1.87629">
        <ele>54</ele>
        <time>2011-12-18T15:10:10Z</time>
      </trkpt>
      <trkpt lat="47.33008" lon="-1.87618">
        <ele>54</ele>
        <time>2011-12-18T15:10:16Z</time>
      </trkpt>
      <trkpt lat="47.33016" lon="-1.87617">
        <ele>54</ele>
        <time>2011-12-18T15:10:23Z</time>
      </trkpt>
      <trkpt lat="47.33035" lon="-1.87621">
        <ele>54</ele>
        <time>2011-12-18T15:10:26Z</time>
      </trkpt>
      <trkpt lat="47.33043" lon="-1.87627">
        <ele>54</ele>
        <time>2011-12-18T15:10:31Z</time>
      </trkpt>
      <trkpt lat="47.33072" lon="-1.87665">
        <ele>51</ele>
        <time>2011-12-18T15:10:45Z</time>
      </trkpt>
      <trkpt lat="47.33097" lon="-1.87706">
        <ele>52</ele>
        <time>2011-12-18T15:10:59Z</time>
      </trkpt>
      <trkpt lat="47.33098" lon="-1.87709">
        <ele>53</ele>
        <time>2011-12-18T15:11:00Z</time>
      </trkpt>
      <trkpt lat="47.33123" lon="-1.8774">
        <ele>58</ele>
        <time>2011-12-18T15:11:14Z</time>
      </trkpt>
      <trkpt lat="47.33131" lon="-1.87742">
        <ele>58</ele>
        <time>2011-12-18T15:11:19Z</time>
      </trkpt>
      <trkpt lat="47.33133" lon="-1.87741">
        <ele>59</ele>
        <time>2011-12-18T15:11:20Z</time>
      </trkpt>
      <trkpt lat="47.33136" lon="-1.87741">
        <ele>59</ele>
        <time>2011-12-18T15:11:21Z</time>
      </trkpt>
      <trkpt lat="47.33138" lon="-1.87741">
        <ele>60</ele>
        <time>2011-12-18T15:11:22Z</time>
      </trkpt>
      <trkpt lat="47.33158" lon="-1.87743">
        <ele>61</ele>
        <time>2011-12-18T15:11:34Z</time>
      </trkpt>
      <trkpt lat="47.33169" lon="-1.87746">
        <ele>61</ele>
        <time>2011-12-18T15:11:34Z</time>
      </trkpt>
      <trkpt lat="47.33172" lon="-1.87748">
        <ele>61</ele>
        <time>2011-12-18T15:11:35Z</time>
      </trkpt>
      <trkpt lat="47.33195" lon="-1.87754">
        <ele>58</ele>
        <time>2011-12-18T15:11:43Z</time>
      </trkpt>
      <trkpt lat="47.33249" lon="-1.87743">
        <ele>53</ele>
        <time>2011-12-18T15:12:02Z</time>
      </trkpt>
      <trkpt lat="47.33282" lon="-1.87744">
        <ele>53</ele>
        <time>2011-12-18T15:12:10Z</time>
      </trkpt>
      <trkpt lat="47.33355" lon="-1.87732">
        <ele>53</ele>
        <time>2011-12-18T15:12:24Z</time>
      </trkpt>
      <trkpt lat="47.33359" lon="-1.87736">
        <ele>52</ele>
        <time>2011-12-18T15:12:26Z</time>
      </trkpt>
      <trkpt lat="47.33382" lon="-1.87769">
        <ele>49</ele>
        <time>2011-12-18T15:12:39Z</time>
      </trkpt>
      <trkpt lat="47.33387" lon="-1.8778">
        <ele>49</ele>
        <time>2011-12-18T15:12:46Z</time>
      </trkpt>
      <trkpt lat="47.33382" lon="-1.87876">
        <ele>50</ele>
        <time>2011-12-18T15:13:09Z</time>
      </trkpt>
      <trkpt lat="47.33394" lon="-1.87944">
        <ele>52</ele>
        <time>2011-12-18T15:13:29Z</time>
      </trkpt>
      <trkpt lat="47.33395" lon="-1.87947">
        <ele>53</ele>
        <time>2011-12-18T15:13:30Z</time>
      </trkpt>
      <trkpt lat="47.33411" lon="-1.8805">
        <ele>55</ele>
        <time>2011-12-18T15:13:56Z</time>
      </trkpt>
      <trkpt lat="47.33411" lon="-1.88055">
        <ele>55</ele>
        <time>2011-12-18T15:13:57Z</time>
      </trkpt>
      <trkpt lat="47.33409" lon="-1.88058">
        <ele>55</ele>
        <time>2011-12-18T15:13:58Z</time>
      </trkpt>
      <trkpt lat="47.33404" lon="-1.88062">
        <ele>55</ele>
        <time>2011-12-18T15:14:04Z</time>
      </trkpt>
      <trkpt lat="47.33321" lon="-1.88071">
        <ele>55</ele>
        <time>2011-12-18T15:14:25Z</time>
      </trkpt>
      <trkpt lat="47.33314" lon="-1.88074">
        <ele>54</ele>
        <time>2011-12-18T15:14:27Z</time>
      </trkpt>
      <trkpt lat="47.33309" lon="-1.88081">
        <ele>54</ele>
        <time>2011-12-18T15:14:32Z</time>
      </trkpt>
      <trkpt lat="47.33275" lon="-1.88152">
        <ele>52</ele>
        <time>2011-12-18T15:14:47Z</time>
      </trkpt>
      <trkpt lat="47.33269" lon="-1.88199">
        <ele>51</ele>
        <time>2011-12-18T15:14:50Z</time>
      </trkpt>
      <trkpt lat="47.33307" lon="-1.88325">
        <ele>51</ele>
        <time>2011-12-18T15:15:16Z</time>
      </trkpt>
      <trkpt lat="47.33305" lon="-1.88348">
        <ele>51</ele>
        <time>2011-12-18T15:15:17Z</time>
      </trkpt>
      <trkpt lat="47.33297" lon="-1.88362">
        <ele>51</ele>
        <time>2011-12-18T15:15:24Z</time>
      </trkpt>
      <trkpt lat="47.33282" lon="-1.88419">
        <ele>50</ele>
        <time>2011-12-18T15:15:31Z</time>
      </trkpt>
      <trkpt lat="47.33222" lon="-1.88497">
        <ele>47</ele>
        <time>2011-12-18T15:15:41Z</time>
      </trkpt>
      <trkpt lat="47.33222" lon="-1.8851">
        <ele>46</ele>
        <time>2011-12-18T15:15:46Z</time>
      </trkpt>
      <trkpt lat="47.33238" lon="-1.88543">
        <ele>45</ele>
        <time>2011-12-18T15:15:48Z</time>
      </trkpt>
      <trkpt lat="47.33247" lon="-1.88555">
        <ele>44</ele>
        <time>2011-12-18T15:15:54Z</time>
      </trkpt>
      <trkpt lat="47.3326" lon="-1.88545">
        <ele>43</ele>
        <time>2011-12-18T15:15:55Z</time>
      </trkpt>
      <trkpt lat="47.33263" lon="-1.88541">
        <ele>43</ele>
        <time>2011-12-18T15:15:56Z</time>
      </trkpt>
      <trkpt lat="47.33266" lon="-1.88541">
        <ele>42</ele>
        <time>2011-12-18T15:15:57Z</time>
      </trkpt>
      <trkpt lat="47.33273" lon="-1.88546">
        <ele>42</ele>
        <time>2011-12-18T15:16:03Z</time>
      </trkpt>
      <trkpt lat="47.33284" lon="-1.88565">
        <ele>42</ele>
        <time>2011-12-18T15:16:05Z</time>
      </trkpt>
      <trkpt lat="47.33285" lon="-1.88566">
        <ele>42</ele>
        <time>2011-12-18T15:16:05Z</time>
      </trkpt>
      <trkpt lat="47.33288" lon="-1.88567">
        <ele>42</ele>
        <time>2011-12-18T15:16:06Z</time>
      </trkpt>
      <trkpt lat="47.33315" lon="-1.88548">
        <ele>42</ele>
        <time>2011-12-18T15:16:19Z</time>
      </trkpt>
      <trkpt lat="47.33327" lon="-1.88556">
        <ele>42</ele>
        <time>2011-12-18T15:16:20Z</time>
      </trkpt>
      <trkpt lat="47.3335" lon="-1.88618">
        <ele>42</ele>
        <time>2011-12-18T15:16:34Z</time>
      </trkpt>
      <trkpt lat="47.33356" lon="-1.88626">
        <ele>42</ele>
        <time>2011-12-18T15:16:36Z</time>
      </trkpt>
      <trkpt lat="47.33402" lon="-1.88742">
        <ele>42</ele>
        <time>2011-12-18T15:16:57Z</time>
      </trkpt>
      <trkpt lat="47.33406" lon="-1.88742">
        <ele>42</ele>
        <time>2011-12-18T15:17:02Z</time>
      </trkpt>
      <trkpt lat="47.33422" lon="-1.8872">
        <ele>41</ele>
        <time>2011-12-18T15:17:04Z</time>
      </trkpt>
      <trkpt lat="47.33424" lon="-1.88719">
        <ele>41</ele>
        <time>2011-12-18T15:17:05Z</time>
      </trkpt>
      <trkpt lat="47.33427" lon="-1.88719">
        <ele>40</ele>
        <time>2011-12-18T15:17:06Z</time>
      </trkpt>
      <trkpt lat="47.33431" lon="-1.88722">
        <ele>39</ele>
        <time>2011-12-18T15:17:11Z</time>
      </trkpt>
      <trkpt lat="47.33438" lon="-1.88737">
        <ele>38</ele>
        <time>2011-12-18T15:17:12Z</time>
      </trkpt>
      <trkpt lat="47.3345" lon="-1.88756">
        <ele>35</ele>
        <time>2011-12-18T15:17:19Z</time>
      </trkpt>
      <trkpt lat="47.33461" lon="-1.88765">
        <ele>34</ele>
        <time>2011-12-18T15:17:20Z</time>
      </trkpt>
      <trkpt lat="47.33464" lon="-1.88763">
        <ele>32</ele>
        <time>2011-12-18T15:17:21Z</time>
      </trkpt>
      <trkpt lat="47.33466" lon="-1.8876">
        <ele>30</ele>
        <time>2011-12-18T15:17:27Z</time>
      </trkpt>
      <trkpt lat="47.33485" lon="-1.88728">
        <ele>24</ele>
        <time>2011-12-18T15:17:36Z</time>
      </trkpt>
      <trkpt lat="47.33491" lon="-1.88717">
        <ele>24</ele>
        <time>2011-12-18T15:17:41Z</time>
      </trkpt>
      <trkpt lat="47.33493" lon="-1.88716">
        <ele>24</ele>
        <time>2011-12-18T15:17:42Z</time>
      </trkpt>
      <trkpt lat="47.33495" lon="-1.88715">
        <ele>24</ele>
        <time>2011-12-18T15:17:44Z</time>
      </trkpt>
      <trkpt lat="47.33512" lon="-1.88725">
        <ele>25</ele>
        <time>2011-12-18T15:17:59Z</time>
      </trkpt>
      <trkpt lat="47.33513" lon="-1.88725">
        <ele>26</ele>
        <time>2011-12-18T15:18:00Z</time>
      </trkpt>
      <trkpt lat="47.3352" lon="-1.88727">
        <ele>26</ele>
        <time>2011-12-18T15:18:05Z</time>
      </trkpt>
      <trkpt lat="47.33522" lon="-1.88728">
        <ele>26</ele>
        <time>2011-12-18T15:18:07Z</time>
      </trkpt>
      <trkpt lat="47.33529" lon="-1.88734">
        <ele>26</ele>
        <time>2011-12-18T15:18:14Z</time>
      </trkpt>
      <trkpt lat="47.33534" lon="-1.88737">
        <ele>26</ele>
        <time>2011-12-18T15:18:22Z</time>
      </trkpt>
      <trkpt lat="47.3354" lon="-1.88743">
        <ele>26</ele>
        <time>2011-12-18T15:18:23Z</time>
      </trkpt>
      <trkpt lat="47.33548" lon="-1.88747">
        <ele>26</ele>
        <time>2011-12-18T15:18:29Z</time>
      </trkpt>
      <trkpt lat="47.33551" lon="-1.88749">
        <ele>28</ele>
        <time>2011-12-18T15:18:35Z</time>
      </trkpt>
      <trkpt lat="47.33557" lon="-1.88752">
        <ele>28</ele>
        <time>2011-12-18T15:18:36Z</time>
      </trkpt>
      <trkpt lat="47.33558" lon="-1.88752">
        <ele>29</ele>
        <time>2011-12-18T15:18:37Z</time>
      </trkpt>
      <trkpt lat="47.33566" lon="-1.88759">
        <ele>35</ele>
        <time>2011-12-18T15:18:47Z</time>
      </trkpt>
      <trkpt lat="47.33587" lon="-1.88765">
        <ele>39</ele>
        <time>2011-12-18T15:19:02Z</time>
      </trkpt>
      <trkpt lat="47.33592" lon="-1.88765">
        <ele>39</ele>
        <time>2011-12-18T15:19:08Z</time>
      </trkpt>
      <trkpt lat="47.33613" lon="-1.88772">
        <ele>40</ele>
        <time>2011-12-18T15:19:17Z</time>
      </trkpt>
      <trkpt lat="47.33633" lon="-1.88785">
        <ele>40</ele>
        <time>2011-12-18T15:19:29Z</time>
      </trkpt>
      <trkpt lat="47.33635" lon="-1.88787">
        <ele>40</ele>
        <time>2011-12-18T15:19:31Z</time>
      </trkpt>
      <trkpt lat="47.33644" lon="-1.8879">
        <ele>40</ele>
        <time>2011-12-18T15:19:38Z</time>
      </trkpt>
      <trkpt lat="47.33654" lon="-1.88789">
        <ele>42</ele>
        <time>2011-12-18T15:19:46Z</time>
      </trkpt>
      <trkpt lat="47.33656" lon="-1.88788">
        <ele>43</ele>
        <time>2011-12-18T15:19:51Z</time>
      </trkpt>
      <trkpt lat="47.33662" lon="-1.88786">
        <ele>43</ele>
        <time>2011-12-18T15:19:52Z</time>
      </trkpt>
      <trkpt lat="47.33665" lon="-1.88786">
        <ele>43</ele>
        <time>2011-12-18T15:19:53Z</time>
      </trkpt>
      <trkpt lat="47.33669" lon="-1.88787">
        <ele>43</ele>
        <time>2011-12-18T15:20:00Z</time>
      </trkpt>
      <trkpt lat="47.3367" lon="-1.88797">
        <ele>43</ele>
        <time>2011-12-18T15:20:02Z</time>
      </trkpt>
      <trkpt lat="47.33666" lon="-1.88875">
        <ele>43</ele>
        <time>2011-12-18T15:20:29Z</time>
      </trkpt>
      <trkpt lat="47.33671" lon="-1.88934">
        <ele>43</ele>
        <time>2011-12-18T15:20:59Z</time>
      </trkpt>
      <trkpt lat="47.3367" lon="-1.88935">
        <ele>43</ele>
        <time>2011-12-18T15:21:01Z</time>
      </trkpt>
      <trkpt lat="47.33673" lon="-1.88937">
        <ele>43</ele>
        <time>2011-12-18T15:21:07Z</time>
      </trkpt>
      <trkpt lat="47.33676" lon="-1.88929">
        <ele>43</ele>
        <time>2011-12-18T15:21:24Z</time>
      </trkpt>
      <trkpt lat="47.33676" lon="-1.88927">
        <ele>42</ele>
        <time>2011-12-18T15:21:25Z</time>
      </trkpt>
      <trkpt lat="47.33677" lon="-1.88924">
        <ele>42</ele>
        <time>2011-12-18T15:21:33Z</time>
      </trkpt>
      <trkpt lat="47.33684" lon="-1.88912">
        <ele>31</ele>
        <time>2011-12-18T15:21:59Z</time>
      </trkpt>
      <trkpt lat="47.33685" lon="-1.8891">
        <ele>26</ele>
        <time>2011-12-18T15:22:09Z</time>
      </trkpt>
      <trkpt lat="47.33686" lon="-1.88908">
        <ele>24</ele>
        <time>2011-12-18T15:22:25Z</time>
      </trkpt>
      <trkpt lat="47.33667" lon="-1.88933">
        <ele>25</ele>
        <time>2011-12-18T15:22:44Z</time>
      </trkpt>
      <trkpt lat="47.33618" lon="-1.88965">
        <ele>32</ele>
        <time>2011-12-18T15:22:58Z</time>
      </trkpt>
      <trkpt lat="47.33596" lon="-1.88992">
        <ele>35</ele>
        <time>2011-12-18T15:23:05Z</time>
      </trkpt>
      <trkpt lat="47.33592" lon="-1.89003">
        <ele>36</ele>
        <time>2011-12-18T15:23:10Z</time>
      </trkpt>
      <trkpt lat="47.33622" lon="-1.89138">
        <ele>38</ele>
        <time>2011-12-18T15:23:26Z</time>
      </trkpt>
      <trkpt lat="47.33627" lon="-1.89147">
        <ele>38</ele>
        <time>2011-12-18T15:23:28Z</time>
      </trkpt>
      <trkpt lat="47.33629" lon="-1.89149">
        <ele>38</ele>
        <time>2011-12-18T15:23:29Z</time>
      </trkpt>
      <trkpt lat="47.33642" lon="-1.89147">
        <ele>38</ele>
        <time>2011-12-18T15:23:35Z</time>
      </trkpt>
      <trkpt lat="47.33702" lon="-1.89114">
        <ele>38</ele>
        <time>2011-12-18T15:24:03Z</time>
      </trkpt>
      <trkpt lat="47.33804" lon="-1.89096">
        <ele>38</ele>
        <time>2011-12-18T15:24:38Z</time>
      </trkpt>
      <trkpt lat="47.3384" lon="-1.89079">
        <ele>38</ele>
        <time>2011-12-18T15:24:52Z</time>
      </trkpt>
      <trkpt lat="47.33849" lon="-1.89076">
        <ele>39</ele>
        <time>2011-12-18T15:24:53Z</time>
      </trkpt>
      <trkpt lat="47.33851" lon="-1.89078">
        <ele>40</ele>
        <time>2011-12-18T15:24:54Z</time>
      </trkpt>
      <trkpt lat="47.33852" lon="-1.89083">
        <ele>40</ele>
        <time>2011-12-18T15:25:00Z</time>
      </trkpt>
      <trkpt lat="47.33854" lon="-1.89105">
        <ele>43</ele>
        <time>2011-12-18T15:25:07Z</time>
      </trkpt>
      <trkpt lat="47.3386" lon="-1.89174">
        <ele>46</ele>
        <time>2011-12-18T15:25:24Z</time>
      </trkpt>
      <trkpt lat="47.33847" lon="-1.8924">
        <ele>46</ele>
        <time>2011-12-18T15:25:38Z</time>
      </trkpt>
      <trkpt lat="47.33844" lon="-1.89243">
        <ele>46</ele>
        <time>2011-12-18T15:25:39Z</time>
      </trkpt>
      <trkpt lat="47.33839" lon="-1.89245">
        <ele>46</ele>
        <time>2011-12-18T15:25:40Z</time>
      </trkpt>
      <trkpt lat="47.3383" lon="-1.89252">
        <ele>46</ele>
        <time>2011-12-18T15:25:46Z</time>
      </trkpt>
      <trkpt lat="47.33809" lon="-1.89258">
        <ele>46</ele>
        <time>2011-12-18T15:25:46Z</time>
      </trkpt>
      <trkpt lat="47.33799" lon="-1.89263">
        <ele>46</ele>
        <time>2011-12-18T15:25:48Z</time>
      </trkpt>
      <trkpt lat="47.33796" lon="-1.89267">
        <ele>45</ele>
        <time>2011-12-18T15:25:49Z</time>
      </trkpt>
      <trkpt lat="47.33797" lon="-1.89282">
        <ele>44</ele>
        <time>2011-12-18T15:25:55Z</time>
      </trkpt>
      <trkpt lat="47.33792" lon="-1.89309">
        <ele>43</ele>
        <time>2011-12-18T15:25:55Z</time>
      </trkpt>
      <trkpt lat="47.33742" lon="-1.89327">
        <ele>40</ele>
        <time>2011-12-18T15:26:03Z</time>
      </trkpt>
      <trkpt lat="47.33735" lon="-1.89335">
        <ele>39</ele>
        <time>2011-12-18T15:26:05Z</time>
      </trkpt>
      <trkpt lat="47.3372" lon="-1.89406">
        <ele>37</ele>
        <time>2011-12-18T15:26:18Z</time>
      </trkpt>
      <trkpt lat="47.33711" lon="-1.89417">
        <ele>36</ele>
        <time>2011-12-18T15:26:19Z</time>
      </trkpt>
      <trkpt lat="47.33695" lon="-1.89417">
        <ele>32</ele>
        <time>2011-12-18T15:26:26Z</time>
      </trkpt>
      <trkpt lat="47.33689" lon="-1.89432">
        <ele>29</ele>
        <time>2011-12-18T15:26:28Z</time>
      </trkpt>
      <trkpt lat="47.33689" lon="-1.89434">
        <ele>28</ele>
        <time>2011-12-18T15:26:29Z</time>
      </trkpt>
      <trkpt lat="47.33684" lon="-1.89447">
        <ele>23</ele>
        <time>2011-12-18T15:26:44Z</time>
      </trkpt>
      <trkpt lat="47.33683" lon="-1.89448">
        <ele>23</ele>
        <time>2011-12-18T15:26:51Z</time>
      </trkpt>
      <trkpt lat="47.33682" lon="-1.89452">
        <ele>23</ele>
        <time>2011-12-18T15:26:52Z</time>
      </trkpt>
      <trkpt lat="47.33682" lon="-1.89457">
        <ele>26</ele>
        <time>2011-12-18T15:27:00Z</time>
      </trkpt>
      <trkpt lat="47.33679" lon="-1.89459">
        <ele>29</ele>
        <time>2011-12-18T15:27:09Z</time>
      </trkpt>
      <trkpt lat="47.33677" lon="-1.89464">
        <ele>31</ele>
        <time>2011-12-18T15:27:18Z</time>
      </trkpt>
      <trkpt lat="47.33676" lon="-1.89472">
        <ele>32</ele>
        <time>2011-12-18T15:27:25Z</time>
      </trkpt>
      <trkpt lat="47.33675" lon="-1.89473">
        <ele>32</ele>
        <time>2011-12-18T15:27:27Z</time>
      </trkpt>
      <trkpt lat="47.33673" lon="-1.89491">
        <ele>32</ele>
        <time>2011-12-18T15:27:40Z</time>
      </trkpt>
      <trkpt lat="47.33669" lon="-1.89498">
        <ele>32</ele>
        <time>2011-12-18T15:27:41Z</time>
      </trkpt>
      <trkpt lat="47.33667" lon="-1.89499">
        <ele>32</ele>
        <time>2011-12-18T15:27:42Z</time>
      </trkpt>
      <trkpt lat="47.33657" lon="-1.89498">
        <ele>32</ele>
        <time>2011-12-18T15:27:50Z</time>
      </trkpt>
      <trkpt lat="47.33648" lon="-1.89508">
        <ele>32</ele>
        <time>2011-12-18T15:27:52Z</time>
      </trkpt>
      <trkpt lat="47.33647" lon="-1.89512">
        <ele>32</ele>
        <time>2011-12-18T15:27:58Z</time>
      </trkpt>
      <trkpt lat="47.33654" lon="-1.89528">
        <ele>32</ele>
        <time>2011-12-18T15:28:00Z</time>
      </trkpt>
      <trkpt lat="47.33654" lon="-1.89553">
        <ele>32</ele>
        <time>2011-12-18T15:28:07Z</time>
      </trkpt>
      <trkpt lat="47.33666" lon="-1.89579">
        <ele>32</ele>
        <time>2011-12-18T15:28:14Z</time>
      </trkpt>
      <trkpt lat="47.33669" lon="-1.89608">
        <ele>32</ele>
        <time>2011-12-18T15:28:21Z</time>
      </trkpt>
      <trkpt lat="47.33678" lon="-1.89648">
        <ele>30</ele>
        <time>2011-12-18T15:28:35Z</time>
      </trkpt>
      <trkpt lat="47.3368" lon="-1.89651">
        <ele>29</ele>
        <time>2011-12-18T15:28:36Z</time>
      </trkpt>
      <trkpt lat="47.33683" lon="-1.89674">
        <ele>29</ele>
        <time>2011-12-18T15:28:43Z</time>
      </trkpt>
      <trkpt lat="47.33699" lon="-1.89703">
        <ele>29</ele>
        <time>2011-12-18T15:28:56Z</time>
      </trkpt>
      <trkpt lat="47.33721" lon="-1.89727">
        <ele>27</ele>
        <time>2011-12-18T15:29:03Z</time>
      </trkpt>
      <trkpt lat="47.33722" lon="-1.89729">
        <ele>26</ele>
        <time>2011-12-18T15:29:04Z</time>
      </trkpt>
      <trkpt lat="47.33725" lon="-1.89732">
        <ele>25</ele>
        <time>2011-12-18T15:29:09Z</time>
      </trkpt>
      <trkpt lat="47.3373" lon="-1.89735">
        <ele>25</ele>
        <time>2011-12-18T15:29:12Z</time>
      </trkpt>
      <trkpt lat="47.33732" lon="-1.89735">
        <ele>25</ele>
        <time>2011-12-18T15:29:18Z</time>
      </trkpt>
      <trkpt lat="47.33734" lon="-1.89734">
        <ele>27</ele>
        <time>2011-12-18T15:29:29Z</time>
      </trkpt>
      <trkpt lat="47.33765" lon="-1.89731">
        <ele>30</ele>
        <time>2011-12-18T15:29:42Z</time>
      </trkpt>
      <trkpt lat="47.33781" lon="-1.89723">
        <ele>31</ele>
        <time>2011-12-18T15:29:49Z</time>
      </trkpt>
      <trkpt lat="47.33795" lon="-1.8971">
        <ele>33</ele>
        <time>2011-12-18T15:29:56Z</time>
      </trkpt>
      <trkpt lat="47.33801" lon="-1.897">
        <ele>35</ele>
        <time>2011-12-18T15:30:03Z</time>
      </trkpt>
      <trkpt lat="47.33802" lon="-1.89698">
        <ele>37</ele>
        <time>2011-12-18T15:30:11Z</time>
      </trkpt>
      <trkpt lat="47.33805" lon="-1.89696">
        <ele>37</ele>
        <time>2011-12-18T15:30:20Z</time>
      </trkpt>
      <trkpt lat="47.33806" lon="-1.89692">
        <ele>38</ele>
        <time>2011-12-18T15:30:28Z</time>
      </trkpt>
      <trkpt lat="47.33805" lon="-1.89691">
        <ele>38</ele>
        <time>2011-12-18T15:30:29Z</time>
      </trkpt>
      <trkpt lat="47.33813" lon="-1.89668">
        <ele>38</ele>
        <time>2011-12-18T15:30:39Z</time>
      </trkpt>
      <trkpt lat="47.3382" lon="-1.89661">
        <ele>38</ele>
        <time>2011-12-18T15:30:45Z</time>
      </trkpt>
      <trkpt lat="47.33828" lon="-1.89655">
        <ele>38</ele>
        <time>2011-12-18T15:30:46Z</time>
      </trkpt>
      <trkpt lat="47.33847" lon="-1.89649">
        <ele>38</ele>
        <time>2011-12-18T15:30:54Z</time>
      </trkpt>
      <trkpt lat="47.33903" lon="-1.89644">
        <ele>42</ele>
        <time>2011-12-18T15:31:17Z</time>
      </trkpt>
      <trkpt lat="47.33908" lon="-1.89642">
        <ele>42</ele>
        <time>2011-12-18T15:31:22Z</time>
      </trkpt>
      <trkpt lat="47.33918" lon="-1.89635">
        <ele>43</ele>
        <time>2011-12-18T15:31:24Z</time>
      </trkpt>
      <trkpt lat="47.33957" lon="-1.89618">
        <ele>46</ele>
        <time>2011-12-18T15:31:43Z</time>
      </trkpt>
      <trkpt lat="47.34023" lon="-1.89613">
        <ele>46</ele>
        <time>2011-12-18T15:32:11Z</time>
      </trkpt>
      <trkpt lat="47.34033" lon="-1.8961">
        <ele>46</ele>
        <time>2011-12-18T15:32:12Z</time>
      </trkpt>
      <trkpt lat="47.3404" lon="-1.8961">
        <ele>46</ele>
        <time>2011-12-18T15:32:18Z</time>
      </trkpt>
      <trkpt lat="47.34052" lon="-1.89607">
        <ele>46</ele>
        <time>2011-12-18T15:32:26Z</time>
      </trkpt>
      <trkpt lat="47.34083" lon="-1.89585">
        <ele>46</ele>
        <time>2011-12-18T15:32:47Z</time>
      </trkpt>
      <trkpt lat="47.3409" lon="-1.89586">
        <ele>46</ele>
        <time>2011-12-18T15:32:49Z</time>
      </trkpt>
      <trkpt lat="47.34095" lon="-1.89591">
        <ele>46</ele>
        <time>2011-12-18T15:32:57Z</time>
      </trkpt>
      <trkpt lat="47.341" lon="-1.89601">
        <ele>47</ele>
        <time>2011-12-18T15:32:58Z</time>
      </trkpt>
      <trkpt lat="47.34118" lon="-1.89644">
        <ele>49</ele>
        <time>2011-12-18T15:33:12Z</time>
      </trkpt>
      <trkpt lat="47.34119" lon="-1.89648">
        <ele>50</ele>
        <time>2011-12-18T15:33:13Z</time>
      </trkpt>
      <trkpt lat="47.3412" lon="-1.89651">
        <ele>50</ele>
        <time>2011-12-18T15:33:14Z</time>
      </trkpt>
      <trkpt lat="47.34121" lon="-1.89685">
        <ele>51</ele>
        <time>2011-12-18T15:33:25Z</time>
      </trkpt>
      <trkpt lat="47.34089" lon="-1.8977">
        <ele>52</ele>
        <time>2011-12-18T15:33:43Z</time>
      </trkpt>
      <trkpt lat="47.3408" lon="-1.89835">
        <ele>53</ele>
        <time>2011-12-18T15:33:56Z</time>
      </trkpt>
      <trkpt lat="47.34142" lon="-1.90211">
        <ele>48</ele>
        <time>2011-12-18T15:34:45Z</time>
      </trkpt>
      <trkpt lat="47.34139" lon="-1.90218">
        <ele>47</ele>
        <time>2011-12-18T15:34:46Z</time>
      </trkpt>
      <trkpt lat="47.34134" lon="-1.90223">
        <ele>46</ele>
        <time>2011-12-18T15:34:47Z</time>
      </trkpt>
      <trkpt lat="47.34109" lon="-1.90241">
        <ele>45</ele>
        <time>2011-12-18T15:34:53Z</time>
      </trkpt>
      <trkpt lat="47.34101" lon="-1.90249">
        <ele>44</ele>
        <time>2011-12-18T15:34:55Z</time>
      </trkpt>
      <trkpt lat="47.34096" lon="-1.9026">
        <ele>44</ele>
        <time>2011-12-18T15:35:00Z</time>
      </trkpt>
      <trkpt lat="47.34094" lon="-1.90354">
        <ele>44</ele>
        <time>2011-12-18T15:35:09Z</time>
      </trkpt>
      <trkpt lat="47.34085" lon="-1.90383">
        <ele>42</ele>
        <time>2011-12-18T15:35:17Z</time>
      </trkpt>
      <trkpt lat="47.34081" lon="-1.90413">
        <ele>41</ele>
        <time>2011-12-18T15:35:18Z</time>
      </trkpt>
      <trkpt lat="47.34162" lon="-1.90751">
        <ele>33</ele>
        <time>2011-12-18T15:36:08Z</time>
      </trkpt>
      <trkpt lat="47.34165" lon="-1.90759">
        <ele>32</ele>
        <time>2011-12-18T15:36:09Z</time>
      </trkpt>
      <trkpt lat="47.34196" lon="-1.90795">
        <ele>28</ele>
        <time>2011-12-18T15:36:17Z</time>
      </trkpt>
      <trkpt lat="47.34209" lon="-1.9084">
        <ele>24</ele>
        <time>2011-12-18T15:36:25Z</time>
      </trkpt>
      <trkpt lat="47.34235" lon="-1.90953">
        <ele>22</ele>
        <time>2011-12-18T15:36:44Z</time>
      </trkpt>
      <trkpt lat="47.34233" lon="-1.90984">
        <ele>22</ele>
        <time>2011-12-18T15:36:45Z</time>
      </trkpt>
      <trkpt lat="47.34224" lon="-1.91015">
        <ele>22</ele>
        <time>2011-12-18T15:36:52Z</time>
      </trkpt>
      <trkpt lat="47.3421" lon="-1.91038">
        <ele>21</ele>
        <time>2011-12-18T15:36:53Z</time>
      </trkpt>
      <trkpt lat="47.34208" lon="-1.91042">
        <ele>20</ele>
        <time>2011-12-18T15:36:54Z</time>
      </trkpt>
      <trkpt lat="47.34208" lon="-1.91047">
        <ele>19</ele>
        <time>2011-12-18T15:36:55Z</time>
      </trkpt>
      <trkpt lat="47.34243" lon="-1.91117">
        <ele>16</ele>
        <time>2011-12-18T15:37:10Z</time>
      </trkpt>
      <trkpt lat="47.34245" lon="-1.91119">
        <ele>16</ele>
        <time>2011-12-18T15:37:11Z</time>
      </trkpt>
      <trkpt lat="47.34281" lon="-1.91112">
        <ele>16</ele>
        <time>2011-12-18T15:37:34Z</time>
      </trkpt>
      <trkpt lat="47.34282" lon="-1.91112">
        <ele>16</ele>
        <time>2011-12-18T15:37:35Z</time>
      </trkpt>
      <trkpt lat="47.34288" lon="-1.91109">
        <ele>16</ele>
        <time>2011-12-18T15:37:43Z</time>
      </trkpt>
      <trkpt lat="47.34295" lon="-1.91102">
        <ele>16</ele>
        <time>2011-12-18T15:37:45Z</time>
      </trkpt>
      <trkpt lat="47.343" lon="-1.91092">
        <ele>16</ele>
        <time>2011-12-18T15:37:52Z</time>
      </trkpt>
      <trkpt lat="47.34301" lon="-1.91081">
        <ele>16</ele>
        <time>2011-12-18T15:38:00Z</time>
      </trkpt>
      <trkpt lat="47.34299" lon="-1.91077">
        <ele>18</ele>
        <time>2011-12-18T15:38:09Z</time>
      </trkpt>
      <trkpt lat="47.34299" lon="-1.9107">
        <ele>19</ele>
        <time>2011-12-18T15:38:11Z</time>
      </trkpt>
      <trkpt lat="47.34297" lon="-1.91057">
        <ele>22</ele>
        <time>2011-12-18T15:38:18Z</time>
      </trkpt>
      <trkpt lat="47.34297" lon="-1.91056">
        <ele>23</ele>
        <time>2011-12-18T15:38:19Z</time>
      </trkpt>
      <trkpt lat="47.34298" lon="-1.91051">
        <ele>24</ele>
        <time>2011-12-18T15:38:25Z</time>
      </trkpt>
      <trkpt lat="47.34301" lon="-1.91047">
        <ele>24</ele>
        <time>2011-12-18T15:38:27Z</time>
      </trkpt>
      <trkpt lat="47.34303" lon="-1.91047">
        <ele>26</ele>
        <time>2011-12-18T15:38:29Z</time>
      </trkpt>
      <trkpt lat="47.34304" lon="-1.91047">
        <ele>26</ele>
        <time>2011-12-18T15:38:30Z</time>
      </trkpt>
      <trkpt lat="47.34308" lon="-1.91043">
        <ele>27</ele>
        <time>2011-12-18T15:38:38Z</time>
      </trkpt>
      <trkpt lat="47.34309" lon="-1.91043">
        <ele>27</ele>
        <time>2011-12-18T15:38:44Z</time>
      </trkpt>
      <trkpt lat="47.34313" lon="-1.91043">
        <ele>27</ele>
        <time>2011-12-18T15:38:45Z</time>
      </trkpt>
      <trkpt lat="47.34317" lon="-1.91044">
        <ele>27</ele>
        <time>2011-12-18T15:38:51Z</time>
      </trkpt>
      <trkpt lat="47.3432" lon="-1.91043">
        <ele>29</ele>
        <time>2011-12-18T15:38:59Z</time>
      </trkpt>
      <trkpt lat="47.3433" lon="-1.9104">
        <ele>29</ele>
        <time>2011-12-18T15:39:06Z</time>
      </trkpt>
      <trkpt lat="47.34347" lon="-1.91041">
        <ele>30</ele>
        <time>2011-12-18T15:39:15Z</time>
      </trkpt>
      <trkpt lat="47.34349" lon="-1.9104">
        <ele>30</ele>
        <time>2011-12-18T15:39:17Z</time>
      </trkpt>
      <trkpt lat="47.34359" lon="-1.91043">
        <ele>31</ele>
        <time>2011-12-18T15:39:25Z</time>
      </trkpt>
      <trkpt lat="47.3436" lon="-1.91042">
        <ele>32</ele>
        <time>2011-12-18T15:39:26Z</time>
      </trkpt>
      <trkpt lat="47.34361" lon="-1.91042">
        <ele>33</ele>
        <time>2011-12-18T15:39:27Z</time>
      </trkpt>
      <trkpt lat="47.34372" lon="-1.9104">
        <ele>34</ele>
        <time>2011-12-18T15:39:33Z</time>
      </trkpt>
      <trkpt lat="47.34373" lon="-1.91039">
        <ele>35</ele>
        <time>2011-12-18T15:39:34Z</time>
      </trkpt>
      <trkpt lat="47.34375" lon="-1.91039">
        <ele>35</ele>
        <time>2011-12-18T15:39:39Z</time>
      </trkpt>
      <trkpt lat="47.3438" lon="-1.91037">
        <ele>36</ele>
        <time>2011-12-18T15:39:40Z</time>
      </trkpt>
      <trkpt lat="47.34381" lon="-1.91036">
        <ele>37</ele>
        <time>2011-12-18T15:39:41Z</time>
      </trkpt>
      <trkpt lat="47.34389" lon="-1.91033">
        <ele>39</ele>
        <time>2011-12-18T15:39:47Z</time>
      </trkpt>
      <trkpt lat="47.3439" lon="-1.91032">
        <ele>39</ele>
        <time>2011-12-18T15:39:48Z</time>
      </trkpt>
      <trkpt lat="47.34399" lon="-1.9103">
        <ele>40</ele>
        <time>2011-12-18T15:39:54Z</time>
      </trkpt>
      <trkpt lat="47.344" lon="-1.91029">
        <ele>41</ele>
        <time>2011-12-18T15:39:55Z</time>
      </trkpt>
      <trkpt lat="47.34419" lon="-1.91025">
        <ele>46</ele>
        <time>2011-12-18T15:40:10Z</time>
      </trkpt>
      <trkpt lat="47.34421" lon="-1.91025">
        <ele>46</ele>
        <time>2011-12-18T15:40:11Z</time>
      </trkpt>
      <trkpt lat="47.3443" lon="-1.91022">
        <ele>46</ele>
        <time>2011-12-18T15:40:17Z</time>
      </trkpt>
      <trkpt lat="47.34457" lon="-1.91022">
        <ele>48</ele>
        <time>2011-12-18T15:40:40Z</time>
      </trkpt>
      <trkpt lat="47.34459" lon="-1.91022">
        <ele>49</ele>
        <time>2011-12-18T15:40:45Z</time>
      </trkpt>
      <trkpt lat="47.34469" lon="-1.9103">
        <ele>49</ele>
        <time>2011-12-18T15:40:52Z</time>
      </trkpt>
      <trkpt lat="47.3447" lon="-1.91028">
        <ele>49</ele>
        <time>2011-12-18T15:41:02Z</time>
      </trkpt>
      <trkpt lat="47.34469" lon="-1.91026">
        <ele>46</ele>
        <time>2011-12-18T15:41:21Z</time>
      </trkpt>
      <trkpt lat="47.34469" lon="-1.91024">
        <ele>45</ele>
        <time>2011-12-18T15:41:42Z</time>
      </trkpt>
      <trkpt lat="47.34469" lon="-1.91026">
        <ele>45</ele>
        <time>2011-12-18T15:41:59Z</time>
      </trkpt>
      <trkpt lat="47.34471" lon="-1.91029">
        <ele>45</ele>
        <time>2011-12-18T15:42:15Z</time>
      </trkpt>
      <trkpt lat="47.3447" lon="-1.91029">
        <ele>45</ele>
        <time>2011-12-18T15:42:24Z</time>
      </trkpt>
      <trkpt lat="47.34469" lon="-1.91027">
        <ele>45</ele>
        <time>2011-12-18T15:42:32Z</time>
      </trkpt>
      <trkpt lat="47.34469" lon="-1.91025">
        <ele>45</ele>
        <time>2011-12-18T15:42:41Z</time>
      </trkpt>
      <trkpt lat="47.3447" lon="-1.91026">
        <ele>45</ele>
        <time>2011-12-18T15:42:50Z</time>
      </trkpt>
      <trkpt lat="47.34494" lon="-1.91161">
        <ele>46</ele>
        <time>2011-12-18T15:43:35Z</time>
      </trkpt>
      <trkpt lat="47.34504" lon="-1.91171">
        <ele>46</ele>
        <time>2011-12-18T15:43:36Z</time>
      </trkpt>
      <trkpt lat="47.34569" lon="-1.91142">
        <ele>46</ele>
        <time>2011-12-18T15:43:57Z</time>
      </trkpt>
      <trkpt lat="47.34578" lon="-1.91141">
        <ele>46</ele>
        <time>2011-12-18T15:43:58Z</time>
      </trkpt>
      <trkpt lat="47.34579" lon="-1.9114">
        <ele>46</ele>
        <time>2011-12-18T15:43:59Z</time>
      </trkpt>
      <trkpt lat="47.3458" lon="-1.91139">
        <ele>46</ele>
        <time>2011-12-18T15:44:00Z</time>
      </trkpt>
      <trkpt lat="47.34584" lon="-1.91141">
        <ele>46</ele>
        <time>2011-12-18T15:44:06Z</time>
      </trkpt>
      <trkpt lat="47.346" lon="-1.91143">
        <ele>47</ele>
        <time>2011-12-18T15:44:07Z</time>
      </trkpt>
      <trkpt lat="47.34639" lon="-1.91128">
        <ele>48</ele>
        <time>2011-12-18T15:44:21Z</time>
      </trkpt>
      <trkpt lat="47.34649" lon="-1.91135">
        <ele>49</ele>
        <time>2011-12-18T15:44:22Z</time>
      </trkpt>
      <trkpt lat="47.34655" lon="-1.91152">
        <ele>50</ele>
        <time>2011-12-18T15:44:29Z</time>
      </trkpt>
      <trkpt lat="47.34666" lon="-1.91161">
        <ele>50</ele>
        <time>2011-12-18T15:44:30Z</time>
      </trkpt>
      <trkpt lat="47.34669" lon="-1.91161">
        <ele>50</ele>
        <time>2011-12-18T15:44:31Z</time>
      </trkpt>
      <trkpt lat="47.34674" lon="-1.91159">
        <ele>50</ele>
        <time>2011-12-18T15:44:33Z</time>
      </trkpt>
      <trkpt lat="47.34699" lon="-1.91152">
        <ele>51</ele>
        <time>2011-12-18T15:44:41Z</time>
      </trkpt>
      <trkpt lat="47.34701" lon="-1.91154">
        <ele>51</ele>
        <time>2011-12-18T15:44:42Z</time>
      </trkpt>
      <trkpt lat="47.34704" lon="-1.91162">
        <ele>51</ele>
        <time>2011-12-18T15:44:47Z</time>
      </trkpt>
      <trkpt lat="47.34739" lon="-1.91402">
        <ele>49</ele>
        <time>2011-12-18T15:45:18Z</time>
      </trkpt>
      <trkpt lat="47.34748" lon="-1.91415">
        <ele>48</ele>
        <time>2011-12-18T15:45:25Z</time>
      </trkpt>
      <trkpt lat="47.34767" lon="-1.91423">
        <ele>47</ele>
        <time>2011-12-18T15:45:26Z</time>
      </trkpt>
      <trkpt lat="47.34772" lon="-1.91423">
        <ele>46</ele>
        <time>2011-12-18T15:45:27Z</time>
      </trkpt>
      <trkpt lat="47.34882" lon="-1.91386">
        <ele>45</ele>
        <time>2011-12-18T15:45:55Z</time>
      </trkpt>
      <trkpt lat="47.34931" lon="-1.91384">
        <ele>45</ele>
        <time>2011-12-18T15:46:04Z</time>
      </trkpt>
      <trkpt lat="47.35009" lon="-1.91351">
        <ele>45</ele>
        <time>2011-12-18T15:46:30Z</time>
      </trkpt>
      <trkpt lat="47.35051" lon="-1.91314">
        <ele>45</ele>
        <time>2011-12-18T15:46:40Z</time>
      </trkpt>
      <trkpt lat="47.35071" lon="-1.91307">
        <ele>45</ele>
        <time>2011-12-18T15:46:46Z</time>
      </trkpt>
      <trkpt lat="47.35098" lon="-1.91287">
        <ele>45</ele>
        <time>2011-12-18T15:46:53Z</time>
      </trkpt>
      <trkpt lat="47.35112" lon="-1.91282">
        <ele>45</ele>
        <time>2011-12-18T15:46:59Z</time>
      </trkpt>
      <trkpt lat="47.35128" lon="-1.91273">
        <ele>46</ele>
        <time>2011-12-18T15:47:00Z</time>
      </trkpt>
      <trkpt lat="47.35132" lon="-1.91269">
        <ele>46</ele>
        <time>2011-12-18T15:47:01Z</time>
      </trkpt>
      <trkpt lat="47.35136" lon="-1.91257">
        <ele>46</ele>
        <time>2011-12-18T15:47:03Z</time>
      </trkpt>
      <trkpt lat="47.3514" lon="-1.91211">
        <ele>46</ele>
        <time>2011-12-18T15:47:10Z</time>
      </trkpt>
      <trkpt lat="47.35144" lon="-1.91201">
        <ele>46</ele>
        <time>2011-12-18T15:47:15Z</time>
      </trkpt>
      <trkpt lat="47.35159" lon="-1.91193">
        <ele>46</ele>
        <time>2011-12-18T15:47:16Z</time>
      </trkpt>
      <trkpt lat="47.35163" lon="-1.91192">
        <ele>46</ele>
        <time>2011-12-18T15:47:17Z</time>
      </trkpt>
      <trkpt lat="47.35167" lon="-1.91192">
        <ele>46</ele>
        <time>2011-12-18T15:47:18Z</time>
      </trkpt>
      <trkpt lat="47.3517" lon="-1.91194">
        <ele>46</ele>
        <time>2011-12-18T15:47:19Z</time>
      </trkpt>
      <trkpt lat="47.35175" lon="-1.91199">
        <ele>46</ele>
        <time>2011-12-18T15:47:25Z</time>
      </trkpt>
      <trkpt lat="47.35184" lon="-1.91234">
        <ele>46</ele>
        <time>2011-12-18T15:47:33Z</time>
      </trkpt>
      <trkpt lat="47.35174" lon="-1.91266">
        <ele>45</ele>
        <time>2011-12-18T15:47:36Z</time>
      </trkpt>
      <trkpt lat="47.3517" lon="-1.91285">
        <ele>44</ele>
        <time>2011-12-18T15:47:42Z</time>
      </trkpt>
      <trkpt lat="47.35169" lon="-1.9129">
        <ele>43</ele>
        <time>2011-12-18T15:47:44Z</time>
      </trkpt>
      <trkpt lat="47.35186" lon="-1.91367">
        <ele>42</ele>
        <time>2011-12-18T15:48:11Z</time>
      </trkpt>
      <trkpt lat="47.35187" lon="-1.9137">
        <ele>43</ele>
        <time>2011-12-18T15:48:12Z</time>
      </trkpt>
      <trkpt lat="47.35192" lon="-1.91384">
        <ele>43</ele>
        <time>2011-12-18T15:48:18Z</time>
      </trkpt>
      <trkpt lat="47.35193" lon="-1.91386">
        <ele>44</ele>
        <time>2011-12-18T15:48:19Z</time>
      </trkpt>
      <trkpt lat="47.35203" lon="-1.91409">
        <ele>45</ele>
        <time>2011-12-18T15:48:26Z</time>
      </trkpt>
      <trkpt lat="47.35271" lon="-1.91514">
        <ele>46</ele>
        <time>2011-12-18T15:49:01Z</time>
      </trkpt>
      <trkpt lat="47.35295" lon="-1.91583">
        <ele>48</ele>
        <time>2011-12-18T15:49:20Z</time>
      </trkpt>
      <trkpt lat="47.35398" lon="-1.91915">
        <ele>51</ele>
        <time>2011-12-18T15:50:19Z</time>
      </trkpt>
      <trkpt lat="47.35446" lon="-1.92032">
        <ele>51</ele>
        <time>2011-12-18T15:50:39Z</time>
      </trkpt>
      <trkpt lat="47.35568" lon="-1.92174">
        <ele>41</ele>
        <time>2011-12-18T15:51:07Z</time>
      </trkpt>
      <trkpt lat="47.35594" lon="-1.92188">
        <ele>41</ele>
        <time>2011-12-18T15:51:09Z</time>
      </trkpt>
      <trkpt lat="47.35599" lon="-1.92192">
        <ele>41</ele>
        <time>2011-12-18T15:51:14Z</time>
      </trkpt>
      <trkpt lat="47.35603" lon="-1.92201">
        <ele>40</ele>
        <time>2011-12-18T15:51:15Z</time>
      </trkpt>
      <trkpt lat="47.35613" lon="-1.92212">
        <ele>37</ele>
        <time>2011-12-18T15:51:24Z</time>
      </trkpt>
      <trkpt lat="47.35622" lon="-1.92228">
        <ele>35</ele>
        <time>2011-12-18T15:51:48Z</time>
      </trkpt>
      <trkpt lat="47.35623" lon="-1.92231">
        <ele>35</ele>
        <time>2011-12-18T15:51:51Z</time>
      </trkpt>
      <trkpt lat="47.35609" lon="-1.92278">
        <ele>35</ele>
        <time>2011-12-18T15:52:05Z</time>
      </trkpt>
      <trkpt lat="47.35575" lon="-1.92332">
        <ele>35</ele>
        <time>2011-12-18T15:52:21Z</time>
      </trkpt>
      <trkpt lat="47.35567" lon="-1.92338">
        <ele>34</ele>
        <time>2011-12-18T15:52:26Z</time>
      </trkpt>
      <trkpt lat="47.35557" lon="-1.92351">
        <ele>33</ele>
        <time>2011-12-18T15:52:27Z</time>
      </trkpt>
      <trkpt lat="47.35554" lon="-1.92358">
        <ele>31</ele>
        <time>2011-12-18T15:52:29Z</time>
      </trkpt>
      <trkpt lat="47.35533" lon="-1.92404">
        <ele>29</ele>
        <time>2011-12-18T15:52:41Z</time>
      </trkpt>
      <trkpt lat="47.35519" lon="-1.92423">
        <ele>29</ele>
        <time>2011-12-18T15:52:43Z</time>
      </trkpt>
      <trkpt lat="47.35516" lon="-1.92425">
        <ele>29</ele>
        <time>2011-12-18T15:52:44Z</time>
      </trkpt>
      <trkpt lat="47.35509" lon="-1.92426">
        <ele>29</ele>
        <time>2011-12-18T15:52:50Z</time>
      </trkpt>
      <trkpt lat="47.35461" lon="-1.92398">
        <ele>29</ele>
        <time>2011-12-18T15:52:59Z</time>
      </trkpt>
      <trkpt lat="47.35456" lon="-1.92397">
        <ele>29</ele>
        <time>2011-12-18T15:53:01Z</time>
      </trkpt>
      <trkpt lat="47.35453" lon="-1.924">
        <ele>29</ele>
        <time>2011-12-18T15:53:07Z</time>
      </trkpt>
      <trkpt lat="47.35448" lon="-1.92429">
        <ele>29</ele>
        <time>2011-12-18T15:53:09Z</time>
      </trkpt>
      <trkpt lat="47.35448" lon="-1.92431">
        <ele>29</ele>
        <time>2011-12-18T15:53:10Z</time>
      </trkpt>
      <trkpt lat="47.35471" lon="-1.92476">
        <ele>28</ele>
        <time>2011-12-18T15:53:23Z</time>
      </trkpt>
      <trkpt lat="47.35472" lon="-1.92481">
        <ele>28</ele>
        <time>2011-12-18T15:53:24Z</time>
      </trkpt>
      <trkpt lat="47.3547" lon="-1.92515">
        <ele>28</ele>
        <time>2011-12-18T15:53:31Z</time>
      </trkpt>
      <trkpt lat="47.35466" lon="-1.92524">
        <ele>28</ele>
        <time>2011-12-18T15:53:39Z</time>
      </trkpt>
      <trkpt lat="47.35438" lon="-1.92549">
        <ele>28</ele>
        <time>2011-12-18T15:53:49Z</time>
      </trkpt>
      <trkpt lat="47.35427" lon="-1.92562">
        <ele>28</ele>
        <time>2011-12-18T15:53:56Z</time>
      </trkpt>
      <trkpt lat="47.35418" lon="-1.92594">
        <ele>28</ele>
        <time>2011-12-18T15:54:10Z</time>
      </trkpt>
      <trkpt lat="47.35418" lon="-1.92595">
        <ele>28</ele>
        <time>2011-12-18T15:54:18Z</time>
      </trkpt>
      <trkpt lat="47.35414" lon="-1.926">
        <ele>28</ele>
        <time>2011-12-18T15:54:27Z</time>
      </trkpt>
      <trkpt lat="47.3541" lon="-1.92609">
        <ele>28</ele>
        <time>2011-12-18T15:54:28Z</time>
      </trkpt>
      <trkpt lat="47.35409" lon="-1.92611">
        <ele>28</ele>
        <time>2011-12-18T15:54:29Z</time>
      </trkpt>
      <trkpt lat="47.35395" lon="-1.92622">
        <ele>28</ele>
        <time>2011-12-18T15:54:42Z</time>
      </trkpt>
      <trkpt lat="47.35337" lon="-1.92717">
        <ele>28</ele>
        <time>2011-12-18T15:55:16Z</time>
      </trkpt>
      <trkpt lat="47.35336" lon="-1.92724">
        <ele>28</ele>
        <time>2011-12-18T15:55:19Z</time>
      </trkpt>
      <trkpt lat="47.35333" lon="-1.9273">
        <ele>28</ele>
        <time>2011-12-18T15:55:25Z</time>
      </trkpt>
      <trkpt lat="47.35333" lon="-1.92736">
        <ele>28</ele>
        <time>2011-12-18T15:55:32Z</time>
      </trkpt>
      <trkpt lat="47.35334" lon="-1.92737">
        <ele>28</ele>
        <time>2011-12-18T15:55:35Z</time>
      </trkpt>
      <trkpt lat="47.35334" lon="-1.92742">
        <ele>28</ele>
        <time>2011-12-18T15:55:42Z</time>
      </trkpt>
      <trkpt lat="47.35334" lon="-1.92744">
        <ele>28</ele>
        <time>2011-12-18T15:55:44Z</time>
      </trkpt>
      <trkpt lat="47.35335" lon="-1.92756">
        <ele>28</ele>
        <time>2011-12-18T15:55:58Z</time>
      </trkpt>
      <trkpt lat="47.35336" lon="-1.92761">
        <ele>28</ele>
        <time>2011-12-18T15:56:06Z</time>
      </trkpt>
      <trkpt lat="47.35333" lon="-1.9277">
        <ele>28</ele>
        <time>2011-12-18T15:56:07Z</time>
      </trkpt>
      <trkpt lat="47.35312" lon="-1.92794">
        <ele>27</ele>
        <time>2011-12-18T15:56:15Z</time>
      </trkpt>
      <trkpt lat="47.35306" lon="-1.92797">
        <ele>26</ele>
        <time>2011-12-18T15:56:17Z</time>
      </trkpt>
      <trkpt lat="47.35169" lon="-1.92802">
        <ele>17</ele>
        <time>2011-12-18T15:56:45Z</time>
      </trkpt>
      <trkpt lat="47.3516" lon="-1.92806">
        <ele>16</ele>
        <time>2011-12-18T15:56:50Z</time>
      </trkpt>
      <trkpt lat="47.35148" lon="-1.92822">
        <ele>15</ele>
        <time>2011-12-18T15:56:51Z</time>
      </trkpt>
      <trkpt lat="47.35143" lon="-1.92836">
        <ele>14</ele>
        <time>2011-12-18T15:56:53Z</time>
      </trkpt>
      <trkpt lat="47.35141" lon="-1.92858">
        <ele>13</ele>
        <time>2011-12-18T15:56:59Z</time>
      </trkpt>
      <trkpt lat="47.35147" lon="-1.92883">
        <ele>12</ele>
        <time>2011-12-18T15:57:00Z</time>
      </trkpt>
      <trkpt lat="47.35149" lon="-1.92888">
        <ele>11</ele>
        <time>2011-12-18T15:57:01Z</time>
      </trkpt>
      <trkpt lat="47.35154" lon="-1.92907">
        <ele>10</ele>
        <time>2011-12-18T15:57:07Z</time>
      </trkpt>
      <trkpt lat="47.35178" lon="-1.93319">
        <ele>10</ele>
        <time>2011-12-18T15:57:58Z</time>
      </trkpt>
      <trkpt lat="47.35199" lon="-1.93372">
        <ele>9</ele>
        <time>2011-12-18T15:58:07Z</time>
      </trkpt>
      <trkpt lat="47.35207" lon="-1.93415">
        <ele>9</ele>
        <time>2011-12-18T15:58:14Z</time>
      </trkpt>
      <trkpt lat="47.35364" lon="-1.93687">
        <ele>5</ele>
        <time>2011-12-18T15:59:17Z</time>
      </trkpt>
      <trkpt lat="47.3546" lon="-1.94086">
        <ele>14</ele>
        <time>2011-12-18T16:00:35Z</time>
      </trkpt>
      <trkpt lat="47.35648" lon="-1.94506">
        <ele>12</ele>
        <time>2011-12-18T16:01:43Z</time>
      </trkpt>
      <trkpt lat="47.35759" lon="-1.94656">
        <ele>12</ele>
        <time>2011-12-18T16:02:20Z</time>
      </trkpt>
      <trkpt lat="47.35859" lon="-1.95002">
        <ele>11</ele>
        <time>2011-12-18T16:03:15Z</time>
      </trkpt>
      <trkpt lat="47.35858" lon="-1.95016">
        <ele>11</ele>
        <time>2011-12-18T16:03:17Z</time>
      </trkpt>
      <trkpt lat="47.35857" lon="-1.95021">
        <ele>11</ele>
        <time>2011-12-18T16:03:18Z</time>
      </trkpt>
      <trkpt lat="47.35855" lon="-1.95023">
        <ele>11</ele>
        <time>2011-12-18T16:03:19Z</time>
      </trkpt>
      <trkpt lat="47.35852" lon="-1.95023">
        <ele>11</ele>
        <time>2011-12-18T16:03:20Z</time>
      </trkpt>
      <trkpt lat="47.35849" lon="-1.9502">
        <ele>11</ele>
        <time>2011-12-18T16:03:21Z</time>
      </trkpt>
      <trkpt lat="47.35795" lon="-1.94906">
        <ele>11</ele>
        <time>2011-12-18T16:03:52Z</time>
      </trkpt>
      <trkpt lat="47.35781" lon="-1.94879">
        <ele>11</ele>
        <time>2011-12-18T16:04:01Z</time>
      </trkpt>
      <trkpt lat="47.35781" lon="-1.94879">
        <ele>11</ele>
        <time>2011-12-18T16:04:01Z</time>
      </trkpt>
    </trkseg>
  </trk>
</gpx>